[[{"header":{"parameterUnit":"m.s-1","parameterCategory":1,"la1":31.0,"la2":29.5877,"lo1":-88.7671,"lo2":-86.6584,"dy":0.0162,"dx":0.0185,"nx":115,"ny":88,"refTime":"2024-08-04T12:00:00:Z","depth":0,"parameterNumber":2,"parameterNumberName":"U-component_of_WINDS"},"data":[0.0,0.0,0.0,0.0,0.0,0.0,0.0,0.0,0.0,0.0,0.0,0.0,0.0,0.0,0.0,0.0,0.0,0.0,0.0,0.0,0.0,0.0,0.0,0.0,0.0,0.0,0.0,0.0,0.0,0.0,0.0,0.0,0.0,0.0,0.0,0.0,0.0,0.0,0.0,0.0,0.0,0.0,0.0,0.0,0.0,0.0,0.0,0.0,0.0,0.0,0.0,0.0,0.0,0.0,0.0,0.0,0.0,0.0,0.0,0.0,0.0,0.0,0.0,0.0,0.0,0.0,0.0,0.0,0.0,0.0,0.0,0.0,0.0,0.0,0.0,0.0,0.0,0.0,0.0,0.0,0.0,0.0,0.0,0.0,0.0,0.0,0.0,0.0,0.0,0.0,0.0,0.0,0.0,0.0,0.0,0.0,0.0,0.0,0.0,0.0,0.0,0.0,0.0,0.0,0.0,0.0,0.0,0.0,0.0,0.0,0.0,0.0,0.0,0.0,0.0,0.0,0.0,0.0,0.0,0.0,0.0,0.0,0.0,0.0,0.0,0.0,0.0,0.0,0.0,0.0,0.0,0.0,0.0,0.0,0.0,0.0,0.0,0.0,0.0,0.0,0.0,0.0,0.0,0.0,0.0,0.0,0.0,0.0,0.0,0.0,0.0,0.0,0.0,0.0,0.0,0.0,0.0,0.0,0.0,0.0,0.0,0.0,0.0,0.0,0.0,0.0,0.0,0.0,0.0,0.0,0.0,0.0,0.0,0.0,0.0,0.0,0.0,0.0,0.0,0.0,0.0,0.0,0.0,0.0,0.0,0.0,0.0,0.0,0.0,0.0,0.0,0.0,0.0,0.0,0.0,0.0,0.0,0.0,0.0,0.0,0.0,0.0,0.0,0.0,0.0,0.0,0.0,0.0,0.0,0.0,0.0,0.0,0.0,0.0,0.0,0.0,0.0,0.0,0.0,0.0,0.0,0.0,0.0,0.0,0.0,0.0,0.0,0.0,0.0,0.0,0.0,0.0,0.0,0.0,0.0,0.0,0.0,0.0,0.0,0.0,0.0,0.0,0.0,0.0,0.0,0.0,0.0,0.0,0.0,0.0,0.0,0.0,0.0,0.0,0.0,0.0,0.0,0.0,0.0,0.0,0.0,0.0,0.0,0.0,0.0,0.0,0.0,0.0,0.0,0.0,0.0,0.0,0.0,0.0,0.0,0.0,0.0,0.0,0.0,0.0,0.0,0.0,0.0,0.0,0.0,0.0,0.0,0.0,0.0,0.0,0.0,0.0,0.0,0.0,0.0,0.0,0.0,0.0,0.0,0.0,0.0,0.0,0.0,0.0,0.0,0.0,0.0,0.0,0.0,0.0,0.0,0.0,0.0,0.0,0.0,0.0,0.0,0.0,0.0,0.0,0.0,0.0,0.0,0.0,0.0,0.0,0.0,0.0,0.0,0.0,0.0,0.0,0.0,0.0,0.0,0.0,0.0,0.0,0.0,0.0,0.0,0.0,0.0,0.0,0.0,0.0,0.0,0.0,0.0,0.0,0.0,0.0,0.0,0.0,0.0,0.0,0.0,0.0,0.0,0.0,0.0,0.0,0.0,0.0,0.0,0.0,0.0,0.0,0.0,0.0,0.0,0.0,0.0,0.0,0.0,0.0,0.0,0.0,0.0,0.0,0.0,0.0,0.0,0.0,0.0,0.0,0.0,0.0,0.0,0.0,0.0,0.0,0.0,0.0,0.0,0.0,0.0,0.0,0.0,0.0,0.0,0.0,0.0,0.0,0.0,0.0,0.0,0.0,0.0,0.0,0.0,0.0,0.0,0.0,0.0,0.0,0.0,0.0,0.0,0.0,0.0,0.0,0.0,0.0,0.0,0.0,0.0,0.0,0.0,0.0,0.0,0.0,0.0,0.0,0.0,0.0,0.0,0.0,0.0,0.0,0.0,0.0,0.0,0.0,0.0,0.0,0.0,0.0,0.0,0.0,0.0,0.0,0.0,0.0,0.0,0.0,0.0,0.0,0.0,0.0,0.0,0.0,0.0,0.0,0.0,0.0,0.0,0.0,0.0,0.0,0.0,0.0,0.0,0.0,0.0,0.0,0.0,0.0,0.0,0.0,0.0,0.0,0.0,0.0,0.0,0.0,0.0,0.0,0.0,0.0,0.0,0.0,0.0,0.0,0.0,0.0,0.0,0.0,0.0,0.0,0.0,0.0,0.0,0.0,0.0,0.0,0.0,0.0,0.0,0.0,0.0,0.0,0.0,0.0,0.0,0.0,0.0,0.0,0.0,0.0,0.0,0.0,0.0,0.0,0.0,0.0,0.0,0.0,0.0,0.0,0.0,0.0,0.0,0.0,0.0,0.0,0.0,0.0,0.0,0.0,0.0,0.0,0.0,0.0,0.0,0.0,0.0,0.0,0.0,0.0,0.0,0.0,0.0,0.0,0.0,0.0,0.0,0.0,0.0,0.0,0.0,0.0,0.0,0.0,0.0,0.0,0.0,0.0,0.0,0.0,0.0,0.0,0.0,0.0,0.0,0.0,0.0,0.0,0.0,0.0,0.0,0.0,0.0,0.0,0.0,0.0,0.0,0.0,0.0,0.0,0.0,0.0,0.0,0.0,0.0,0.0,0.0,0.0,0.0,0.0,0.0,0.0,0.0,0.0,0.0,0.0,0.0,0.0,0.0,0.0,0.0,0.0,0.0,0.0,0.0,0.0,0.0,0.0,0.0,0.0,0.0,0.0,0.0,0.0,0.0,0.0,0.0,0.0,0.0,0.0,0.0,0.0,0.0,0.0,0.0,0.0,0.0,0.0,0.0,0.0,0.0,0.0,0.0,0.0,0.0,0.0,0.0,0.0,0.0,0.0,0.0,0.0,0.0,0.0,0.0,0.0,0.0,0.0,0.0,0.0,0.0,0.0,0.0,0.0,0.0,0.0,0.0,0.0,0.0,0.0,0.0,0.0,0.0,0.0,0.0,0.0,0.0,0.0,0.0,0.0,0.0,0.0,0.0,0.0,0.0,0.0,0.0,0.0,0.0,0.0,0.0,0.0,0.0,0.0,0.0,0.0,0.0,0.0,0.0,0.0,0.0,0.0,0.0,0.0,0.0,0.0,0.0,0.0,0.0,0.0,0.0,0.0,0.0,0.0,0.0,0.0,0.0,0.0,0.0,0.0,0.0,0.0,0.0,0.0,0.0,0.0,0.0,0.0,0.0,0.0,0.0,0.0,0.0,0.0,0.0,0.0,0.0,0.0,0.0,0.0,0.0,0.0,0.0,0.0,0.0,0.0,0.0,0.0,0.0,0.0,0.0,0.0,0.0,0.0,0.0,0.0,0.0,0.0,0.0,0.0,0.0,0.0,0.0,0.0,0.0,0.0,0.0,0.0,0.0,0.0,0.0,0.0,0.0,0.0,0.0,0.0,0.0,0.0,0.0,0.0,0.0,0.0,0.0,0.0,0.0,0.0,0.0,0.0,0.0,0.0,0.0,0.0,0.0,0.0,0.0,0.0,0.0,0.0,0.0,0.0,0.0,0.0,0.0,0.0,0.0,0.0,0.0,0.0,0.0,0.0,0.0,0.0,0.0,0.0,0.0,0.0,0.0,0.0,0.0,0.0,0.0,0.0,0.0,0.0,0.0,0.0,0.0,0.0,0.0,0.0,0.0,0.0,0.0,0.0,0.0,0.0,0.0,0.0,0.0,0.0,0.0,0.0,0.0,0.0,0.0,0.0,0.0,0.0,0.0,0.0,0.0,0.0,0.0,0.0,0.0,0.0,0.0,0.0,0.0,0.0,0.0,0.0,0.0,0.0,0.0,0.0,0.0,0.0,0.0,0.0,0.0,0.0,0.0,0.0,0.0,0.0,0.0,0.0,0.0,0.0,0.0,0.0,0.0,0.0,0.0,0.0,0.0,0.0,0.0,0.0,0.0,0.0,0.0,0.0,0.0,0.0,0.0,0.0,0.0,0.0,0.0,0.0,0.0,0.0,0.0,0.0,0.0,0.0,0.0,0.0,0.0,0.0,0.0,0.0,0.0,0.0,0.0,0.0,0.0,0.0,0.0,0.0,0.0,0.0,0.0,0.0,0.0,0.0,0.0,0.0,0.0,0.0,0.0,0.0,0.0,0.0,0.0,0.0,0.0,0.0,0.0,0.0,0.0,0.0,0.0,0.0,0.0,0.0,0.0,0.0,0.0,0.0,0.0,0.0,0.0,0.0,0.0,0.0,0.0,0.0,0.0,0.0,0.0,0.0,0.0,0.0,1.9323,0.0,0.0,0.0,0.0,0.0,0.0,0.0,0.0,0.0,0.0,0.0,0.0,0.0,0.0,0.0,0.0,0.0,0.0,0.0,0.0,0.0,0.0,0.0,0.0,0.0,0.0,0.0,0.0,0.0,0.0,0.0,0.0,0.0,0.0,0.0,0.0,0.0,0.0,0.0,0.0,0.0,0.0,0.0,0.0,0.0,0.0,0.0,0.0,0.0,0.0,0.0,0.0,0.0,0.0,0.0,0.0,0.0,0.0,0.0,0.0,0.0,0.0,0.0,0.0,0.0,0.0,0.0,0.0,0.0,0.0,0.0,0.0,0.0,0.0,0.0,0.0,0.0,0.0,0.0,0.0,0.0,0.0,0.0,0.0,0.0,0.0,0.0,0.0,0.0,0.0,0.0,0.0,0.0,0.0,0.0,0.0,0.0,0.0,0.0,0.0,0.0,0.0,0.0,0.0,0.0,0.0,0.0,0.0,0.0,0.0,2.1458,2.1078,2.1056,2.0689,1.9858,0.0,0.0,0.0,0.0,0.0,0.0,0.0,0.0,0.0,0.0,0.0,0.0,0.0,0.0,0.0,0.0,0.0,0.0,0.0,0.0,0.0,0.0,0.0,0.0,0.0,0.0,0.0,0.0,0.0,0.0,0.0,0.0,0.0,0.0,0.0,0.0,0.0,0.0,0.0,0.0,0.0,0.0,0.0,0.0,0.0,0.0,0.0,0.0,0.0,0.0,0.0,0.0,0.0,0.0,0.0,0.0,0.0,0.0,0.0,0.0,0.0,0.0,0.0,0.0,0.0,0.0,0.0,0.0,0.0,0.0,0.0,0.0,0.0,0.0,0.0,0.0,0.0,0.0,0.0,0.0,0.0,0.0,0.0,0.0,0.0,0.0,0.0,0.0,0.0,0.0,0.0,0.0,0.0,0.0,0.0,0.0,0.0,0.0,0.0,0.0,0.0,0.0,0.0,0.0,0.0,0.0,0.0,0.0,0.0,0.0,0.0,0.0,2.1566,2.1363,2.1346,0.0,0.0,0.0,0.0,0.0,0.0,0.0,0.0,0.0,0.0,0.0,0.0,0.0,0.0,0.0,0.0,0.0,0.0,0.0,0.0,0.0,0.0,0.0,0.0,0.0,0.0,0.0,0.0,0.0,0.0,0.0,0.0,0.0,0.0,0.0,0.0,0.0,0.0,0.0,0.0,0.0,0.0,0.0,0.0,0.0,0.0,0.0,0.0,0.0,0.0,0.0,0.0,0.0,0.0,0.0,0.0,0.0,0.0,0.0,0.0,0.0,0.0,0.0,0.0,0.0,0.0,0.0,0.0,0.0,0.0,0.0,0.0,0.0,0.0,0.0,0.0,0.0,0.0,0.0,0.0,0.0,0.0,0.0,0.0,0.0,0.0,0.0,0.0,0.0,0.0,0.0,0.0,0.0,0.0,0.0,0.0,0.0,0.0,0.0,0.0,0.0,0.0,0.0,0.0,0.0,0.0,0.0,0.0,0.0,0.0,2.115,2.2511,2.3361,0.0,2.3896,0.0,0.0,0.0,0.0,0.0,0.0,0.0,0.0,0.0,0.0,0.0,0.0,0.0,0.0,0.0,0.0,0.0,0.0,0.0,0.0,0.0,0.0,0.0,0.0,0.0,0.0,0.0,0.0,0.0,0.0,0.0,0.0,0.0,0.0,0.0,0.0,0.0,0.0,0.0,0.0,0.0,0.0,0.0,0.0,0.0,0.0,0.0,0.0,0.0,0.0,0.0,0.0,0.0,0.0,0.0,0.0,0.0,0.0,0.0,0.0,0.0,0.0,0.0,0.0,0.0,0.0,0.0,0.0,0.0,0.0,0.0,0.0,0.0,0.0,0.0,0.0,0.0,0.0,0.0,0.0,0.0,0.0,0.0,0.0,0.0,0.0,0.0,0.0,0.0,0.0,0.0,0.0,0.0,0.0,0.0,0.0,0.0,0.0,0.0,0.0,0.0,0.0,0.0,0.0,0.0,0.0,0.0,0.0,0.0,0.0,0.0,2.2811,2.3253,2.3492,0.0,0.0,0.0,0.0,0.0,0.0,0.0,0.0,0.0,0.0,0.0,0.0,0.0,0.0,0.0,0.0,0.0,0.0,0.0,0.0,0.0,0.0,0.0,0.0,0.0,0.0,0.0,0.0,0.0,0.0,0.0,0.0,0.0,0.0,0.0,0.0,0.0,0.0,0.0,0.0,0.0,0.0,0.0,0.0,0.0,0.0,0.0,0.0,0.0,0.0,0.0,0.0,0.0,0.0,0.0,0.0,0.0,0.0,0.0,0.0,0.0,0.0,0.0,0.0,0.0,0.0,0.0,0.0,0.0,0.0,0.0,0.0,0.0,0.0,0.0,0.0,0.0,0.0,0.0,0.0,0.0,0.0,0.0,0.0,0.0,0.0,0.0,0.0,0.0,0.0,0.0,0.0,0.0,0.0,0.0,0.0,0.0,0.0,0.0,0.0,0.0,0.0,0.0,0.0,0.0,0.0,0.0,0.0,0.0,0.0,2.2392,0.0,2.3969,2.4006,2.3676,2.2997,0.0,0.0,0.0,0.0,0.0,0.0,0.0,0.0,0.0,0.0,0.0,0.0,0.0,0.0,0.0,0.0,0.0,0.0,0.0,0.0,0.0,0.0,0.0,0.0,0.0,0.0,0.0,0.0,0.0,0.0,0.0,0.0,0.0,0.0,0.0,0.0,0.0,0.0,0.0,0.0,0.0,0.0,0.0,0.0,0.0,0.0,0.0,0.0,0.0,0.0,0.0,0.0,0.0,0.0,0.0,0.0,0.0,0.0,0.0,0.0,0.0,0.0,0.0,0.0,0.0,0.0,0.0,0.0,0.0,0.0,0.0,0.0,0.0,0.0,0.0,0.0,0.0,0.0,0.0,0.0,0.0,0.0,0.0,0.0,0.0,0.0,0.0,0.0,0.0,0.0,0.0,0.0,0.0,0.0,0.0,0.0,0.0,0.0,0.0,0.0,0.0,0.0,0.0,0.0,0.0,0.0,0.0,0.0,0.0,2.3946,2.4097,2.6355,2.6465,2.5364,0.0,0.0,0.0,0.0,0.0,0.0,0.0,0.0,0.0,0.0,0.0,0.0,0.0,0.0,0.0,0.0,0.0,0.0,0.0,0.0,0.0,0.0,0.0,0.0,0.0,0.0,0.0,0.0,0.0,0.0,0.0,0.0,0.0,0.0,0.0,0.0,0.0,0.0,0.0,0.0,0.0,0.0,0.0,0.0,0.0,0.0,0.0,0.0,0.0,0.0,0.0,0.0,0.0,0.0,0.0,0.0,0.0,0.0,0.0,0.0,0.0,0.0,0.0,0.0,0.0,0.0,0.0,0.0,0.0,0.0,0.0,0.0,0.0,0.0,0.0,0.0,0.0,0.0,0.0,0.0,0.0,0.0,0.0,0.0,0.0,0.0,0.0,0.0,0.0,0.0,0.0,0.0,0.0,0.0,0.0,0.0,0.0,0.0,0.0,0.0,0.0,0.0,0.0,0.0,0.0,0.0,0.0,0.0,0.0,2.1698,2.2575,2.4867,2.8594,2.5952,2.4373,0.0,0.0,0.0,0.0,0.0,0.0,0.0,0.0,0.0,0.0,0.0,0.0,0.0,0.0,0.0,0.0,0.0,0.0,0.0,0.0,0.0,0.0,0.0,0.0,0.0,0.0,0.0,0.0,0.0,0.0,0.0,0.0,0.0,0.0,0.0,0.0,0.0,0.0,0.0,0.0,0.0,0.0,0.0,0.0,0.0,0.0,0.0,0.0,0.0,0.0,0.0,0.0,0.0,0.0,0.0,0.0,0.0,0.0,0.0,0.0,0.0,0.0,0.0,0.0,0.0,0.0,0.0,0.0,0.0,0.0,0.0,0.0,0.0,0.0,0.0,0.0,0.0,0.0,0.0,0.0,0.0,0.0,0.0,0.0,0.0,0.0,0.0,0.0,0.0,0.0,0.0,0.0,0.0,0.0,0.0,0.0,0.0,0.0,0.0,0.0,0.0,0.0,0.0,0.0,0.0,0.0,0.0,0.0,0.0,2.164,0.0,2.6261,0.0,2.5878,2.3933,0.0,0.0,0.0,0.0,0.0,0.0,0.0,0.0,0.0,0.0,0.0,0.0,0.0,0.0,0.0,0.0,0.0,0.0,0.0,0.0,0.0,0.0,0.0,0.0,0.0,0.0,0.0,0.0,0.0,0.0,0.0,0.0,0.0,0.0,0.0,0.0,0.0,0.0,0.0,0.0,0.0,0.0,0.0,0.0,0.0,0.0,0.0,0.0,0.0,0.0,0.0,0.0,0.0,0.0,0.0,0.0,0.0,0.0,0.0,0.0,0.0,0.0,0.0,0.0,0.0,0.0,0.0,0.0,0.0,0.0,0.0,0.0,0.0,0.0,0.0,0.0,0.0,0.0,0.0,0.0,0.0,0.0,0.0,0.0,0.0,0.0,0.0,0.0,0.0,0.0,0.0,0.0,0.0,0.0,0.0,0.0,0.0,0.0,0.0,0.0,0.0,0.0,0.0,0.0,0.0,0.0,0.0,0.0,2.148,2.6224,2.7934,2.8044,2.6759,2.6502,2.4226,0.0,0.0,0.0,0.0,0.0,0.0,0.0,0.0,0.0,0.0,0.0,0.0,0.0,0.0,0.0,0.0,0.0,0.0,0.0,0.0,0.0,0.0,0.0,0.0,0.0,0.0,0.0,0.0,0.0,0.0,0.0,0.0,0.0,0.0,0.0,0.0,0.0,0.0,0.0,0.0,0.0,0.0,0.0,0.0,0.0,0.0,0.0,0.0,0.0,0.0,0.0,0.0,0.0,0.0,0.0,0.0,0.0,0.0,0.0,0.0,0.0,0.0,0.0,0.0,0.0,0.0,0.0,0.0,0.0,0.0,0.0,0.0,0.0,0.0,0.0,0.0,0.0,0.0,0.0,0.0,0.0,0.0,0.0,0.0,0.0,0.0,0.0,0.0,0.0,0.0,0.0,0.0,0.0,0.0,0.0,0.0,0.0,0.0,0.0,0.0,0.0,0.0,0.0,0.0,0.0,0.0,0.0,0.0,0.0,2.3309,2.5401,2.7346,2.8851,2.5291,2.3639,0.0,0.0,0.0,0.0,0.0,0.0,0.0,0.0,0.0,0.0,0.0,0.0,0.0,0.0,0.0,0.0,0.0,0.0,0.0,0.0,0.0,0.0,0.0,0.0,0.0,0.0,0.0,0.0,0.0,0.0,0.0,0.0,0.0,0.0,0.0,0.0,0.0,0.0,0.0,0.0,0.0,0.0,0.0,0.0,0.0,0.0,0.0,0.0,0.0,0.0,0.0,0.0,0.0,0.0,0.0,0.0,0.0,0.0,0.0,0.0,0.0,0.0,0.0,0.0,0.0,0.0,0.0,0.0,0.0,0.0,0.0,0.0,0.0,0.0,0.0,0.0,0.0,0.0,0.0,0.0,0.0,0.0,0.0,0.0,0.0,0.0,0.0,0.0,0.0,0.0,0.0,0.0,0.0,0.0,0.0,0.0,0.0,0.0,0.0,0.0,0.0,0.0,0.0,0.0,0.0,0.0,0.0,0.0,0.0,2.4892,2.7816,2.9953,3.1054,2.7383,2.5181,2.474,0.0,0.0,0.0,0.0,0.0,0.0,0.0,0.0,0.0,0.0,0.0,0.0,0.0,0.0,0.0,0.0,0.0,0.0,0.0,0.0,0.0,0.0,0.0,0.0,0.0,0.0,0.0,0.0,0.0,0.0,0.0,0.0,0.0,0.0,0.0,0.0,0.0,0.0,0.0,0.0,0.0,0.0,0.0,0.0,0.0,0.0,0.0,0.0,0.0,0.0,0.0,0.0,0.0,0.0,0.0,0.0,0.0,0.0,0.0,0.0,0.0,0.0,0.0,0.0,0.0,0.0,0.0,0.0,0.0,0.0,0.0,0.0,0.0,0.0,0.0,0.0,0.0,0.0,0.0,0.0,0.0,0.0,0.0,0.0,0.0,0.0,0.0,0.0,0.0,0.0,0.0,0.0,0.0,0.0,0.0,0.0,0.0,0.0,0.0,0.0,0.0,0.0,0.0,0.0,0.0,0.0,0.0,0.0,3.0051,3.4438,3.5504,3.3146,3.1861,2.8484,0.0,0.0,0.0,0.0,0.0,0.0,0.0,0.0,0.0,0.0,0.0,0.0,0.0,0.0,0.0,0.0,0.0,0.0,0.0,0.0,0.0,0.0,0.0,0.0,0.0,0.0,0.0,0.0,0.0,0.0,0.0,0.0,0.0,0.0,0.0,0.0,0.0,0.0,0.0,0.0,0.0,0.0,0.0,0.0,0.0,0.0,0.0,0.0,0.0,0.0,0.0,0.0,0.0,0.0,0.0,0.0,0.0,0.0,0.0,0.0,0.0,0.0,0.0,0.0,0.0,0.0,0.0,0.0,0.0,0.0,0.0,0.0,0.0,0.0,0.0,0.0,0.0,0.0,0.0,0.0,0.0,0.0,0.0,0.0,0.0,0.0,0.0,0.0,0.0,0.0,0.0,0.0,0.0,0.0,0.0,0.0,0.0,0.0,0.0,0.0,0.0,0.0,0.0,0.0,0.0,0.0,0.0,0.0,0.0,3.4585,3.9327,4.0597,3.7961,3.3146,3.0026,0.0,0.0,0.0,0.0,0.0,0.0,0.0,0.0,0.0,0.0,0.0,0.0,0.0,0.0,0.0,0.0,0.0,0.0,0.0,0.0,0.0,0.0,0.0,0.0,0.0,0.0,0.0,0.0,0.0,0.0,0.0,0.0,0.0,0.0,0.0,0.0,0.0,0.0,0.0,0.0,0.0,0.0,0.0,0.0,0.0,0.0,0.0,0.0,0.0,0.0,0.0,0.0,0.0,0.0,0.0,0.0,0.0,0.0,0.0,0.0,0.0,0.0,0.0,0.0,0.0,0.0,0.0,0.0,0.0,0.0,0.0,0.0,0.0,0.0,0.0,0.0,0.0,0.0,0.0,0.0,0.0,0.0,0.0,0.0,0.0,0.0,0.0,0.0,0.0,0.0,0.0,0.0,0.0,0.0,0.0,0.0,0.0,0.0,0.0,0.0,0.0,0.0,0.0,0.0,0.0,0.0,0.0,0.0,3.3821,3.7293,4.3177,4.5366,4.3497,3.7477,3.3183,0.0,0.0,0.0,0.0,0.0,0.0,0.0,0.0,0.0,0.0,0.0,0.0,0.0,0.0,0.0,0.0,0.0,0.0,0.0,0.0,0.0,0.0,0.0,0.0,0.0,0.0,0.0,0.0,0.0,0.0,0.0,0.0,0.0,0.0,0.0,0.0,0.0,0.0,0.0,0.0,0.0,0.0,0.0,0.0,0.0,0.0,0.0,0.0,0.0,0.0,0.0,0.0,0.0,0.0,0.0,0.0,0.0,0.0,0.0,0.0,0.0,0.0,0.0,0.0,0.0,0.0,0.0,0.0,0.0,0.0,0.0,0.0,0.0,0.0,0.0,0.0,0.0,0.0,0.0,0.0,0.0,0.0,0.0,0.0,0.0,0.0,0.0,0.0,0.0,0.0,0.0,0.0,0.0,0.0,0.0,0.0,0.0,0.0,0.0,0.0,0.0,0.0,0.0,0.0,0.0,0.0,0.0,0.0,3.6282,3.8867,4.5727,4.9038,4.8159,4.2837,3.7,0.0,0.0,0.0,0.0,0.0,0.0,0.0,0.0,0.0,0.0,0.0,0.0,0.0,0.0,0.0,0.0,0.0,0.0,0.0,0.0,0.0,0.0,0.0,0.0,0.0,0.0,0.0,0.0,0.0,0.0,0.0,0.0,0.0,0.0,0.0,0.0,0.0,0.0,0.0,0.0,0.0,0.0,0.0,0.0,0.0,0.0,0.0,0.0,0.0,0.0,0.0,0.0,0.0,0.0,0.0,0.0,0.0,0.0,0.0,0.0,0.0,0.0,0.0,0.0,0.0,0.0,0.0,0.0,0.0,0.0,0.0,0.0,0.0,0.0,0.0,0.0,0.0,0.0,0.0,0.0,0.0,0.0,0.0,0.0,0.0,0.0,0.0,0.0,0.0,0.0,0.0,0.0,0.0,0.0,0.0,0.0,0.0,0.0,0.0,0.0,0.0,0.0,0.0,0.0,0.0,0.0,0.0,0.0,3.686,3.9913,4.5084,4.802,4.8269,4.2837,3.8028,0.0,0.0,0.0,0.0,0.0,0.0,0.0,0.0,0.0,0.0,0.0,0.0,0.0,0.0,0.0,0.0,0.0,0.0,0.0,0.0,0.0,0.0,0.0,0.0,0.0,0.0,0.0,0.0,0.0,0.0,0.0,0.0,0.0,0.0,0.0,0.0,0.0,0.0,0.0,0.0,0.0,0.0,0.0,0.0,0.0,0.0,0.0,0.0,3.3017,0.0,0.0,0.0,0.0,0.0,0.0,0.0,0.0,0.0,0.0,0.0,0.0,0.0,0.0,0.0,0.0,0.0,0.0,0.0,0.0,0.0,0.0,0.0,0.0,0.0,0.0,0.0,0.0,0.0,0.0,0.0,0.0,0.0,0.0,0.0,0.0,0.0,0.0,0.0,0.0,0.0,0.0,0.0,0.0,0.0,0.0,0.0,0.0,0.0,0.0,0.0,0.0,0.0,0.0,0.0,0.0,0.0,0.0,0.0,3.7771,4.2051,4.5966,4.8296,4.8708,4.4525,4.0084,0.0,0.0,0.0,0.0,0.0,0.0,0.0,0.0,0.0,0.0,0.0,0.0,0.0,0.0,0.0,0.0,0.0,0.0,0.0,0.0,0.0,0.0,0.0,0.0,0.0,0.0,0.0,0.0,0.0,0.0,0.0,0.0,0.0,0.0,0.0,0.0,0.0,0.0,0.0,0.0,0.0,0.0,0.0,0.0,0.0,0.0,0.0,0.0,0.0,0.0,0.0,0.0,0.0,0.0,0.0,0.0,0.0,0.0,0.0,0.0,0.0,0.0,0.0,0.0,0.0,0.0,0.0,0.0,0.0,0.0,0.0,0.0,0.0,0.0,0.0,0.0,0.0,0.0,0.0,0.0,0.0,0.0,0.0,0.0,0.0,0.0,0.0,0.0,0.0,0.0,0.0,0.0,0.0,0.0,0.0,0.0,0.0,0.0,0.0,0.0,0.0,0.0,0.0,0.0,0.0,0.0,0.0,3.3635,3.8699,4.4289,4.7147,4.8852,4.9334,4.6214,4.1919,3.6486,0.0,0.0,0.0,0.0,0.0,0.0,0.0,0.0,0.0,0.0,0.0,0.0,0.0,0.0,0.0,0.0,0.0,0.0,0.0,0.0,0.0,0.0,0.0,0.0,0.0,0.0,0.0,0.0,0.0,0.0,0.0,0.0,0.0,0.0,0.0,0.0,0.0,0.0,2.8856,3.1867,0.0,0.0,0.0,0.0,0.0,0.0,0.0,0.0,3.5148,0.0,0.0,0.0,0.0,0.0,0.0,0.0,0.0,0.0,0.0,0.0,0.0,0.0,0.0,0.0,0.0,0.0,0.0,0.0,0.0,0.0,0.0,0.0,0.0,0.0,0.0,0.0,0.0,0.0,0.0,0.0,0.0,0.0,0.0,0.0,0.0,0.0,0.0,0.0,0.0,0.0,0.0,0.0,0.0,0.0,0.0,0.0,0.0,0.0,0.0,0.0,0.0,0.0,0.0,0.0,0.0,3.1584,3.4763,3.9177,4.4981,4.7234,4.8412,4.8416,4.5369,4.1368,3.645,0.0,0.0,0.0,0.0,0.0,0.0,0.0,0.0,0.0,0.0,0.0,0.0,0.0,0.0,0.0,0.0,0.0,0.0,0.0,0.0,0.0,0.0,0.0,0.0,0.0,0.0,0.0,0.0,0.0,0.0,0.0,0.0,0.0,0.0,0.0,0.0,0.0,0.0,0.0,3.5419,3.6806,0.0,0.0,0.0,0.0,0.0,0.0,0.0,0.0,3.7313,0.0,0.0,0.0,0.0,0.0,0.0,0.0,0.0,0.0,0.0,0.0,0.0,0.0,0.0,0.0,0.0,0.0,0.0,0.0,0.0,0.0,0.0,0.0,0.0,0.0,0.0,0.0,0.0,0.0,0.0,0.0,0.0,0.0,0.0,0.0,0.0,0.0,0.0,0.0,0.0,0.0,0.0,0.0,0.0,0.0,0.0,0.0,0.0,0.0,0.0,0.0,0.0,0.0,0.0,0.0,3.1701,3.5723,4.0312,4.568,4.7168,4.7995,4.8194,4.4378,4.0377,0.0,0.0,0.0,0.0,0.0,0.0,0.0,0.0,0.0,0.0,0.0,0.0,0.0,0.0,0.0,0.0,0.0,0.0,0.0,0.0,0.0,0.0,0.0,0.0,0.0,0.0,0.0,0.0,0.0,0.0,0.0,0.0,0.0,0.0,0.0,0.0,0.0,0.0,0.0,0.0,3.7212,3.8734,4.0967,0.0,0.0,0.0,0.0,0.0,0.0,3.8802,3.799,0.0,0.0,0.0,0.0,0.0,0.0,0.0,0.0,0.0,0.0,0.0,0.0,0.0,0.0,0.0,0.0,0.0,0.0,0.0,0.0,0.0,0.0,0.0,0.0,0.0,0.0,0.0,0.0,0.0,0.0,0.0,0.0,0.0,0.0,0.0,0.0,0.0,0.0,0.0,0.0,0.0,0.0,0.0,0.0,0.0,0.0,0.0,0.0,0.0,0.0,0.0,0.0,0.0,0.0,0.0,3.1606,3.6539,4.1438,4.6165,4.7176,4.7797,4.8194,4.3644,3.9606,0.0,0.0,0.0,0.0,0.0,0.0,0.0,0.0,0.0,0.0,0.0,0.0,0.0,0.0,0.0,0.0,0.0,0.0,0.0,0.0,0.0,0.0,0.0,0.0,0.0,0.0,0.0,0.0,0.0,0.0,0.0,0.0,0.0,0.0,0.0,0.0,0.0,0.0,0.0,0.0,0.0,4.0595,4.3031,4.1677,0.0,0.0,0.0,0.0,4.1068,4.1001,0.0,0.0,0.0,0.0,0.0,0.0,0.0,0.0,0.0,0.0,0.0,0.0,0.0,0.0,0.0,0.0,0.0,0.0,0.0,0.0,0.0,0.0,0.0,0.0,0.0,0.0,0.0,0.0,0.0,0.0,0.0,0.0,0.0,0.0,0.0,0.0,0.0,0.0,0.0,0.0,0.0,0.0,0.0,0.0,0.0,0.0,0.0,0.0,0.0,0.0,0.0,0.0,0.0,0.0,0.0,0.0,3.2123,3.7145,4.1902,4.6176,4.7554,4.8229,4.8269,4.3644,3.9606,0.0,0.0,0.0,0.0,0.0,0.0,0.0,0.0,0.0,0.0,0.0,0.0,0.0,0.0,0.0,0.0,0.0,0.0,0.0,0.0,0.0,0.0,0.0,0.0,0.0,0.0,0.0,0.0,0.0,0.0,0.0,0.0,0.0,0.0,0.0,0.0,0.0,0.0,0.0,0.0,0.0,4.2286,4.3267,4.2083,4.1271,0.0,0.0,4.4857,4.5026,4.8173,0.0,0.0,0.0,0.0,0.0,0.0,0.0,0.0,0.0,0.0,0.0,0.0,0.0,0.0,0.0,0.0,0.0,0.0,0.0,0.0,0.0,0.0,0.0,0.0,0.0,0.0,0.0,0.0,0.0,0.0,0.0,0.0,0.0,0.0,0.0,0.0,0.0,0.0,0.0,0.0,0.0,0.0,0.0,0.0,0.0,0.0,0.0,0.0,0.0,0.0,0.0,0.0,0.0,0.0,0.0,2.706,3.2564,3.8561,4.318,4.6271,4.7638,4.8306,4.8306,4.2323,3.7955,0.0,0.0,0.0,0.0,0.0,0.0,0.0,0.0,0.0,0.0,0.0,0.0,0.0,0.0,0.0,0.0,0.0,0.0,0.0,0.0,0.0,0.0,0.0,0.0,0.0,0.0,0.0,0.0,0.0,0.0,0.0,0.0,0.0,0.0,0.0,0.0,0.0,0.0,0.0,0.0,0.0,0.0,4.4553,4.4519,0.0,0.0,0.0,4.6955,4.6955,0.0,0.0,0.0,0.0,0.0,0.0,0.0,0.0,0.0,0.0,0.0,0.0,0.0,0.0,0.0,0.0,0.0,0.0,0.0,0.0,0.0,0.0,0.0,0.0,0.0,0.0,0.0,0.0,0.0,0.0,0.0,0.0,0.0,0.0,0.0,0.0,0.0,0.0,0.0,0.0,0.0,0.0,0.0,0.0,0.0,0.0,0.0,0.0,0.0,0.0,0.0,0.0,0.0,0.0,0.0,0.0,0.0,3.3068,3.9869,4.4378,4.6342,4.7638,4.8306,4.8196,4.2029,0.0,0.0,0.0,0.0,0.0,0.0,0.0,0.0,0.0,0.0,0.0,0.0,0.0,0.0,0.0,0.0,0.0,0.0,0.0,0.0,0.0,0.0,0.0,0.0,0.0,0.0,0.0,1.9553,0.0,0.0,0.0,0.0,0.0,0.0,0.0,0.0,0.0,0.0,0.0,0.0,0.0,0.0,4.4756,4.6075,4.7192,4.8308,0.0,0.0,4.9086,4.9289,5.0574,4.9796,0.0,0.0,0.0,0.0,0.0,0.0,0.0,0.0,0.0,0.0,0.0,0.0,0.0,0.0,0.0,0.0,0.0,0.0,0.0,0.0,0.0,0.0,0.0,0.0,0.0,0.0,0.0,0.0,0.0,0.0,0.0,0.0,0.0,0.0,0.0,0.0,0.0,0.0,0.0,0.0,0.0,0.0,0.0,0.0,0.0,0.0,0.0,0.0,0.0,0.0,0.0,0.0,0.0,0.0,0.0,3.3859,4.0637,4.4865,4.6342,4.7674,4.8306,4.8233,4.4195,4.012,0.0,0.0,0.0,0.0,0.0,0.0,0.0,0.0,0.0,0.0,0.0,0.0,0.0,0.0,0.0,0.0,0.0,0.0,0.0,0.0,0.0,0.0,0.0,0.0,0.0,0.0,0.0,0.0,0.0,0.0,0.0,0.0,0.0,0.0,0.0,0.0,0.0,0.0,0.0,0.0,0.0,4.6853,4.7665,4.956,5.1691,0.0,0.0,5.2266,5.301,5.6021,5.5446,4.6921,0.0,0.0,0.0,0.0,0.0,0.0,0.0,0.0,0.0,0.0,0.0,0.0,0.0,0.0,0.0,0.0,0.0,0.0,0.0,0.0,0.0,0.0,0.0,0.0,0.0,0.0,0.0,0.0,0.0,0.0,0.0,0.0,0.0,0.0,0.0,0.0,0.0,0.0,0.0,0.0,0.0,0.0,0.0,0.0,0.0,0.0,0.0,0.0,0.0,0.0,0.0,0.0,0.0,2.9588,3.473,4.1002,4.5116,4.6972,4.7838,4.8306,4.8306,4.4415,4.0157,0.0,0.0,0.0,0.0,0.0,0.0,0.0,0.0,0.0,0.0,0.0,0.0,0.0,0.0,0.0,0.0,0.0,0.0,0.0,0.0,0.0,0.0,0.0,0.0,0.0,0.0,0.0,0.0,2.5338,2.5778,2.5609,0.0,0.0,0.0,0.0,0.0,0.0,0.0,0.0,0.0,0.0,4.824,5.0338,5.2536,0.0,0.0,5.5615,5.5886,5.4397,5.5344,5.4025,4.7428,4.4823,0.0,0.0,0.0,0.0,0.0,0.0,0.0,0.0,0.0,0.0,0.0,0.0,0.0,0.0,0.0,0.0,0.0,0.0,0.0,0.0,0.0,0.0,0.0,0.0,0.0,0.0,0.0,0.0,0.0,0.0,0.0,0.0,0.0,0.0,0.0,0.0,0.0,0.0,0.0,0.0,0.0,0.0,0.0,0.0,0.0,0.0,0.0,0.0,0.0,0.0,0.0,0.0,2.9881,3.5247,4.1167,4.5249,4.7349,4.7959,4.8306,4.8233,4.4856,4.1075,0.0,0.0,0.0,0.0,0.0,0.0,0.0,0.0,0.0,0.0,0.0,0.0,0.0,0.0,0.0,0.0,0.0,0.0,0.0,0.0,0.0,0.0,0.0,0.0,0.0,0.0,0.0,0.0,2.5981,2.615,2.5676,0.0,0.0,0.0,0.0,0.0,0.0,0.0,0.0,0.0,0.0,5.0338,5.2367,5.4228,5.5344,5.5243,5.6055,5.6122,5.4532,5.4262,5.2706,4.8173,0.0,0.0,0.0,0.0,0.0,0.0,0.0,0.0,0.0,0.0,0.0,0.0,0.0,0.0,0.0,0.0,0.0,0.0,0.0,0.0,0.0,0.0,0.0,0.0,0.0,0.0,0.0,0.0,0.0,0.0,1.093,0.0,0.0,0.0,0.0,0.0,0.0,0.0,0.0,0.0,0.0,0.0,0.0,0.0,0.0,0.0,0.0,0.0,0.0,0.0,0.0,0.0,0.0,2.9752,3.5283,4.1207,4.5249,4.7349,4.7995,4.8306,4.8269,4.5957,4.3461,4.0891,0.0,0.0,0.0,0.0,0.0,0.0,0.0,0.0,0.0,0.0,0.0,0.0,0.0,0.0,0.0,0.0,0.0,0.0,0.0,0.0,0.0,0.0,0.0,0.0,0.0,0.0,2.2699,2.4357,2.5642,0.0,0.0,0.0,0.0,0.0,0.0,0.0,0.0,0.0,0.0,4.868,5.3382,5.345,5.4126,5.5209,5.6562,5.3822,5.2029,5.345,5.3551,5.2469,0.0,0.0,0.0,0.0,0.0,0.0,0.0,0.0,0.0,0.0,0.0,0.0,0.0,0.0,0.0,0.0,0.0,0.0,0.0,0.0,0.0,0.0,0.0,0.0,0.0,0.0,0.0,1.7509,1.6408,0.0,0.0,0.0,0.0,0.0,0.0,0.0,0.0,0.0,0.0,0.0,3.2129,3.2779,0.0,0.0,0.0,0.0,0.0,0.0,0.0,0.0,0.0,0.0,0.0,0.0,3.1029,3.597,4.1791,4.5838,4.7922,4.8229,4.8306,4.8306,4.6985,4.4195,3.9606,0.0,0.0,0.0,0.0,0.0,0.0,0.0,0.0,0.0,0.0,0.0,0.0,0.0,0.0,0.0,0.0,0.0,0.0,0.0,0.0,0.0,0.0,0.0,0.0,0.0,2.432,0.0,0.0,0.0,0.0,0.0,0.0,0.0,0.0,0.0,0.0,0.0,4.2016,4.621,4.9357,5.1792,5.3281,5.4972,5.6596,0.0,0.0,0.0,0.0,0.0,0.0,0.0,0.0,0.0,0.0,0.0,0.0,0.0,0.0,5.3855,4.6986,4.6667,4.7747,4.8647,0.0,0.0,0.0,0.0,0.0,0.0,0.0,0.0,0.0,0.0,0.0,0.0,0.0,0.0,2.3199,0.0,2.0409,0.0,0.0,0.0,0.0,0.0,0.0,0.0,0.0,3.2669,3.5312,3.7551,3.8358,3.8065,0.0,3.5642,3.1861,0.0,0.0,0.0,0.0,0.0,0.0,0.0,0.0,3.2386,3.6751,4.2523,4.6448,4.8194,4.8306,4.8306,4.8306,4.7535,4.4892,4.012,3.5826,3.2334,0.0,0.0,0.0,0.0,0.0,0.0,0.0,0.0,0.0,0.0,0.0,0.0,0.0,0.0,0.0,0.0,0.0,0.0,0.0,0.0,0.0,0.0,0.0,2.4929,0.0,0.0,0.0,0.0,0.0,0.0,0.0,0.0,0.0,4.0426,4.2963,4.6244,5.0405,5.1826,5.2706,5.3382,0.0,0.0,0.0,0.0,0.0,0.0,0.0,5.2841,5.186,5.2638,5.3991,5.5886,5.9032,6.1129,6.0588,0.0,0.0,5.4329,5.3687,5.4803,5.6292,5.5967,5.5936,5.7498,5.6492,5.5348,0.0,0.0,0.0,0.0,0.0,0.0,0.0,0.0,2.9329,3.0099,0.0,2.6576,0.0,0.0,0.0,0.0,0.0,3.0356,0.0,0.0,4.0671,4.3057,4.2396,4.1699,4.1735,4.2323,4.0818,3.9239,3.7294,3.0858,0.0,0.0,0.0,0.0,0.0,0.0,3.3828,3.7734,4.3395,4.6957,4.8231,4.8306,4.8306,4.8306,4.7535,4.5626,4.258,4.0855,3.8138,3.4137,2.9512,0.0,0.0,0.0,0.0,0.0,0.0,0.0,0.0,0.0,0.0,0.0,0.0,0.0,0.0,0.0,0.0,0.0,0.0,0.0,0.0,2.4625,0.0,0.0,0.0,0.0,0.0,0.0,0.0,0.0,0.0,0.0,4.4147,4.8071,5.2029,5.4126,0.0,0.0,0.0,0.0,5.4126,5.2942,5.1995,5.1657,5.186,5.4634,5.6867,5.6934,0.0,0.0,6.3869,6.3734,6.3497,6.2042,6.5358,6.6948,6.3328,6.1467,6.1028,6.2302,6.2133,6.1862,6.2047,6.175,6.0931,3.5244,0.0,0.0,0.0,0.0,3.2514,3.4323,3.6952,3.6241,3.5532,3.4761,3.2779,0.0,0.0,0.0,0.0,0.0,0.0,3.6127,3.9392,4.1625,4.3718,4.5736,4.6104,4.6067,4.57,4.5259,4.4232,4.2582,4.0271,3.5121,2.7398,0.0,0.0,0.0,0.0,3.6991,4.0928,4.4858,4.7309,4.8269,4.8306,4.8306,4.8306,4.7535,4.6654,4.5773,4.4195,4.1735,3.8285,3.5202,0.0,0.0,0.0,0.0,0.0,0.0,0.0,0.0,0.0,0.0,0.0,0.0,0.0,0.0,0.0,0.0,0.0,0.0,0.0,2.5812,2.7063,2.8247,0.0,0.0,0.0,0.0,0.0,0.0,0.0,0.0,0.0,5.257,5.1894,5.1623,0.0,0.0,5.2604,5.1961,5.3416,5.5378,5.7543,0.0,0.0,0.0,5.9404,5.893,6.052,6.3971,6.6711,6.7387,6.8808,6.9891,6.9891,7.1007,7.1481,7.0534,6.9113,6.8055,6.8045,6.8629,6.8908,6.811,6.7722,6.7451,4.1889,3.7903,3.6222,3.6211,3.7441,3.784,3.9527,4.192,4.1323,4.0891,4.0451,3.8689,3.6817,3.4908,3.366,0.0,0.0,0.0,3.9937,4.3499,4.3975,4.5406,4.7535,4.8086,4.8049,4.7609,4.7572,4.7095,4.614,4.4893,4.0917,3.4403,0.0,0.0,3.2485,3.656,4.001,4.2763,4.5957,4.7829,4.8306,4.8306,4.8306,4.8306,4.7829,4.7425,4.7095,4.5883,4.3975,4.1405,3.8726,3.4751,0.0,0.0,0.0,0.0,0.0,0.0,0.0,0.0,0.0,0.0,0.0,2.1583,0.0,0.0,0.0,0.0,2.5947,2.7334,2.9973,3.1055,0.0,0.0,0.0,0.0,0.0,0.0,0.0,4.5965,5.0551,5.426,5.5996,5.5134,5.4803,5.6122,5.5141,5.4194,5.3923,0.0,5.7036,5.8964,5.9336,6.0216,6.2448,6.2448,6.2956,6.5527,6.7624,6.9248,7.0229,7.2022,7.3375,7.3849,7.4153,7.4356,7.4356,7.3612,7.2818,7.2166,7.2647,7.315,7.2835,7.2055,7.1186,4.7022,4.5956,4.2023,4.0588,4.1007,4.2415,4.3808,4.5076,4.5076,4.5847,4.6874,4.4011,4.2653,4.2396,3.957,0.0,4.1625,4.2506,4.4452,4.7315,4.7388,4.7792,4.8489,4.8489,4.8489,4.8489,4.8489,4.8489,4.8379,4.6287,4.4378,4.2763,4.0813,3.9176,3.8028,4.0818,4.2873,4.3901,4.6801,4.8343,4.8416,4.8416,4.8379,4.8306,4.8233,4.7865,4.7131,4.6324,4.5186,4.3608,4.0634,3.7514,3.4257,0.0,0.0,0.0,0.0,0.0,0.0,0.0,0.0,0.0,0.0,0.0,0.0,0.0,0.0,0.0,3.1867,0.0,3.596,3.6197,0.0,0.0,0.0,4.2151,4.5906,4.9424,5.1799,5.2416,0.0,0.0,5.6212,0.0,5.9945,6.2178,6.0419,5.866,5.7983,5.8457,5.8863,5.8457,5.9607,6.0622,6.1603,6.4512,6.7793,7.0297,7.1921,7.2225,7.2428,7.3544,7.4492,7.4695,7.5236,7.5642,7.5676,7.5506,7.5506,7.4769,7.4796,7.5107,7.5704,7.4307,7.2921,5.0368,4.9556,4.8853,4.7705,4.6397,4.6764,4.7537,4.8379,4.8379,4.7902,4.7058,4.6324,4.5626,4.5039,4.4892,4.5149,4.5736,4.7205,4.8269,4.9003,4.9627,5.0031,5.0215,5.0178,5.0215,5.0215,5.0215,5.0215,5.0178,4.9627,4.8526,4.6948,4.6359,4.4162,4.0487,4.2213,4.4525,4.7131,4.7939,4.86,4.926,4.926,4.8967,4.8343,4.7719,4.7315,4.7131,4.6324,4.5443,4.4452,4.2506,4.0134,3.7275,3.2015,0.0,0.0,0.0,0.0,0.0,0.0,0.0,0.0,0.0,2.8046,2.297,0.0,3.119,0.0,3.5723,3.8937,4.0561,4.1238,0.0,0.0,4.638,4.753,5.1251,5.3416,5.4734,5.4828,5.7296,5.9227,5.9852,5.9827,6.0689,6.2854,6.0317,5.8084,5.7949,5.9032,6.0013,6.0588,6.2618,6.4749,6.5899,6.8368,7.0432,7.1176,7.1921,7.2563,7.3105,7.3984,7.4796,7.5303,7.5574,7.5676,7.5709,7.5676,7.5912,7.6251,7.6352,7.5769,7.4032,7.431,7.4897,5.1737,5.1338,5.1374,5.0525,4.9159,4.9377,4.9701,5.0105,5.0105,4.9591,4.8783,4.8746,4.8489,4.8122,4.8563,4.8746,4.882,4.9701,5.0141,5.0141,5.0582,5.0802,5.0802,5.0802,5.0802,5.0802,5.0802,5.0802,5.0802,5.0802,5.0325,4.9407,4.9407,4.7902,4.5002,4.4672,4.5443,4.7205,4.7939,4.8893,5.0068,4.9774,4.8857,4.7278,4.6801,4.5883,4.4488,4.4011,4.324,4.2103,4.0818,3.914,3.6863,3.3286,3.0472,0.0,0.0,0.0,0.0,0.0,0.0,0.0,0.0,0.0,0.0,0.0,3.5047,3.5757,4.0223,4.3572,4.4688,4.6346,4.8477,5.1217,5.2029,5.345,5.6156,5.778,5.8829,5.9167,6.0554,6.1704,6.2212,6.1907,6.1907,6.2922,6.1197,5.9877,5.9979,6.0892,6.1772,6.2313,6.4783,6.732,6.9113,7.0466,7.1312,7.1379,7.2191,7.3037,7.3443,7.439,7.5236,7.5608,7.5676,7.5845,7.6149,7.6251,7.6487,7.7164,7.7671,7.7179,7.5851,7.5832,7.6079,5.2408,5.2288,5.1978,5.1435,5.077,5.1043,5.0882,5.0325,5.0325,5.0398,5.0508,5.0729,5.0802,5.0802,5.0802,5.0802,5.0802,5.0912,5.0949,5.0949,5.1059,5.1096,5.1096,5.1132,5.1096,5.1096,5.1096,5.1132,5.1096,5.1096,5.1022,5.0839,5.0802,5.0325,4.937,4.7278,4.6214,4.6214,4.7792,4.9297,5.0582,4.9738,4.8159,4.5883,4.5553,4.4085,4.1258,4.1001,4.0304,3.8946,3.8175,3.7294,3.6156,3.4284,3.2529,0.0,2.9703,0.0,0.0,0.0,0.0,0.0,0.0,0.0,0.0,3.8802,3.9715,4.0967,4.5094,4.8037,4.8984,5.1454,5.3687,5.531,5.7171,5.8863,6.025,6.1603,6.2618,6.3294,6.3937,6.4072,6.3396,6.3362,6.3091,6.2719,6.2516,6.2381,6.2651,6.3024,6.3396,6.3632,6.6068,6.847,7.0567,7.1244,7.1345,7.1548,7.2529,7.3477,7.3646,7.4762,7.5676,7.5676,7.5676,7.5946,7.6758,7.6893,7.7164,7.7976,7.8585,7.8891,7.8791,7.8011,7.751,5.4611,5.4025,5.4334,5.4132,5.3677,5.3347,5.1156,4.7829,4.7829,4.8196,4.8857,5.0215,5.0802,5.0802,5.0802,5.0802,5.0839,5.1463,5.1793,5.1793,5.2454,5.2747,5.2747,5.2747,5.2747,5.2747,5.2747,5.2747,5.2747,5.2747,5.2087,5.0839,5.0802,5.0068,4.86,0.0,0.0,0.0,4.9481,5.0178,4.9774,4.8343,4.6728,4.4966,4.3681,0.0,4.1185,4.0487,4.001,3.968,3.9533,0.0,0.0,0.0,0.0,0.0,0.0,0.0,0.0,0.0,0.0,0.0,3.9411,3.9276,3.9783,4.3572,4.6143,4.6515,4.9965,5.301,5.4938,5.6122,5.7679,5.9776,6.0419,6.0994,6.1873,6.2245,6.2448,6.2584,6.2753,6.2787,6.2685,6.2584,6.2787,6.3193,6.3294,6.3565,6.4106,6.3835,6.3768,6.4444,6.6508,6.8741,7.0973,7.1278,7.1515,7.2124,7.2868,7.368,7.4289,7.5067,7.5676,7.5676,7.5676,7.598,7.6792,7.6893,7.7401,7.8653,7.9025,7.9126,7.9126,7.9365,7.9566,5.5446,0.0,5.5107,5.4531,0.0,5.3112,5.1166,4.8427,4.9823,5.0638,5.1082,5.1896,5.2146,5.194,5.1169,5.0802,5.0765,5.0362,5.0618,5.1389,5.183,5.2454,5.3225,5.3225,5.3225,5.3225,5.3225,5.3225,5.3225,5.3225,5.2784,5.2013,5.2013,5.1573,5.0765,5.0729,5.0362,4.9554,5.0362,5.0986,5.1316,5.0178,4.8563,4.6544,0.0,0.0,0.0,0.0,0.0,0.0,0.0,0.0,0.0,0.0,0.0,4.296,4.1636,4.1102,4.1831,4.1911,4.2838,4.4891,4.6075,4.5906,4.4113,4.8105,5.0811,5.1251,5.3619,5.5886,5.7679,5.8558,5.9607,6.1129,6.1603,6.2009,6.2313,6.2415,6.2415,6.2415,6.2415,6.2415,6.2415,6.2753,6.3091,6.3463,6.3835,6.4309,6.4952,6.4816,6.4952,6.6068,6.7421,6.9011,7.0432,7.1109,7.1582,7.2293,7.3003,7.3747,7.4492,7.5202,7.5676,7.5709,7.6014,7.6555,7.7266,7.7739,7.8348,7.9329,7.9634,7.9667,7.9667,7.9938,8.0209,5.5703,5.5682,5.5312,5.4473,5.3173,5.2731,5.1793,5.0695,0.0,0.0,0.0,5.3793,5.372,5.3203,5.1915,5.1287,5.1132,4.9811,4.9921,5.1206,5.1206,5.194,5.3188,5.3225,5.3225,5.3225,5.3225,5.3225,5.3225,5.3225,5.3225,5.3225,5.3225,5.3225,5.3225,5.3225,5.2564,5.1279,5.0949,5.1463,5.2711,5.183,5.0288,4.8159,4.7315,4.559,4.2873,4.2727,4.2103,4.0855,4.1515,4.2103,4.2396,4.3644,4.4602,4.5196,4.5704,4.6125,4.6361,4.7011,4.8003,4.9492,5.1285,5.1352,4.9052,5.1961,5.4194,5.4905,5.6325,5.7746,5.9099,5.9877,6.0622,6.1434,6.2042,6.2381,6.2415,6.2415,6.2415,6.2415,6.2415,6.2415,6.2415,6.3024,6.3565,6.3768,6.4377,6.5053,6.5696,6.5865,6.6237,6.7489,6.8402,6.9383,7.0297,7.1075,7.1785,7.2766,7.3375,7.395,7.4661,7.5303,7.5642,7.5676,7.6352,7.7096,7.7841,7.8517,7.9329,8.004,8.0209,8.0209,8.0209,8.0209,8.0242,5.5703,5.5703,5.5621,5.5467,5.5253,5.4842,5.452,5.4188,5.287,5.2265,5.234,5.3779,5.4153,5.3683,5.346,5.3193,5.2858,5.2601,5.2674,0.0,5.2894,5.3004,5.3188,5.3225,5.3225,5.3225,5.3225,5.3225,5.3225,5.3225,5.3225,5.3225,5.3225,5.3225,5.3225,5.3225,5.3115,5.2858,5.1499,5.0912,5.1132,4.9627,4.8343,4.7314,4.6581,4.559,4.4452,4.4415,4.4268,4.4085,4.4782,4.5847,4.7205,4.7498,4.8327,4.9739,4.9519,4.9275,4.9396,4.9513,5.027,5.1657,5.2131,5.2401,5.2773,5.4363,5.5716,5.6461,5.778,5.9032,5.9877,6.0622,6.1366,6.211,6.2313,6.2415,6.2415,6.2415,6.2415,6.2415,6.2415,6.2415,6.2448,6.3091,6.3802,6.4377,6.5053,6.5797,6.6373,6.6643,6.6981,6.776,6.8571,6.962,7.0635,7.1718,7.2563,7.4086,7.4255,7.4559,7.5337,7.5574,7.5676,7.5676,7.642,7.7164,7.7874,7.8619,7.9363,8.0073,8.0209,8.0209,8.0209,8.0242,8.0445,5.5703,5.5703,5.5703,5.5703,5.5703,5.5531,5.5423,5.5346,5.4421,5.3899,5.3746,5.4477,5.4579,5.4074,5.3211,5.2735,5.2526,5.1417,5.1379,5.2155,5.1989,5.238,5.3151,5.3225,5.3225,5.3225,5.3225,5.3225,5.3225,5.3225,5.3225,5.3225,5.3225,5.3225,5.3225,5.3225,5.3225,5.3188,5.2491,5.2123,5.2123,5.1353,5.0802,5.0435,4.9627,4.904,4.8673,4.8233,4.8012,4.8012,4.8783,4.9554,5.0251,5.0729,5.1302,5.2069,5.1142,5.0752,5.1205,5.1261,5.1589,5.2266,5.3078,5.3856,5.4668,5.531,5.6021,5.6765,5.8152,5.9336,6.0047,6.0825,6.1603,6.2313,6.2415,6.2415,6.2415,6.2415,6.2415,6.2415,6.2415,6.2415,6.2415,6.3396,6.4174,6.4647,6.5527,6.644,6.6779,6.6812,6.6914,6.732,6.7963,6.8842,6.9958,7.0737,7.1921,7.368,7.3984,7.4492,7.5405,7.5676,7.5676,7.5777,7.6657,7.7502,7.7976,7.8957,7.9701,8.004,8.0209,8.0209,8.0242,8.0784,8.1494,5.5703,5.5703,5.5703,5.5703,5.5703,5.5703,5.5703,5.5703,5.5665,5.5493,5.5237,5.5237,5.5026,5.4489,5.327,5.2643,5.2333,5.0862,5.0775,5.1822,5.1519,5.2013,5.3115,5.3225,5.3225,5.3225,5.3225,5.3225,5.3225,5.3225,5.3225,5.3225,5.3225,5.3225,5.3225,5.3225,5.3225,5.3225,5.3225,5.3225,5.3225,5.3225,5.3188,5.3151,5.2601,5.227,5.2234,5.1683,5.1353,5.1353,5.194,5.227,5.227,5.2858,5.306,5.268,5.1822,5.1635,5.2144,5.2255,5.2469,5.2841,5.3923,5.4972,5.5852,5.5953,5.6292,5.707,5.8423,5.9539,6.0114,6.0994,6.1772,6.2313,6.2415,6.2415,6.2415,6.2415,6.2415,6.2415,6.2415,6.2415,6.2651,6.37,6.4715,6.5256,6.6136,6.6779,6.6812,6.6812,6.6812,6.6948,6.7421,6.8335,6.9147,7.0026,7.1345,7.3172,7.351,7.4119,7.5033,7.5405,7.5709,7.598,7.7063,7.7942,7.828,7.9261,8.004,8.0209,8.0209,8.0209,8.0242,8.1325,8.2306,5.5703,5.5703,5.5703,5.5703,5.5703,5.5703,5.5703,5.5703,5.5703,5.5703,5.5621,5.5621,5.5423,5.508,5.4852,5.4544,5.4214,5.3639,5.3386,5.3461,5.3179,5.3078,5.3188,5.3225,5.3225,5.3225,5.3225,5.3225,5.3225,5.3225,5.3225,5.3225,5.3225,5.3225,5.3225,5.3225,5.3225,5.3225,5.3225,5.3225,5.3225,5.3225,5.3225,5.3225,5.3151,5.3078,5.3041,5.3004,5.2968,5.3004,5.3004,5.3078,5.3078,5.3188,5.2635,5.1515,5.1811,5.2179,5.2311,5.2298,5.2909,5.4194,5.4499,5.5209,5.6494,5.6697,5.7002,5.7848,5.9133,5.9945,6.0182,6.14,6.2245,6.2347,6.2415,6.2415,6.2415,6.2415,6.2415,6.2415,6.2415,6.2415,6.255,6.3666,6.5087,6.6237,6.6576,6.6812,6.6812,6.6812,6.6812,6.6948,6.7421,6.847,6.9654,7.0703,7.165,7.3037,7.3443,7.3815,7.4424,7.483,7.5067,7.6014,7.7333,7.8111,7.8788,7.9667,8.0141,8.0209,8.0209,8.0209,8.0344,8.1393,8.2272,5.5703,5.5703,5.5703,5.5703,5.5703,5.5703,5.5703,5.5703,5.5703,5.5703,5.5703,5.5703,5.5599,5.5446,5.5446,5.5375,5.516,5.4516,5.4221,5.4153,5.3524,5.3225,5.3225,5.3225,5.3225,5.3225,5.3225,5.3225,5.3225,5.3225,5.3225,5.3225,5.3225,5.3225,5.3225,5.3225,5.3225,5.3225,5.3225,5.3225,5.3225,5.3225,5.3225,5.3225,5.3225,5.3225,5.3225,5.3225,5.3225,5.3225,5.3225,5.3225,5.3225,5.3665,5.3632,5.3132,5.3385,5.3414,5.3032,5.3034,5.345,5.4532,5.5006,5.5716,5.6697,5.7205,5.7746,5.8524,5.9505,6.008,6.0216,6.1501,6.2415,6.2415,6.2415,6.2415,6.2415,6.2415,6.2415,6.2415,6.2415,6.2415,6.2618,6.3666,6.5155,6.644,6.6812,6.6812,6.6812,6.6812,6.6812,6.6914,6.7421,6.8301,6.9383,7.0161,7.1244,7.236,7.2834,7.3105,7.3781,7.439,7.4897,7.5506,7.6893,7.7908,7.828,7.9431,8.0209,8.0209,8.0209,8.0209,8.0209,8.1393,8.2205,5.5703,5.5703,5.5703,5.5703,5.5703,5.5703,5.5703,5.5682,5.5577,5.5599,5.5703,5.5577,5.5599,5.5703,5.5703,5.5703,5.5599,5.4848,5.4484,5.4387,5.3602,5.3225,5.3225,5.3225,5.3225,5.3225,5.3225,5.3225,5.3225,5.3225,5.3225,5.3225,5.3225,5.3225,5.3225,5.3225,5.3225,5.3225,5.3225,5.3225,5.3225,5.3225,5.3225,5.3225,5.3225,5.3225,5.3225,5.3225,5.3225,5.3225,5.3225,5.3335,5.3555,5.4106,5.4496,5.4665,5.4384,5.4128,5.3836,5.3844,5.4126,5.4871,5.5581,5.6325,5.7002,5.7577,5.822,5.893,5.9674,6.0148,6.0554,6.1603,6.2347,6.2415,6.2415,6.2415,6.2415,6.2415,6.2415,6.2415,6.2415,6.2584,6.3057,6.414,6.5459,6.6542,6.6812,6.6812,6.6812,6.6812,6.688,6.7083,6.776,6.8436,6.9045,6.9755,7.0737,7.165,7.2225,7.2631,7.3138,7.3815,7.4492,7.5067,7.6623,7.7739,7.8213,7.916,8.0209,8.0209,8.0209,8.0209,8.0209,8.1325,8.2035,5.5703,5.5703,5.5703,5.5703,5.5703,5.5703,5.5682,5.5599,5.5262,5.535,5.5599,5.5262,5.5312,5.5703,5.5621,5.5665,5.5577,5.4848,5.4452,5.4355,5.3602,5.3225,5.3225,5.3225,5.3225,5.3225,5.3225,5.3225,5.3225,5.3225,5.3225,5.3225,5.3225,5.3225,5.3225,5.3225,5.3225,5.3225,5.3225,5.3225,5.3225,5.3225,5.3225,5.3225,5.3225,5.3225,5.3225,5.3225,5.3225,5.3225,5.3261,5.3555,5.4252,5.4436,5.4875,5.541,5.4388,5.3931,5.4537,5.4527,5.4837,5.5615,5.6258,5.7036,5.7645,5.7881,5.8321,5.8964,5.9776,6.0452,6.1163,6.1907,6.2381,6.2415,6.2415,6.2415,6.2415,6.2415,6.2415,6.2415,6.2448,6.299,6.4241,6.5155,6.5865,6.6576,6.6812,6.6812,6.6812,6.6812,6.7083,6.7726,6.8402,6.9045,6.918,6.9891,7.0601,7.1278,7.1954,7.2326,7.2631,7.3037,7.3747,7.4593,7.5946,7.7096,7.7976,7.8889,7.987,8.0209,8.0209,8.0209,8.0209,8.0818,8.1596,5.5287,5.535,5.5599,5.5554,5.535,5.5287,5.5186,5.4905,5.476,5.4933,5.5186,5.4876,5.508,5.5643,5.516,5.508,5.5237,5.4731,5.4322,5.4013,5.3444,5.3225,5.3225,5.3225,5.3225,5.3225,5.3225,5.3225,5.3225,5.3225,5.3225,5.3225,5.3225,5.3225,5.3225,5.3225,5.3225,5.3225,5.3225,5.3225,5.3225,5.3225,5.3225,5.3225,5.3225,5.3225,5.3225,5.3225,5.3445,5.3959,5.3995,5.4326,5.5097,5.5647,5.6291,5.6915,5.5776,5.525,5.5809,5.5132,5.5141,5.6258,5.663,5.7137,5.778,5.8321,5.893,5.9641,6.0419,6.1197,6.1806,6.2245,6.2415,6.2415,6.2415,6.2415,6.2415,6.2415,6.2415,6.2482,6.2787,6.3531,6.4444,6.5222,6.5967,6.6643,6.6812,6.6812,6.6812,6.6812,6.7083,6.7827,6.8571,6.9282,6.9789,7.0432,7.1041,7.121,7.1582,7.1684,7.1887,7.2428,7.3105,7.3815,7.5134,7.669,7.7705,7.916,8.0006,8.0209,8.0209,8.0209,8.0209,8.0953,8.1697,5.4905,5.4933,5.5186,5.516,5.4905,5.4943,5.476,5.4522,5.4322,5.4516,5.476,5.4484,5.4671,5.516,5.4731,5.4547,5.4633,5.4387,5.4083,5.3796,5.34,5.3225,5.3225,5.3225,5.3225,5.3225,5.3225,5.3225,5.3225,5.3225,5.3225,5.3225,5.3225,5.3225,5.3225,5.3225,5.3225,5.3225,5.3225,5.3225,5.3225,5.3482,5.3592,5.3628,5.3849,5.3849,5.3628,5.3592,5.3959,5.4656,5.4803,5.5133,5.5941,5.6748,5.7409,5.7747,5.6831,5.6325,5.6658,5.5912,5.575,5.6697,5.7036,5.7374,5.7881,5.8592,5.9302,6.0047,6.0825,6.1603,6.2178,6.2381,6.2415,6.2415,6.2415,6.2415,6.2415,6.2415,6.2516,6.2854,6.3429,6.414,6.485,6.5595,6.6237,6.6779,6.6812,6.6812,6.6812,6.6846,6.7218,6.8098,6.8741,6.9553,7.0229,7.0939,7.1142,7.1312,7.1616,7.1548,7.1447,7.1988,7.2563,7.324,7.4525,7.6149,7.7739,7.9261,7.9904,8.0141,8.0209,8.0209,8.0581,8.1122,8.1799,5.4484,5.4484,5.4522,5.4585,5.4484,5.4484,5.4484,5.4322,5.3977,5.4048,5.4387,5.4013,5.4118,5.4452,5.442,5.4221,5.3977,5.387,5.3796,5.3683,5.3359,5.3225,5.3225,5.3225,5.3225,5.3225,5.3225,5.3225,5.3225,5.3225,5.3225,5.3225,5.3225,5.3225,5.3225,5.3225,5.3225,5.3225,5.3225,5.3225,5.3298,5.3959,5.4326,5.4473,5.5023,5.5097,5.4509,5.4436,5.4766,5.5464,5.5611,5.5978,5.6785,5.7483,5.7997,5.7956,5.7281,5.6914,5.6999,5.6842,5.6596,5.7002,5.7476,5.7848,5.8118,5.8693,5.9438,6.0216,6.096,6.167,6.2245,6.2415,6.2415,6.2415,6.2415,6.2415,6.2415,6.2415,6.2685,6.3328,6.4038,6.485,6.5561,6.6203,6.6711,6.6779,6.6812,6.6812,6.6812,6.6812,6.7489,6.8571,6.9113,6.9553,7.0466,7.1312,7.1312,7.1379,7.1751,7.1921,7.1582,7.1819,7.2326,7.3071,7.4931,7.6555,7.8213,7.9566,7.9972,8.0209,8.0209,8.0209,8.0547,8.1021,8.1731,5.4322,5.4083,5.4355,5.4288,5.4048,5.4013,5.387,5.3602,5.3404,5.3643,5.3906,5.3565,5.3758,5.4187,5.3944,5.3682,5.3758,5.3526,5.34,5.3359,5.3272,5.3225,5.3225,5.3225,5.3225,5.3225,5.3225,5.3225,5.3225,5.3225,5.3225,5.3225,5.3225,5.3225,5.3261,5.3225,5.3225,5.3225,5.3225,5.3445,5.3959,5.4289,5.4656,5.517,5.5464,5.5684,5.6014,5.55,5.5611,5.6381,5.6418,5.6785,5.7519,5.785,5.8253,5.8589,5.7568,5.74,5.8174,5.7394,5.7036,5.7442,5.778,5.8152,5.866,5.9336,6.008,6.0858,6.1603,6.2178,6.2347,6.2415,6.2415,6.2415,6.2415,6.2415,6.2415,6.2415,6.2753,6.3429,6.4174,6.4884,6.5628,6.6339,6.6812,6.6812,6.6812,6.6812,6.6812,6.6812,6.7421,6.8741,6.9079,6.962,7.0703,7.1312,7.1312,7.1312,7.1616,7.1853,7.1616,7.1582,7.2124,7.3341,7.5168,7.6893,7.8517,7.9498,7.987,8.0175,8.0209,8.0242,8.031,8.0953,8.1832,5.3833,5.3643,5.387,5.3833,5.3604,5.3565,5.3444,5.3188,5.3225,5.3359,5.3484,5.3318,5.3521,5.3833,5.344,5.3359,5.3526,5.3277,5.3225,5.3225,5.3225,5.3225,5.3225,5.3225,5.3225,5.3225,5.3225,5.3225,5.3225,5.3225,5.3225,5.3225,5.3225,5.3408,5.3592,5.3665,5.3775,5.4032,5.4142,5.4326,5.4803,5.5133,5.5537,5.6014,5.6308,5.6748,5.7189,5.6748,5.6748,5.7152,5.7262,5.7519,5.796,5.829,5.8694,5.8896,5.843,5.8296,5.9301,5.8146,5.7556,5.814,5.8337,5.849,5.9099,5.9877,6.0825,6.1264,6.1941,6.2415,6.2381,6.2415,6.2415,6.2415,6.2415,6.2415,6.2415,6.2415,6.2922,6.37,6.4343,6.5053,6.5933,6.6406,6.6812,6.6812,6.6812,6.6812,6.6812,6.6812,6.7726,6.8571,6.9045,6.9857,7.1007,7.1312,7.1312,7.1312,7.1379,7.1481,7.1379,7.1413,7.1751,7.3477,7.527,7.6758,7.8382,7.916,7.9667,7.987,8.0175,8.0242,8.0412,8.1426,8.2272,5.3225,5.3225,5.3225,5.323,5.323,5.323,5.323,5.3188,5.3225,5.3225,5.323,5.3188,5.3188,5.323,5.3225,5.323,5.3188,5.3188,5.3225,5.3225,5.3225,5.3225,5.3225,5.3225,5.3225,5.3225,5.3225,5.3225,5.3225,5.3225,5.3261,5.3371,5.3445,5.3702,5.4326,5.4473,5.4766,5.528,5.5427,5.5464,5.5684,5.6308,5.6785,5.6895,5.7446,5.7813,5.785,5.7776,5.785,5.796,5.7997,5.8107,5.8217,5.8841,5.9318,5.948,5.9291,5.9581,5.9857,5.8727,5.8178,5.8806,5.8931,5.9032,5.9302,6.0351,6.1231,6.1501,6.2042,6.2415,6.2415,6.2415,6.2415,6.2415,6.2415,6.2415,6.2415,6.2448,6.3159,6.4208,6.4681,6.5189,6.6508,6.6779,6.6812,6.6812,6.6812,6.6812,6.6846,6.7049,6.7658,6.8368,6.9113,6.9992,7.1109,7.1312,7.1312,7.1312,7.1312,7.1312,7.1515,7.165,7.2124,7.3781,7.5236,7.6758,7.7942,7.8822,7.9532,8.0006,8.0175,8.0175,8.0784,8.1731,8.2509,5.3225,5.3225,5.3225,5.3225,5.3225,5.3225,5.3225,5.3225,5.3225,5.3225,5.3225,5.3225,5.3225,5.3225,5.3225,5.3225,5.3225,5.3225,5.3225,5.3225,5.3225,5.3225,5.3225,5.3225,5.3225,5.3225,5.3225,5.3225,5.3225,5.3261,5.3555,5.4069,5.4106,5.4509,5.517,5.528,5.5354,5.5537,5.5611,5.5941,5.6455,5.6675,5.7116,5.7666,5.7886,5.7997,5.7997,5.7997,5.7997,5.8033,5.8584,5.8914,5.8951,5.9648,6.0261,6.0541,5.9905,5.987,6.0509,5.9172,5.8388,5.8977,5.9173,5.9235,5.981,6.0723,6.1501,6.1941,6.2313,6.2415,6.2415,6.2415,6.2415,6.2415,6.2415,6.2415,6.2516,6.2922,6.3599,6.4444,6.5053,6.5797,6.6474,6.6812,6.6812,6.6812,6.6812,6.6812,6.688,6.732,6.7929,6.8774,6.9553,7.0297,7.0973,7.121,7.1312,7.1312,7.1312,7.1345,7.1751,7.2259,7.3071,7.4356,7.5439,7.6826,7.7807,7.8686,7.9363,7.9701,7.987,7.9837,8.0885,8.1866,8.2644,5.4216,5.4216,5.4216,5.3995,5.3739,5.3702,5.3518,5.3261,5.3225,5.3225,5.3225,5.3225,5.3225,5.3225,5.3225,5.3225,5.3225,5.3225,5.3225,5.3225,5.3225,5.3225,5.3225,5.3225,5.3225,5.3225,5.3225,5.3408,5.3665,5.3702,5.4142,5.4766,5.4876,5.5317,5.6051,5.6124,5.6271,5.6528,5.6602,5.6859,5.7262,5.7299,5.7519,5.7923,5.7997,5.7997,5.7997,5.8327,5.851,5.8621,5.8988,5.9355,5.9758,6.0456,6.0933,6.112,6.0196,6.0297,6.0854,5.9311,5.8735,5.9665,5.9801,5.9851,6.0554,6.1298,6.2009,6.2279,6.2381,6.2415,6.2415,6.2415,6.2415,6.2415,6.2415,6.2516,6.2787,6.326,6.4005,6.4783,6.5459,6.5967,6.6711,6.6812,6.6812,6.6812,6.6812,6.6812,6.688,6.7523,6.8233,6.9045,6.9789,7.05,7.0973,7.1244,7.1312,7.1312,7.1481,7.1447,7.209,7.2766,7.3544,7.4525,7.5642,7.6657,7.7502,7.8111,7.8247,7.8619,7.9025,7.9803,8.075,8.2002,8.2746,5.5611,5.5574,5.5574,5.517,5.4583,5.4509,5.4179,5.3592,5.3628,5.3592,5.3592,5.3518,5.3702,5.3445,5.3775,5.3555,5.3555,5.3702,5.3628,5.3665,5.3665,5.3702,5.3702,5.3555,5.3592,5.3665,5.3482,5.3922,5.4399,5.4509,5.495,5.5537,5.5721,5.6161,5.6785,5.6932,5.7336,5.7666,5.7703,5.7703,5.7813,5.785,5.7886,5.7923,5.7997,5.8107,5.8327,5.8804,5.9245,5.9501,5.9465,5.9942,6.0566,6.1263,6.1281,6.0811,6.0509,6.0665,6.1045,5.9488,5.9008,6.0662,6.059,6.0486,6.1163,6.1839,6.2313,6.2381,6.2415,6.2415,6.2415,6.2415,6.2415,6.2415,6.2415,6.2753,6.3396,6.3632,6.4174,6.5459,6.573,6.617,6.6542,6.6812,6.6812,6.6812,6.6846,6.6948,6.7252,6.7895,6.8571,6.9282,6.9958,7.0601,7.0973,7.1312,7.1312,7.1345,7.1616,7.1819,7.2496,7.3138,7.3747,7.4593,7.5506,7.6251,7.6961,7.7299,7.7333,7.8077,7.8855,7.9566,8.0378,8.1866,8.2949,5.5611,5.5611,5.5611,5.55,5.5354,5.5317,5.5244,5.5023,5.5023,5.495,5.5023,5.506,5.5023,5.5023,5.495,5.5097,5.495,5.495,5.5097,5.506,5.5097,5.5097,5.4913,5.4509,5.4509,5.484,5.506,5.517,5.5317,5.539,5.5757,5.6418,5.6602,5.6932,5.7556,5.7629,5.7776,5.7997,5.7997,5.7997,5.7997,5.7997,5.7997,5.7997,5.8033,5.8364,5.8841,5.9134,5.9832,6.075,6.108,6.1117,6.141,6.2034,6.2011,6.1315,6.0772,6.0803,6.1015,5.9978,5.9545,6.1155,6.1238,6.1095,6.1264,6.1975,6.2347,6.2415,6.2415,6.2415,6.2415,6.2415,6.2415,6.2415,6.2482,6.2956,6.4005,6.4343,6.4749,6.5527,6.6203,6.6609,6.6779,6.6812,6.6812,6.6812,6.6948,6.7117,6.7692,6.8335,6.8977,6.9688,7.0331,7.0939,7.1041,7.1312,7.1312,7.1447,7.1718,7.2191,7.2868,7.3443,7.4052,7.4627,7.5236,7.5912,7.6555,7.642,7.6454,7.757,7.8619,7.9295,8.0175,8.1697,8.2983,5.5627,5.5713,5.6079,5.6004,5.5759,5.599,5.5941,5.5647,5.5611,5.5611,5.5611,5.5611,5.5611,5.5611,5.5611,5.5574,5.5611,5.5611,5.5574,5.5537,5.5574,5.5794,5.6088,5.5757,5.5647,5.5684,5.5574,5.5757,5.6051,5.6235,5.6565,5.7299,5.7336,5.7519,5.7923,5.7997,5.796,5.7997,5.7997,5.7997,5.7997,5.7997,5.7997,5.8107,5.8327,5.8804,5.9134,6.0015,6.0713,6.1447,6.1961,6.2144,6.2181,6.2498,6.2182,6.1207,6.1543,6.1131,6.0854,6.0601,6.0731,6.1776,6.1559,6.1588,6.1738,6.2212,6.2347,6.2415,6.2415,6.2415,6.2415,6.2415,6.2415,6.2482,6.2719,6.3396,6.4309,6.4613,6.5053,6.5933,6.6576,6.6745,6.6812,6.6812,6.7117,6.7252,6.7421,6.7624,6.8436,6.9079,6.9519,7.0128,7.0804,7.121,7.1244,7.1312,7.1312,7.1548,7.1887,7.2496,7.3172,7.3747,7.4322,7.4897,7.5473,7.5608,7.6048,7.5845,7.5845,7.6589,7.7536,7.8619,7.9837,8.1121,8.2337,5.5724,5.578,5.6421,5.6325,5.5887,5.6297,5.6197,5.5696,5.5761,5.5898,5.5852,5.5896,5.6198,5.6014,5.6088,5.5978,5.6014,5.6051,5.6235,5.6235,5.6235,5.6528,5.6859,5.6859,5.6638,5.5978,5.6124,5.6492,5.6859,5.7005,5.7299,5.7886,5.796,5.7923,5.796,5.7997,5.7997,5.7997,5.7997,5.7997,5.7997,5.7997,5.8033,5.84,5.8761,5.9358,5.9894,6.075,6.163,6.1814,6.2438,6.2732,6.2805,6.2705,6.2185,6.0757,6.1724,6.1671,6.105,6.1045,6.1631,6.2427,6.1934,6.1816,6.2212,6.2347,6.2381,6.2415,6.2415,6.2415,6.2415,6.2415,6.2415,6.2516,6.3057,6.3802,6.441,6.4681,6.5459,6.6406,6.6745,6.6812,6.6812,6.6846,6.7286,6.7692,6.7861,6.8267,6.9113,6.9688,7.006,7.0432,7.1041,7.1278,7.1312,7.1312,7.1312,7.1582,7.1954,7.2732,7.3477,7.4289,7.4864,7.527,7.5676,7.5777,7.5777,7.5743,7.5811,7.5946,7.6826,7.8213,7.9398,8.0546,8.1626,5.5724,5.5724,5.5836,5.5821,5.5715,5.5845,5.5847,5.5812,5.632,5.6667,5.6731,5.724,5.7354,5.7437,5.7556,5.7556,5.7244,5.7208,5.7327,5.7409,5.7373,5.7593,5.7593,5.7629,5.7593,5.7666,5.7483,5.7519,5.7666,5.7813,5.7776,5.796,5.795,5.795,5.7997,5.7997,5.7867,5.7821,5.7867,5.7867,5.7867,5.8014,5.8344,5.8809,5.9197,5.9852,6.0823,6.1374,6.1887,6.2511,6.2732,6.2755,6.2741,6.2741,6.2223,6.164,6.1849,6.1982,6.1238,6.1306,6.1775,6.2208,6.2188,6.2144,6.2347,6.2415,6.2415,6.2415,6.2415,6.2415,6.2415,6.2415,6.2415,6.2584,6.3125,6.3903,6.458,6.5222,6.5797,6.6643,6.6779,6.6812,6.6812,6.6948,6.7387,6.7827,6.8166,6.8876,6.9857,7.0229,7.0432,7.0804,7.1244,7.1312,7.1312,7.1312,7.1345,7.165,7.209,7.2902,7.3747,7.4796,7.5439,7.5608,7.5676,7.5709,7.5709,7.5676,7.5709,7.5811,7.686,7.7942,7.8455,7.8953,8.002,5.4544,5.4606,5.4999,5.5144,5.5203,5.5552,5.5724,5.578,5.6114,5.6259,5.6367,5.6632,5.6789,5.6789,5.6789,5.7029,5.7351,5.7449,5.7594,5.7867,5.7997,5.7997,5.7914,5.7914,5.7997,5.796,5.796,5.7914,5.7997,5.796,5.795,5.7904,5.7679,5.7631,5.7774,5.7631,5.7449,5.7449,5.7449,5.7486,5.751,5.7764,5.8419,5.9045,5.9615,6.0231,6.0752,6.1491,6.1974,6.2442,6.1969,6.1915,6.2078,6.2148,6.196,6.1823,6.2524,6.2591,6.1844,6.1919,6.259,6.2358,6.2415,6.2415,6.2415,6.2415,6.2415,6.2415,6.2415,6.2415,6.2415,6.2415,6.2584,6.3024,6.3632,6.4343,6.5053,6.5797,6.6339,6.6745,6.6779,6.6812,6.6812,6.7049,6.7489,6.7929,6.8402,6.9383,7.05,7.0737,7.0838,7.1007,7.1312,7.1312,7.1312,7.1312,7.1312,7.1582,7.2124,7.2935,7.368,7.4593,7.527,7.5642,7.5676,7.5676,7.5676,7.5676,7.5676,7.558,7.6092,7.6505,7.6842,7.7395,7.8131,5.3518,5.3551,5.4171,5.4356,5.4482,5.4999,5.5203,5.5262,5.5437,5.5495,5.5495,5.5667,5.5745,5.5724,5.5836,5.6095,5.6668,5.6668,5.6927,5.7266,5.7364,5.7462,5.751,5.7546,5.7364,5.7229,5.7315,5.7726,5.795,5.7774,5.7726,5.7498,5.7015,5.6876,5.7216,5.6876,5.6721,5.6704,5.6884,5.6956,5.7262,5.7674,5.841,5.9111,5.9809,6.0125,6.0532,6.0947,6.1459,6.1659,6.1265,6.0772,6.1472,6.1661,6.1722,6.204,6.3574,6.3096,6.2557,6.2412,6.2829,6.2459,6.2415,6.2415,6.2415,6.2415,6.2415,6.2415,6.2415,6.2415,6.2415,6.255,6.2888,6.3463,6.4241,6.5053,6.5595,6.6136,6.6542,6.6812,6.6812,6.6812,6.6812,6.6981,6.7387,6.8301,6.8808,6.962,7.0635,7.1041,7.1142,7.121,7.1312,7.1312,7.1312,7.1312,7.1312,7.1413,7.2022,7.2766,7.3477,7.4221,7.483,7.5411,7.5676,7.5676,7.5676,7.5388,7.4932,7.4736,7.4835,7.5039,7.5201,7.5266,7.562,5.3518,5.3484,5.3618,5.3618,5.3651,5.3783,5.3783,5.3881,5.4482,5.4695,5.4757,5.532,5.5552,5.5552,5.5552,5.5724,5.5836,5.5836,5.6004,5.6223,5.6223,5.6223,5.6059,5.5948,5.6223,5.6277,5.6169,5.6789,5.7364,5.7216,5.7015,5.6825,5.6313,5.5948,5.6223,5.6004,5.5836,5.5978,5.6546,5.722,5.7683,5.7903,5.8413,5.8985,5.9354,5.965,6.0175,6.0448,6.07,6.0736,6.0555,6.0751,6.145,6.2195,6.2455,6.2474,6.2612,6.2637,6.2353,6.2513,6.2659,6.2459,6.2415,6.2415,6.2415,6.2415,6.2415,6.2415,6.2415,6.2482,6.2618,6.3024,6.3328,6.3971,6.4749,6.5358,6.5865,6.6339,6.6745,6.6812,6.6812,6.6812,6.6812,6.7015,6.732,6.8335,6.9282,7.0094,7.0737,7.1109,7.1312,7.1312,7.1312,7.1312,7.1312,7.1312,7.1312,7.1312,7.1785,7.2529,7.3308,7.4018,7.4573,7.5147,7.5411,7.5258,7.4736,7.4306,7.4005,7.377,7.3668,7.3665,7.3656,7.3543,7.3507,5.3518,5.3518,5.3518,5.3518,5.3518,5.3518,5.3518,5.3551,5.3815,5.4011,5.4011,5.4264,5.4454,5.4516,5.4454,5.473,5.4999,5.5084,5.532,5.5574,5.5667,5.5667,5.578,5.5724,5.5724,5.561,5.5724,5.6004,5.6474,5.6421,5.6204,5.6095,5.5495,5.5379,5.5507,5.5262,5.5364,5.5758,5.6458,5.7227,5.7764,5.796,5.8276,5.9114,5.9071,5.9342,5.9574,5.9639,5.996,6.0129,5.9988,5.9976,6.0769,6.1467,6.183,6.185,6.2214,6.2438,6.2391,6.2381,6.2415,6.2415,6.2415,6.2415,6.2415,6.2415,6.2415,6.2415,6.2415,6.2584,6.2922,6.3294,6.3971,6.4647,6.529,6.5764,6.6203,6.6474,6.6812,6.6812,6.6812,6.6812,6.6981,6.7421,6.7827,6.8605,6.9519,7.0263,7.0838,7.121,7.1312,7.1312,7.1312,7.1312,7.1312,7.1312,7.1312,7.1312,7.1222,7.2032,7.3138,7.3823,7.3989,7.4594,7.506,7.4604,7.3871,7.3566,7.3464,7.3018,7.2355,7.222,7.1887,7.2159,7.235,5.311,5.311,5.3348,5.3518,5.3518,5.3518,5.3518,5.3518,5.3518,5.3518,5.3518,5.3551,5.3551,5.3518,5.3618,5.3946,5.4328,5.4328,5.4668,5.4999,5.5144,5.5024,5.4999,5.5059,5.5059,5.5144,5.4939,5.5059,5.5119,5.5179,5.5179,5.5379,5.473,5.4745,5.5096,5.5022,5.5086,5.6053,5.6535,5.7221,5.7774,5.7912,5.8256,5.8599,5.8806,5.8806,5.8806,5.8806,5.9212,5.9663,5.9493,5.9617,6.0625,6.1189,6.1605,6.1791,6.2232,6.2436,6.2381,6.2415,6.2415,6.2415,6.2415,6.2415,6.2415,6.2415,6.2415,6.2415,6.2415,6.2787,6.3328,6.3632,6.441,6.5155,6.5865,6.6305,6.6643,6.6745,6.6812,6.6812,6.6812,6.6812,6.7117,6.7793,6.8402,6.9011,6.9755,7.05,7.0906,7.1278,7.1312,7.1312,7.1312,7.1312,7.1312,7.1312,7.1312,7.1007,7.0916,7.1304,7.2223,7.2441,7.2249,7.3044,7.4073,7.3533,7.2461,7.2809,7.2809,7.1605,7.0631,7.037,7.0235,7.0672,7.1169,5.1993,5.2065,5.3041,5.345,5.3518,5.3518,5.3518,5.3518,5.3518,5.3518,5.3518,5.3518,5.3518,5.3518,5.3518,5.3551,5.3618,5.3551,5.3783,5.3783,5.3685,5.3881,5.3946,5.3946,5.3849,5.3849,5.4011,5.3946,5.3817,5.4213,5.4367,5.4516,5.4247,5.4294,5.4668,5.5109,5.5553,5.6369,5.6845,5.7253,5.7763,5.7895,5.7963,5.7997,5.7993,5.8027,5.8027,5.8167,5.8549,5.931,5.9389,5.9776,6.0849,6.135,6.1704,6.2076,6.2245,6.2415,6.2415,6.2415,6.2415,6.2415,6.2415,6.2415,6.2415,6.2415,6.2415,6.2415,6.2415,6.2854,6.3463,6.4106,6.4783,6.5628,6.6237,6.6508,6.6745,6.6779,6.6812,6.6812,6.6846,6.688,6.7387,6.8098,6.8538,6.9113,7.0026,7.077,7.1007,7.1312,7.1312,7.1312,7.1312,7.1312,7.1312,7.1131,7.0791,7.0263,6.9949,7.0364,7.1095,7.1055,7.0837,7.1431,7.2249,7.1713,7.1388,7.1388,7.0949,6.9631,6.8864,6.8937,6.9428,7.0125,7.0603,5.1005,5.1005,5.141,5.2345,5.3518,5.3518,5.3518,5.3518,5.3518,5.3518,5.3518,5.3518,5.3518,5.3518,5.3518,5.3518,5.3518,5.3518,5.3518,5.3518,5.3518,5.3518,5.3518,5.3518,5.3518,5.3518,5.3518,5.3518,5.3585,5.3957,5.4262,5.4397,5.4364,5.4703,5.5108,5.5683,5.6292,5.6697,5.7205,5.7645,5.7746,5.7881,5.7881,5.7881,5.7881,5.7881,5.7949,5.8355,5.8693,5.9167,5.9911,6.0655,6.1264,6.167,6.2042,6.2313,6.2381,6.2415,6.2415,6.2415,6.2415,6.2415,6.2415,6.2415,6.2415,6.2415,6.2415,6.2415,6.2448,6.2922,6.4038,6.4478,6.4986,6.6,6.6576,6.6745,6.6812,6.6812,6.6812,6.6812,6.6914,6.7015,6.7692,6.8436,6.8774,6.918,7.0161,7.0939,7.1176,7.1312,7.1312,7.1312,7.1312,7.1098,7.1007,7.0574,7.0043,6.9508,6.9026,6.9346,6.9847,6.9976,6.9904,7.0249,7.0424,7.0199,6.9973,6.9859,6.9432,6.8766,6.8181,6.7817,6.856,6.9572,7.0231,4.9931,4.9931,5.0242,5.1262,5.259,5.287,5.3041,5.311,5.3348,5.3518,5.3518,5.3518,5.3518,5.3518,5.3518,5.3518,5.3518,5.3518,5.3518,5.3518,5.3518,5.3518,5.3518,5.3518,5.3518,5.3551,5.3788,5.389,5.3957,5.46,5.5109,5.5312,5.5277,5.5649,5.6021,5.6697,5.7137,5.7273,5.7543,5.7881,5.7881,5.7881,5.7881,5.7881,5.7881,5.8084,5.8287,5.8727,5.9302,5.9911,6.0622,6.1298,6.1704,6.2042,6.2347,6.2415,6.2415,6.2415,6.2415,6.2415,6.2415,6.2415,6.2415,6.2415,6.2415,6.2415,6.2415,6.2415,6.2618,6.3226,6.4512,6.485,6.5425,6.644,6.6643,6.6812,6.6812,6.6812,6.6812,6.6812,6.7049,6.7387,6.7996,6.8774,6.962,6.9925,7.0534,7.1109,7.121,7.1312,7.1312,7.1312,7.1312,7.1007,7.0666,7.0076,6.9445,6.8758,6.8312,6.8161,6.8476,6.8559,6.8658,6.8705,6.8766,6.8766,6.8649,6.8531,6.8531,6.8413,6.8001,6.7747,6.8525,6.9572,7.026,4.881,4.8973,4.9852,5.032,5.055,5.1557,5.1993,5.2241,5.311,5.3518,5.3518,5.3518,5.3518,5.3518,5.3518,5.3518,5.3518,5.3518,5.3518,5.3518,5.3518,5.3518,5.3518,5.3518,5.3619,5.3721,5.4059,5.4397,5.46,5.5344,5.5987,5.6393,5.6461,5.6664,5.6833,5.7476,5.7814,5.7848,5.7848,5.7881,5.7881,5.7881,5.7881,5.7881,5.7881,5.8118,5.8693,5.9066,5.9742,6.0757,6.1163,6.1704,6.2178,6.2279,6.2415,6.2415,6.2415,6.2415,6.2415,6.2415,6.2415,6.2415,6.2415,6.2415,6.2415,6.2415,6.2415,6.2415,6.2922,6.3666,6.4512,6.5189,6.5933,6.6508,6.6745,6.6812,6.6812,6.6812,6.6812,6.6914,6.7455,6.7963,6.847,6.9147,7.0263,7.0838,7.1142,7.1312,7.1222,7.1312,7.1312,7.1312,7.1222,7.0666,7.017,6.9508,6.8863,6.8107,6.749,6.7291,6.7147,6.7204,6.7265,6.7185,6.7427,6.7879,6.7548,6.7091,6.7517,6.8031,6.818,6.8226,6.8914,6.9602,7.035,4.7849,4.7849,4.8157,4.8324,4.8625,5.0165,5.1229,5.1993,5.2972,5.3518,5.3518,5.3518,5.3518,5.3518,5.3518,5.3518,5.3518,5.3518,5.3518,5.3518,5.3551,5.3518,5.3551,5.3687,5.3822,5.4194,5.4566,5.5006,5.5344,5.6089,5.6461,5.6833,5.7239,5.7509,5.7577,5.7814,5.7881,5.7881,5.7881,5.7881,5.7881,5.7881,5.7881,5.7881,5.7881,5.8321,5.9066,5.9438,6.0317,6.1298,6.167,6.211,6.2381,6.2415,6.2415,6.2415,6.2415,6.2415,6.2415,6.2415,6.2415,6.2415,6.2415,6.2415,6.2415,6.2415,6.2415,6.2584,6.3193,6.3903,6.4512,6.5256,6.5967,6.6576,6.6812,6.6812,6.6812,6.6812,6.6846,6.7015,6.7421,6.8605,6.935,6.9667,7.0613,7.0861,7.1064,7.1098,7.1098,7.1222,7.1312,7.1312,7.1098,7.0389,6.9666,6.8732,6.7779,6.6946,6.6355,6.5936,6.5891,6.6372,6.6613,6.7001,6.7061,6.6999,6.6999,6.7059,6.7328,6.7597,6.8076,6.8525,6.9064,6.9812,7.062,4.7309,4.7309,4.7309,4.7309,4.7538,4.9166,5.0397,5.1377,5.2098,5.2557,5.287,5.2939,5.3179,5.3348,5.3518,5.3518,5.3518,5.3518,5.3518,5.3551,5.3822,5.3923,5.3957,5.4126,5.4634,5.4972,5.531,5.5683,5.6122,5.6799,5.7171,5.734,5.7611,5.7746,5.7848,5.7848,5.7881,5.7881,5.7881,5.7881,5.7881,5.7881,5.7881,5.7983,5.8186,5.8693,5.9404,6.0114,6.0858,6.1569,6.2076,6.2415,6.2415,6.2415,6.2415,6.2415,6.2415,6.2415,6.2415,6.2415,6.2415,6.2415,6.2415,6.2415,6.2415,6.2415,6.2618,6.2922,6.3463,6.4174,6.4884,6.5595,6.617,6.6812,6.6812,6.6812,6.688,6.688,6.7218,6.7354,6.8132,6.9282,7.0195,7.0546,7.0996,7.0973,7.0916,7.0791,7.0699,7.0699,7.0699,7.0482,7.017,6.9121,6.8271,6.7491,6.6601,6.5883,6.5577,6.5353,6.6041,6.6642,6.6729,6.6849,6.6939,6.6999,6.6999,6.7089,6.7328,6.7807,6.8435,6.8854,6.9273,6.9991,7.0829,4.7309,4.7309,4.7309,4.7309,4.7452,4.8377,4.9376,5.032,5.0474,5.1005,5.1849,5.1849,5.2241,5.311,5.328,5.311,5.3142,5.3211,5.3209,5.3549,5.3881,5.4188,5.4664,5.5106,5.5446,5.5886,5.6224,5.6461,5.6867,5.734,5.7712,5.778,5.7814,5.7881,5.7881,5.7881,5.7881,5.7881,5.7881,5.7881,5.7881,5.7881,5.7983,5.8186,5.8592,5.9302,6.0047,6.0791,6.1501,6.2042,6.2381,6.2415,6.2415,6.2415,6.2415,6.2415,6.2415,6.2415,6.2415,6.2415,6.2415,6.2415,6.2415,6.2415,6.2448,6.255,6.2888,6.3429,6.4072,6.4816,6.5561,6.6102,6.6677,6.6812,6.6812,6.688,6.6948,6.7184,6.7624,6.8199,6.918,7.0128,7.077,7.1188,7.0791,7.0263,6.9949,6.9346,6.9313,6.9633,6.9537,6.9024,6.8503,6.7572,6.6878,6.6469,6.604,6.5505,6.5555,6.5592,6.6311,6.6849,6.6879,6.6939,6.6969,6.6999,6.6999,6.7119,6.7358,6.7926,6.8675,6.9123,6.9542,7.0201,7.0919,4.7309,4.7309,4.7309,4.7309,4.7309,4.7624,4.8293,4.9296,5.0009,5.0627,5.0855,5.0855,5.108,5.1262,5.1262,5.1336,5.1531,5.1717,5.1977,5.2529,5.3585,5.3964,5.4522,5.5152,5.5808,5.6322,5.6622,5.6853,5.7403,5.7808,5.7775,5.7848,5.7554,5.7628,5.7701,5.7881,5.7808,5.7808,5.7808,5.7881,5.7915,5.7949,5.8186,5.8592,5.8998,5.9776,6.0689,6.1129,6.1772,6.2245,6.2381,6.2415,6.2415,6.2415,6.2415,6.2415,6.2415,6.2415,6.2415,6.2415,6.2415,6.2415,6.2415,6.2415,6.2516,6.2821,6.3226,6.3835,6.4613,6.5358,6.5865,6.6373,6.6745,6.6812,6.6812,6.6846,6.7015,6.7557,6.7996,6.8808,6.9789,7.0466,7.1176,7.1007,7.0574,6.9822,6.8991,6.8174,6.7774,6.8074,6.8174,6.7774,6.7164,6.6365,6.6161,6.5763,6.5534,6.5256,6.5383,6.5802,6.652,6.6939,6.6969,6.6999,6.6999,6.6999,6.6999,6.7148,6.7298,6.8196,6.8944,6.9393,6.9842,7.047,7.0889,4.7309,4.7309,4.7309,4.7309,4.7309,4.7309,4.7679,4.8293,4.8922,4.9327,4.9773,4.9773,5.0009,5.0474,5.0506,5.0666,5.0987,5.1353,5.1674,5.2313,5.3129,5.3591,5.4142,5.4711,5.5325,5.5819,5.5951,5.5919,5.6591,5.6658,5.6547,5.647,5.6547,5.6624,5.6547,5.6778,5.7114,5.7372,5.7554,5.7808,5.7983,5.8152,5.8626,5.9066,5.9438,6.0452,6.1197,6.1467,6.1975,6.2347,6.2381,6.2415,6.2415,6.2415,6.2415,6.2415,6.2415,6.2415,6.2415,6.2415,6.2415,6.2415,6.2415,6.2415,6.2651,6.299,6.3497,6.4106,6.5019,6.5797,6.617,6.6508,6.6677,6.6812,6.6812,6.6812,6.732,6.7861,6.8571,6.9316,7.006,7.0737,7.0929,7.0724,7.0043,6.8797,6.7774,6.6751,6.6365,6.6259,6.647,6.6365,6.5728,6.5142,6.5091,6.5176,6.5086,6.5111,6.5622,6.6071,6.6759,6.6999,6.6999,6.6999,6.6999,6.6999,6.6999,6.7059,6.7298,6.8286,6.9123,6.9542,7.0021,7.059,7.0889,4.7309,4.7309,4.7309,4.7309,4.7309,4.7309,4.7309,4.7339,4.7572,4.791,4.8625,4.8769,4.9291,4.9819,5.0025,5.042,5.0718,5.1033,5.1328,5.2168,5.2949,5.3464,5.3656,5.4205,5.481,5.4709,5.4723,5.5118,5.4773,5.5002,5.5166,5.4589,5.4838,5.5084,5.5247,5.581,5.6047,5.6237,5.6977,5.749,5.818,5.8592,5.9099,5.9505,6.0351,6.1332,6.1569,6.1941,6.2415,6.2415,6.2415,6.2415,6.2415,6.2415,6.2415,6.2415,6.2415,6.2415,6.2415,6.2415,6.2415,6.2415,6.2415,6.2516,6.2821,6.3396,6.4005,6.4478,6.5324,6.6068,6.6508,6.6643,6.6779,6.6812,6.6812,6.6981,6.7421,6.8267,6.9451,7.0128,7.0601,7.1086,7.0348,7.0043,6.8927,6.7673,6.6647,6.5728,6.5032,6.4844,6.4923,6.5142,6.4623,6.4351,6.4392,6.4532,6.4684,6.4904,6.5592,6.6221,6.6819,6.6969,6.6999,6.6999,6.6999,6.6999,6.6999,6.7059,6.7448,6.8465,6.9213,6.9692,7.0201,7.0739,7.0889,4.7309,4.7309,4.7309,4.7309,4.7309,4.7309,4.7309,4.7339,4.7848,4.7902,4.786,4.8192,4.8607,4.9035,4.9488,4.9855,4.9983,5.058,5.0601,5.1348,5.2312,5.2847,5.3201,5.3787,5.4337,5.4589,5.4589,5.4337,5.4253,5.4337,5.4505,5.4505,5.4421,5.4253,5.4253,5.4838,5.5002,5.5131,5.5978,5.7264,5.8446,5.8916,5.9404,6.0283,6.1332,6.167,6.1907,6.2245,6.2415,6.2415,6.2415,6.2415,6.2415,6.2415,6.2415,6.2415,6.2415,6.2415,6.2415,6.2415,6.2415,6.2415,6.2482,6.2821,6.326,6.3937,6.4512,6.4986,6.5561,6.6271,6.6745,6.6779,6.6812,6.6812,6.6846,6.7184,6.7523,6.8789,7.0107,7.077,7.121,7.0666,6.9949,6.8894,6.7774,6.6855,6.5941,6.5032,6.4097,6.3706,6.3789,6.3902,6.3706,6.3538,6.3803,6.4287,6.4573,6.5084,6.5742,6.634,6.6909,6.6969,6.6999,6.6999,6.6999,6.6999,6.6999,6.6999,6.7567,6.8615,6.9153,6.9572,7.026,7.0859,7.0889,4.7309,4.7309,4.7309,4.7309,4.7309,4.7309,4.7309,4.7429,4.7997,4.8087,4.7878,4.8386,4.8716,4.8716,4.9105,4.9523,4.9703,5.0032,5.0515,5.106,5.1424,5.1941,5.2485,5.29,5.2812,5.3077,5.3077,5.2989,5.3253,5.3077,5.2989,5.3134,5.3165,5.3253,5.3253,5.3514,5.3985,5.4301,5.5058,5.6524,5.8403,5.8973,5.9866,6.093,6.1637,6.1897,6.2144,6.2415,6.2415,6.2415,6.2415,6.2415,6.2415,6.2415,6.2415,6.2415,6.2415,6.2415,6.2415,6.2415,6.2415,6.2415,6.2415,6.2685,6.3396,6.4072,6.4783,6.529,6.6034,6.6745,6.6779,6.6812,6.6812,6.6812,6.6981,6.7218,6.7719,6.8663,6.9974,7.1041,7.0699,6.9346,6.8503,6.747,6.6438,6.5835,6.5032,6.4401,6.3478,6.3079,6.3079,6.3079,6.3079,6.3348,6.385,6.439,6.4933,6.5383,6.5922,6.646,6.6969,6.6969,6.6999,6.6999,6.6999,6.6999,6.6999,6.7059,6.7687,6.8704,6.9093,6.9423,7.0171,7.0919,7.0919,4.7309,4.7309,4.7309,4.7309,4.7339,4.7429,4.7459,4.7578,4.8237,4.8596,4.8716,4.9284,4.9464,4.9404,4.9523,4.9912,5.0242,5.0481,5.081,5.102,5.1263,5.1479,5.1479,5.1386,5.1635,5.1635,5.1635,5.1572,5.1635,5.1635,5.1635,5.1323,5.1229,5.1229,5.1572,5.2124,5.2911,5.3585,5.4532,5.5929,5.7355,5.8657,5.9647,6.0712,6.1547,6.1883,6.1951,6.1951,6.187,6.1756,6.1595,6.1951,6.211,6.211,6.2223,6.2302,6.2415,6.2415,6.2415,6.2415,6.2415,6.2415,6.2415,6.2787,6.3417,6.4126,6.4836,6.5647,6.6424,6.6694,6.6728,6.6812,6.6812,6.6829,6.6998,6.6993,6.7535,6.8235,6.9461,7.069,6.9537,6.8107,6.7061,6.6048,6.5436,6.4813,6.4209,6.3592,6.3079,6.3079,6.3079,6.3079,6.3079,6.3408,6.3887,6.4455,6.5054,6.5712,6.6251,6.667,6.6999,6.6999,6.6999,6.6999,6.6999,6.6999,6.7089,6.7208,6.7956,6.8794,6.9273,6.9692,7.032,7.0919,7.0919,4.7309,4.7309,4.7309,4.7309,4.7399,4.7848,4.8087,4.8297,4.9344,4.9853,4.9912,5.0421,5.0601,5.0092,5.0661,5.093,5.081,5.09,5.099,5.1199,5.1229,5.1229,5.1229,5.1229,5.1229,5.1229,5.1229,5.1229,5.1229,5.1229,5.1229,5.1229,5.1229,5.1229,5.1229,5.1786,5.215,5.2913,5.3675,5.479,5.6213,5.7381,5.835,5.9046,5.937,5.9522,5.9522,5.9522,5.9434,5.9434,5.9697,6.067,6.1201,6.1399,6.1399,6.1756,6.1951,6.1951,6.1951,6.2223,6.2302,6.211,6.2245,6.275,6.3424,6.39,6.4741,6.5783,6.632,6.6525,6.661,6.6728,6.6846,6.6794,6.6911,6.6329,6.6347,6.7197,6.8238,6.8373,6.7774,6.6751,6.5941,6.5111,6.4592,6.4097,6.3706,6.3079,6.3079,6.3079,6.3079,6.3109,6.3109,6.3468,6.3917,6.4575,6.5173,6.5892,6.649,6.6789,6.6999,6.6999,6.6999,6.6999,6.6999,6.6999,6.7119,6.7298,6.8046,6.8824,6.9482,7.0051,7.062,7.0919,7.0919]},{"header":{"parameterUnit":"m.s-1","parameterCategory":1,"la1":31.0,"la2":29.5877,"lo1":-88.7671,"lo2":-86.6584,"dy":0.0162,"dx":0.0185,"nx":115,"ny":88,"refTime":"2024-08-04T12:00:00:Z","depth":0,"parameterNumber":3,"parameterNumberName":"V-component_of_WINDS"},"data":[0.0,0.0,0.0,0.0,0.0,0.0,0.0,0.0,0.0,0.0,0.0,0.0,0.0,0.0,0.0,0.0,0.0,0.0,0.0,0.0,0.0,0.0,0.0,0.0,0.0,0.0,0.0,0.0,0.0,0.0,0.0,0.0,0.0,0.0,0.0,0.0,0.0,0.0,0.0,0.0,0.0,0.0,0.0,0.0,0.0,0.0,0.0,0.0,0.0,0.0,0.0,0.0,0.0,0.0,0.0,0.0,0.0,0.0,0.0,0.0,0.0,0.0,0.0,0.0,0.0,0.0,0.0,0.0,0.0,0.0,0.0,0.0,0.0,0.0,0.0,0.0,0.0,0.0,0.0,0.0,0.0,0.0,0.0,0.0,0.0,0.0,0.0,0.0,0.0,0.0,0.0,0.0,0.0,0.0,0.0,0.0,0.0,0.0,0.0,0.0,0.0,0.0,0.0,0.0,0.0,0.0,0.0,0.0,0.0,0.0,0.0,0.0,0.0,0.0,0.0,0.0,0.0,0.0,0.0,0.0,0.0,0.0,0.0,0.0,0.0,0.0,0.0,0.0,0.0,0.0,0.0,0.0,0.0,0.0,0.0,0.0,0.0,0.0,0.0,0.0,0.0,0.0,0.0,0.0,0.0,0.0,0.0,0.0,0.0,0.0,0.0,0.0,0.0,0.0,0.0,0.0,0.0,0.0,0.0,0.0,0.0,0.0,0.0,0.0,0.0,0.0,0.0,0.0,0.0,0.0,0.0,0.0,0.0,0.0,0.0,0.0,0.0,0.0,0.0,0.0,0.0,0.0,0.0,0.0,0.0,0.0,0.0,0.0,0.0,0.0,0.0,0.0,0.0,0.0,0.0,0.0,0.0,0.0,0.0,0.0,0.0,0.0,0.0,0.0,0.0,0.0,0.0,0.0,0.0,0.0,0.0,0.0,0.0,0.0,0.0,0.0,0.0,0.0,0.0,0.0,0.0,0.0,0.0,0.0,0.0,0.0,0.0,0.0,0.0,0.0,0.0,0.0,0.0,0.0,0.0,0.0,0.0,0.0,0.0,0.0,0.0,0.0,0.0,0.0,0.0,0.0,0.0,0.0,0.0,0.0,0.0,0.0,0.0,0.0,0.0,0.0,0.0,0.0,0.0,0.0,0.0,0.0,0.0,0.0,0.0,0.0,0.0,0.0,0.0,0.0,0.0,0.0,0.0,0.0,0.0,0.0,0.0,0.0,0.0,0.0,0.0,0.0,0.0,0.0,0.0,0.0,0.0,0.0,0.0,0.0,0.0,0.0,0.0,0.0,0.0,0.0,0.0,0.0,0.0,0.0,0.0,0.0,0.0,0.0,0.0,0.0,0.0,0.0,0.0,0.0,0.0,0.0,0.0,0.0,0.0,0.0,0.0,0.0,0.0,0.0,0.0,0.0,0.0,0.0,0.0,0.0,0.0,0.0,0.0,0.0,0.0,0.0,0.0,0.0,0.0,0.0,0.0,0.0,0.0,0.0,0.0,0.0,0.0,0.0,0.0,0.0,0.0,0.0,0.0,0.0,0.0,0.0,0.0,0.0,0.0,0.0,0.0,0.0,0.0,0.0,0.0,0.0,0.0,0.0,0.0,0.0,0.0,0.0,0.0,0.0,0.0,0.0,0.0,0.0,0.0,0.0,0.0,0.0,0.0,0.0,0.0,0.0,0.0,0.0,0.0,0.0,0.0,0.0,0.0,0.0,0.0,0.0,0.0,0.0,0.0,0.0,0.0,0.0,0.0,0.0,0.0,0.0,0.0,0.0,0.0,0.0,0.0,0.0,0.0,0.0,0.0,0.0,0.0,0.0,0.0,0.0,0.0,0.0,0.0,0.0,0.0,0.0,0.0,0.0,0.0,0.0,0.0,0.0,0.0,0.0,0.0,0.0,0.0,0.0,0.0,0.0,0.0,0.0,0.0,0.0,0.0,0.0,0.0,0.0,0.0,0.0,0.0,0.0,0.0,0.0,0.0,0.0,0.0,0.0,0.0,0.0,0.0,0.0,0.0,0.0,0.0,0.0,0.0,0.0,0.0,0.0,0.0,0.0,0.0,0.0,0.0,0.0,0.0,0.0,0.0,0.0,0.0,0.0,0.0,0.0,0.0,0.0,0.0,0.0,0.0,0.0,0.0,0.0,0.0,0.0,0.0,0.0,0.0,0.0,0.0,0.0,0.0,0.0,0.0,0.0,0.0,0.0,0.0,0.0,0.0,0.0,0.0,0.0,0.0,0.0,0.0,0.0,0.0,0.0,0.0,0.0,0.0,0.0,0.0,0.0,0.0,0.0,0.0,0.0,0.0,0.0,0.0,0.0,0.0,0.0,0.0,0.0,0.0,0.0,0.0,0.0,0.0,0.0,0.0,0.0,0.0,0.0,0.0,0.0,0.0,0.0,0.0,0.0,0.0,0.0,0.0,0.0,0.0,0.0,0.0,0.0,0.0,0.0,0.0,0.0,0.0,0.0,0.0,0.0,0.0,0.0,0.0,0.0,0.0,0.0,0.0,0.0,0.0,0.0,0.0,0.0,0.0,0.0,0.0,0.0,0.0,0.0,0.0,0.0,0.0,0.0,0.0,0.0,0.0,0.0,0.0,0.0,0.0,0.0,0.0,0.0,0.0,0.0,0.0,0.0,0.0,0.0,0.0,0.0,0.0,0.0,0.0,0.0,0.0,0.0,0.0,0.0,0.0,0.0,0.0,0.0,0.0,0.0,0.0,0.0,0.0,0.0,0.0,0.0,0.0,0.0,0.0,0.0,0.0,0.0,0.0,0.0,0.0,0.0,0.0,0.0,0.0,0.0,0.0,0.0,0.0,0.0,0.0,0.0,0.0,0.0,0.0,0.0,0.0,0.0,0.0,0.0,0.0,0.0,0.0,0.0,0.0,0.0,0.0,0.0,0.0,0.0,0.0,0.0,0.0,0.0,0.0,0.0,0.0,0.0,0.0,0.0,0.0,0.0,0.0,0.0,0.0,0.0,0.0,0.0,0.0,0.0,0.0,0.0,0.0,0.0,0.0,0.0,0.0,0.0,0.0,0.0,0.0,0.0,0.0,0.0,0.0,0.0,0.0,0.0,0.0,0.0,0.0,0.0,0.0,0.0,0.0,0.0,0.0,0.0,0.0,0.0,0.0,0.0,0.0,0.0,0.0,0.0,0.0,0.0,0.0,0.0,0.0,0.0,0.0,0.0,0.0,0.0,0.0,0.0,0.0,0.0,0.0,0.0,0.0,0.0,0.0,0.0,0.0,0.0,0.0,0.0,0.0,0.0,0.0,0.0,0.0,0.0,0.0,0.0,0.0,0.0,0.0,0.0,0.0,0.0,0.0,0.0,0.0,0.0,0.0,0.0,0.0,0.0,0.0,0.0,0.0,0.0,0.0,0.0,0.0,0.0,0.0,0.0,0.0,0.0,0.0,0.0,0.0,0.0,0.0,0.0,0.0,0.0,0.0,0.0,0.0,0.0,0.0,0.0,0.0,0.0,0.0,0.0,0.0,0.0,0.0,0.0,0.0,0.0,0.0,0.0,0.0,0.0,0.0,0.0,0.0,0.0,0.0,0.0,0.0,0.0,0.0,0.0,0.0,0.0,0.0,0.0,0.0,0.0,0.0,0.0,0.0,0.0,0.0,0.0,0.0,0.0,0.0,0.0,0.0,0.0,0.0,0.0,0.0,0.0,0.0,0.0,0.0,0.0,0.0,0.0,0.0,0.0,0.0,0.0,0.0,0.0,0.0,0.0,0.0,0.0,0.0,0.0,0.0,0.0,0.0,0.0,0.0,0.0,0.0,0.0,0.0,0.0,0.0,0.0,0.0,0.0,0.0,0.0,0.0,0.0,0.0,0.0,0.0,0.0,0.0,0.0,0.0,0.0,0.0,0.0,0.0,0.0,0.0,0.0,0.0,0.0,0.0,0.0,0.0,0.0,0.0,0.0,0.0,0.0,0.0,0.0,0.0,0.0,0.0,0.0,0.0,0.0,0.0,0.0,0.0,0.0,0.0,0.0,0.0,0.0,0.0,0.0,0.0,0.0,0.0,0.0,0.0,0.0,0.0,0.0,0.0,0.0,0.0,0.0,0.0,0.0,0.0,0.0,0.0,0.0,0.0,0.0,0.0,0.0,0.0,0.0,0.0,0.0,0.0,0.0,0.0,0.0,0.0,0.0,0.0,0.0,0.0,0.0,0.0,0.0,0.0,0.0,0.0,0.0,0.0,0.0,0.0,0.0,0.0,0.0,0.0,0.0,0.0,0.0,-0.7856,0.0,0.0,0.0,0.0,0.0,0.0,0.0,0.0,0.0,0.0,0.0,0.0,0.0,0.0,0.0,0.0,0.0,0.0,0.0,0.0,0.0,0.0,0.0,0.0,0.0,0.0,0.0,0.0,0.0,0.0,0.0,0.0,0.0,0.0,0.0,0.0,0.0,0.0,0.0,0.0,0.0,0.0,0.0,0.0,0.0,0.0,0.0,0.0,0.0,0.0,0.0,0.0,0.0,0.0,0.0,0.0,0.0,0.0,0.0,0.0,0.0,0.0,0.0,0.0,0.0,0.0,0.0,0.0,0.0,0.0,0.0,0.0,0.0,0.0,0.0,0.0,0.0,0.0,0.0,0.0,0.0,0.0,0.0,0.0,0.0,0.0,0.0,0.0,0.0,0.0,0.0,0.0,0.0,0.0,0.0,0.0,0.0,0.0,0.0,0.0,0.0,0.0,0.0,0.0,0.0,0.0,0.0,0.0,0.0,0.0,-0.797,-0.8091,-0.782,-0.7684,-0.7673,0.0,0.0,0.0,0.0,0.0,0.0,0.0,0.0,0.0,0.0,0.0,0.0,0.0,0.0,0.0,0.0,0.0,0.0,0.0,0.0,0.0,0.0,0.0,0.0,0.0,0.0,0.0,0.0,0.0,0.0,0.0,0.0,0.0,0.0,0.0,0.0,0.0,0.0,0.0,0.0,0.0,0.0,0.0,0.0,0.0,0.0,0.0,0.0,0.0,0.0,0.0,0.0,0.0,0.0,0.0,0.0,0.0,0.0,0.0,0.0,0.0,0.0,0.0,0.0,0.0,0.0,0.0,0.0,0.0,0.0,0.0,0.0,0.0,0.0,0.0,0.0,0.0,0.0,0.0,0.0,0.0,0.0,0.0,0.0,0.0,0.0,0.0,0.0,0.0,0.0,0.0,0.0,0.0,0.0,0.0,0.0,0.0,0.0,0.0,0.0,0.0,0.0,0.0,0.0,0.0,0.0,0.0,0.0,0.0,0.0,0.0,0.0,-0.7903,-0.7776,-0.7822,0.0,0.0,0.0,0.0,0.0,0.0,0.0,0.0,0.0,0.0,0.0,0.0,0.0,0.0,0.0,0.0,0.0,0.0,0.0,0.0,0.0,0.0,0.0,0.0,0.0,0.0,0.0,0.0,0.0,0.0,0.0,0.0,0.0,0.0,0.0,0.0,0.0,0.0,0.0,0.0,0.0,0.0,0.0,0.0,0.0,0.0,0.0,0.0,0.0,0.0,0.0,0.0,0.0,0.0,0.0,0.0,0.0,0.0,0.0,0.0,0.0,0.0,0.0,0.0,0.0,0.0,0.0,0.0,0.0,0.0,0.0,0.0,0.0,0.0,0.0,0.0,0.0,0.0,0.0,0.0,0.0,0.0,0.0,0.0,0.0,0.0,0.0,0.0,0.0,0.0,0.0,0.0,0.0,0.0,0.0,0.0,0.0,0.0,0.0,0.0,0.0,0.0,0.0,0.0,0.0,0.0,0.0,0.0,0.0,0.0,-0.8013,-0.9038,-0.8792,0.0,-0.8697,0.0,0.0,0.0,0.0,0.0,0.0,0.0,0.0,0.0,0.0,0.0,0.0,0.0,0.0,0.0,0.0,0.0,0.0,0.0,0.0,0.0,0.0,0.0,0.0,0.0,0.0,0.0,0.0,0.0,0.0,0.0,0.0,0.0,0.0,0.0,0.0,0.0,0.0,0.0,0.0,0.0,0.0,0.0,0.0,0.0,0.0,0.0,0.0,0.0,0.0,0.0,0.0,0.0,0.0,0.0,0.0,0.0,0.0,0.0,0.0,0.0,0.0,0.0,0.0,0.0,0.0,0.0,0.0,0.0,0.0,0.0,0.0,0.0,0.0,0.0,0.0,0.0,0.0,0.0,0.0,0.0,0.0,0.0,0.0,0.0,0.0,0.0,0.0,0.0,0.0,0.0,0.0,0.0,0.0,0.0,0.0,0.0,0.0,0.0,0.0,0.0,0.0,0.0,0.0,0.0,0.0,0.0,0.0,0.0,0.0,0.0,-0.8699,-0.8636,-0.855,0.0,0.0,0.0,0.0,0.0,0.0,0.0,0.0,0.0,0.0,0.0,0.0,0.0,0.0,0.0,0.0,0.0,0.0,0.0,0.0,0.0,0.0,0.0,0.0,0.0,0.0,0.0,0.0,0.0,0.0,0.0,0.0,0.0,0.0,0.0,0.0,0.0,0.0,0.0,0.0,0.0,0.0,0.0,0.0,0.0,0.0,0.0,0.0,0.0,0.0,0.0,0.0,0.0,0.0,0.0,0.0,0.0,0.0,0.0,0.0,0.0,0.0,0.0,0.0,0.0,0.0,0.0,0.0,0.0,0.0,0.0,0.0,0.0,0.0,0.0,0.0,0.0,0.0,0.0,0.0,0.0,0.0,0.0,0.0,0.0,0.0,0.0,0.0,0.0,0.0,0.0,0.0,0.0,0.0,0.0,0.0,0.0,0.0,0.0,0.0,0.0,0.0,0.0,0.0,0.0,0.0,0.0,0.0,0.0,0.0,-0.8261,0.0,-0.8724,-0.8738,-0.8617,-0.8427,0.0,0.0,0.0,0.0,0.0,0.0,0.0,0.0,0.0,0.0,0.0,0.0,0.0,0.0,0.0,0.0,0.0,0.0,0.0,0.0,0.0,0.0,0.0,0.0,0.0,0.0,0.0,0.0,0.0,0.0,0.0,0.0,0.0,0.0,0.0,0.0,0.0,0.0,0.0,0.0,0.0,0.0,0.0,0.0,0.0,0.0,0.0,0.0,0.0,0.0,0.0,0.0,0.0,0.0,0.0,0.0,0.0,0.0,0.0,0.0,0.0,0.0,0.0,0.0,0.0,0.0,0.0,0.0,0.0,0.0,0.0,0.0,0.0,0.0,0.0,0.0,0.0,0.0,0.0,0.0,0.0,0.0,0.0,0.0,0.0,0.0,0.0,0.0,0.0,0.0,0.0,0.0,0.0,0.0,0.0,0.0,0.0,0.0,0.0,0.0,0.0,0.0,0.0,0.0,0.0,0.0,0.0,0.0,0.0,-0.9013,-0.883,-0.9593,-0.9633,-0.9232,0.0,0.0,0.0,0.0,0.0,0.0,0.0,0.0,0.0,0.0,0.0,0.0,0.0,0.0,0.0,0.0,0.0,0.0,0.0,0.0,0.0,0.0,0.0,0.0,0.0,0.0,0.0,0.0,0.0,0.0,0.0,0.0,0.0,0.0,0.0,0.0,0.0,0.0,0.0,0.0,0.0,0.0,0.0,0.0,0.0,0.0,0.0,0.0,0.0,0.0,0.0,0.0,0.0,0.0,0.0,0.0,0.0,0.0,0.0,0.0,0.0,0.0,0.0,0.0,0.0,0.0,0.0,0.0,0.0,0.0,0.0,0.0,0.0,0.0,0.0,0.0,0.0,0.0,0.0,0.0,0.0,0.0,0.0,0.0,0.0,0.0,0.0,0.0,0.0,0.0,0.0,0.0,0.0,0.0,0.0,0.0,0.0,0.0,0.0,0.0,0.0,0.0,0.0,0.0,0.0,0.0,0.0,0.0,0.0,-0.8221,-0.8328,-0.9112,-1.0408,-0.9446,-0.8871,0.0,0.0,0.0,0.0,0.0,0.0,0.0,0.0,0.0,0.0,0.0,0.0,0.0,0.0,0.0,0.0,0.0,0.0,0.0,0.0,0.0,0.0,0.0,0.0,0.0,0.0,0.0,0.0,0.0,0.0,0.0,0.0,0.0,0.0,0.0,0.0,0.0,0.0,0.0,0.0,0.0,0.0,0.0,0.0,0.0,0.0,0.0,0.0,0.0,0.0,0.0,0.0,0.0,0.0,0.0,0.0,0.0,0.0,0.0,0.0,0.0,0.0,0.0,0.0,0.0,0.0,0.0,0.0,0.0,0.0,0.0,0.0,0.0,0.0,0.0,0.0,0.0,0.0,0.0,0.0,0.0,0.0,0.0,0.0,0.0,0.0,0.0,0.0,0.0,0.0,0.0,0.0,0.0,0.0,0.0,0.0,0.0,0.0,0.0,0.0,0.0,0.0,0.0,0.0,0.0,0.0,0.0,0.0,0.0,-0.793,0.0,-0.9623,0.0,-0.9419,-0.8711,0.0,0.0,0.0,0.0,0.0,0.0,0.0,0.0,0.0,0.0,0.0,0.0,0.0,0.0,0.0,0.0,0.0,0.0,0.0,0.0,0.0,0.0,0.0,0.0,0.0,0.0,0.0,0.0,0.0,0.0,0.0,0.0,0.0,0.0,0.0,0.0,0.0,0.0,0.0,0.0,0.0,0.0,0.0,0.0,0.0,0.0,0.0,0.0,0.0,0.0,0.0,0.0,0.0,0.0,0.0,0.0,0.0,0.0,0.0,0.0,0.0,0.0,0.0,0.0,0.0,0.0,0.0,0.0,0.0,0.0,0.0,0.0,0.0,0.0,0.0,0.0,0.0,0.0,0.0,0.0,0.0,0.0,0.0,0.0,0.0,0.0,0.0,0.0,0.0,0.0,0.0,0.0,0.0,0.0,0.0,0.0,0.0,0.0,0.0,0.0,0.0,0.0,0.0,0.0,0.0,0.0,0.0,0.0,-0.8461,-0.961,-1.0167,-1.0207,-0.974,-0.9646,-0.8818,0.0,0.0,0.0,0.0,0.0,0.0,0.0,0.0,0.0,0.0,0.0,0.0,0.0,0.0,0.0,0.0,0.0,0.0,0.0,0.0,0.0,0.0,0.0,0.0,0.0,0.0,0.0,0.0,0.0,0.0,0.0,0.0,0.0,0.0,0.0,0.0,0.0,0.0,0.0,0.0,0.0,0.0,0.0,0.0,0.0,0.0,0.0,0.0,0.0,0.0,0.0,0.0,0.0,0.0,0.0,0.0,0.0,0.0,0.0,0.0,0.0,0.0,0.0,0.0,0.0,0.0,0.0,0.0,0.0,0.0,0.0,0.0,0.0,0.0,0.0,0.0,0.0,0.0,0.0,0.0,0.0,0.0,0.0,0.0,0.0,0.0,0.0,0.0,0.0,0.0,0.0,0.0,0.0,0.0,0.0,0.0,0.0,0.0,0.0,0.0,0.0,0.0,0.0,0.0,0.0,0.0,0.0,0.0,0.0,-0.8484,-0.9245,-0.9953,-1.0501,-0.9205,-0.8604,0.0,0.0,0.0,0.0,0.0,0.0,0.0,0.0,0.0,0.0,0.0,0.0,0.0,0.0,0.0,0.0,0.0,0.0,0.0,0.0,0.0,0.0,0.0,0.0,0.0,0.0,0.0,0.0,0.0,0.0,0.0,0.0,0.0,0.0,0.0,0.0,0.0,0.0,0.0,0.0,0.0,0.0,0.0,0.0,0.0,0.0,0.0,0.0,0.0,0.0,0.0,0.0,0.0,0.0,0.0,0.0,0.0,0.0,0.0,0.0,0.0,0.0,0.0,0.0,0.0,0.0,0.0,0.0,0.0,0.0,0.0,0.0,0.0,0.0,0.0,0.0,0.0,0.0,0.0,0.0,0.0,0.0,0.0,0.0,0.0,0.0,0.0,0.0,0.0,0.0,0.0,0.0,0.0,0.0,0.0,0.0,0.0,0.0,0.0,0.0,0.0,0.0,0.0,0.0,0.0,0.0,0.0,0.0,0.0,-0.9493,-1.0262,-1.0902,-1.1303,-0.9967,-0.9165,-0.9005,0.0,0.0,0.0,0.0,0.0,0.0,0.0,0.0,0.0,0.0,0.0,0.0,0.0,0.0,0.0,0.0,0.0,0.0,0.0,0.0,0.0,0.0,0.0,0.0,0.0,0.0,0.0,0.0,0.0,0.0,0.0,0.0,0.0,0.0,0.0,0.0,0.0,0.0,0.0,0.0,0.0,0.0,0.0,0.0,0.0,0.0,0.0,0.0,0.0,0.0,0.0,0.0,0.0,0.0,0.0,0.0,0.0,0.0,0.0,0.0,0.0,0.0,0.0,0.0,0.0,0.0,0.0,0.0,0.0,0.0,0.0,0.0,0.0,0.0,0.0,0.0,0.0,0.0,0.0,0.0,0.0,0.0,0.0,0.0,0.0,0.0,0.0,0.0,0.0,0.0,0.0,0.0,0.0,0.0,0.0,0.0,0.0,0.0,0.0,0.0,0.0,0.0,0.0,0.0,0.0,0.0,0.0,0.0,-1.2065,-1.2962,-1.301,-1.2064,-1.1597,-1.0367,0.0,0.0,0.0,0.0,0.0,0.0,0.0,0.0,0.0,0.0,0.0,0.0,0.0,0.0,0.0,0.0,0.0,0.0,0.0,0.0,0.0,0.0,0.0,0.0,0.0,0.0,0.0,0.0,0.0,0.0,0.0,0.0,0.0,0.0,0.0,0.0,0.0,0.0,0.0,0.0,0.0,0.0,0.0,0.0,0.0,0.0,0.0,0.0,0.0,0.0,0.0,0.0,0.0,0.0,0.0,0.0,0.0,0.0,0.0,0.0,0.0,0.0,0.0,0.0,0.0,0.0,0.0,0.0,0.0,0.0,0.0,0.0,0.0,0.0,0.0,0.0,0.0,0.0,0.0,0.0,0.0,0.0,0.0,0.0,0.0,0.0,0.0,0.0,0.0,0.0,0.0,0.0,0.0,0.0,0.0,0.0,0.0,0.0,0.0,0.0,0.0,0.0,0.0,0.0,0.0,0.0,0.0,0.0,0.0,-1.3017,-1.5591,-1.5991,-1.3911,-1.2064,-1.0929,0.0,0.0,0.0,0.0,0.0,0.0,0.0,0.0,0.0,0.0,0.0,0.0,0.0,0.0,0.0,0.0,0.0,0.0,0.0,0.0,0.0,0.0,0.0,0.0,0.0,0.0,0.0,0.0,0.0,0.0,0.0,0.0,0.0,0.0,0.0,0.0,0.0,0.0,0.0,0.0,0.0,0.0,0.0,0.0,0.0,0.0,0.0,0.0,0.0,0.0,0.0,0.0,0.0,0.0,0.0,0.0,0.0,0.0,0.0,0.0,0.0,0.0,0.0,0.0,0.0,0.0,0.0,0.0,0.0,0.0,0.0,0.0,0.0,0.0,0.0,0.0,0.0,0.0,0.0,0.0,0.0,0.0,0.0,0.0,0.0,0.0,0.0,0.0,0.0,0.0,0.0,0.0,0.0,0.0,0.0,0.0,0.0,0.0,0.0,0.0,0.0,0.0,0.0,0.0,0.0,0.0,0.0,0.0,-1.4096,-1.4784,-1.7008,-1.7414,-1.5832,-1.3641,-1.2078,0.0,0.0,0.0,0.0,0.0,0.0,0.0,0.0,0.0,0.0,0.0,0.0,0.0,0.0,0.0,0.0,0.0,0.0,0.0,0.0,0.0,0.0,0.0,0.0,0.0,0.0,0.0,0.0,0.0,0.0,0.0,0.0,0.0,0.0,0.0,0.0,0.0,0.0,0.0,0.0,0.0,0.0,0.0,0.0,0.0,0.0,0.0,0.0,0.0,0.0,0.0,0.0,0.0,0.0,0.0,0.0,0.0,0.0,0.0,0.0,0.0,0.0,0.0,0.0,0.0,0.0,0.0,0.0,0.0,0.0,0.0,0.0,0.0,0.0,0.0,0.0,0.0,0.0,0.0,0.0,0.0,0.0,0.0,0.0,0.0,0.0,0.0,0.0,0.0,0.0,0.0,0.0,0.0,0.0,0.0,0.0,0.0,0.0,0.0,0.0,0.0,0.0,0.0,0.0,0.0,0.0,0.0,0.0,-1.4475,-1.69,-1.7782,-1.797,-1.7528,-1.5591,-1.3467,0.0,0.0,0.0,0.0,0.0,0.0,0.0,0.0,0.0,0.0,0.0,0.0,0.0,0.0,0.0,0.0,0.0,0.0,0.0,0.0,0.0,0.0,0.0,0.0,0.0,0.0,0.0,0.0,0.0,0.0,0.0,0.0,0.0,0.0,0.0,0.0,0.0,0.0,0.0,0.0,0.0,0.0,0.0,0.0,0.0,0.0,0.0,0.0,0.0,0.0,0.0,0.0,0.0,0.0,0.0,0.0,0.0,0.0,0.0,0.0,0.0,0.0,0.0,0.0,0.0,0.0,0.0,0.0,0.0,0.0,0.0,0.0,0.0,0.0,0.0,0.0,0.0,0.0,0.0,0.0,0.0,0.0,0.0,0.0,0.0,0.0,0.0,0.0,0.0,0.0,0.0,0.0,0.0,0.0,0.0,0.0,0.0,0.0,0.0,0.0,0.0,0.0,0.0,0.0,0.0,0.0,0.0,0.0,-1.6798,-1.684,-1.8444,-1.8674,-1.7569,-1.5591,-1.3841,0.0,0.0,0.0,0.0,0.0,0.0,0.0,0.0,0.0,0.0,0.0,0.0,0.0,0.0,0.0,0.0,0.0,0.0,0.0,0.0,0.0,0.0,0.0,0.0,0.0,0.0,0.0,0.0,0.0,0.0,0.0,0.0,0.0,0.0,0.0,0.0,0.0,0.0,0.0,0.0,0.0,0.0,0.0,0.0,0.0,0.0,0.0,0.0,-1.9062,0.0,0.0,0.0,0.0,0.0,0.0,0.0,0.0,0.0,0.0,0.0,0.0,0.0,0.0,0.0,0.0,0.0,0.0,0.0,0.0,0.0,0.0,0.0,0.0,0.0,0.0,0.0,0.0,0.0,0.0,0.0,0.0,0.0,0.0,0.0,0.0,0.0,0.0,0.0,0.0,0.0,0.0,0.0,0.0,0.0,0.0,0.0,0.0,0.0,0.0,0.0,0.0,0.0,0.0,0.0,0.0,0.0,0.0,0.0,-1.7714,-1.8394,-1.9275,-1.9146,-1.7849,-1.6206,-1.4589,0.0,0.0,0.0,0.0,0.0,0.0,0.0,0.0,0.0,0.0,0.0,0.0,0.0,0.0,0.0,0.0,0.0,0.0,0.0,0.0,0.0,0.0,0.0,0.0,0.0,0.0,0.0,0.0,0.0,0.0,0.0,0.0,0.0,0.0,0.0,0.0,0.0,0.0,0.0,0.0,0.0,0.0,0.0,0.0,0.0,0.0,0.0,0.0,0.0,0.0,0.0,0.0,0.0,0.0,0.0,0.0,0.0,0.0,0.0,0.0,0.0,0.0,0.0,0.0,0.0,0.0,0.0,0.0,0.0,0.0,0.0,0.0,0.0,0.0,0.0,0.0,0.0,0.0,0.0,0.0,0.0,0.0,0.0,0.0,0.0,0.0,0.0,0.0,0.0,0.0,0.0,0.0,0.0,0.0,0.0,0.0,0.0,0.0,0.0,0.0,0.0,0.0,0.0,0.0,0.0,0.0,0.0,-1.6224,-1.7943,-2.0184,-1.9892,-1.912,-1.7956,-1.682,-1.5257,-1.328,0.0,0.0,0.0,0.0,0.0,0.0,0.0,0.0,0.0,0.0,0.0,0.0,0.0,0.0,0.0,0.0,0.0,0.0,0.0,0.0,0.0,0.0,0.0,0.0,0.0,0.0,0.0,0.0,0.0,0.0,0.0,0.0,0.0,0.0,0.0,0.0,0.0,0.0,-1.666,-1.8398,0.0,0.0,0.0,0.0,0.0,0.0,0.0,0.0,-2.0293,0.0,0.0,0.0,0.0,0.0,0.0,0.0,0.0,0.0,0.0,0.0,0.0,0.0,0.0,0.0,0.0,0.0,0.0,0.0,0.0,0.0,0.0,0.0,0.0,0.0,0.0,0.0,0.0,0.0,0.0,0.0,0.0,0.0,0.0,0.0,0.0,0.0,0.0,0.0,0.0,0.0,0.0,0.0,0.0,0.0,0.0,0.0,0.0,0.0,0.0,0.0,0.0,0.0,0.0,0.0,0.0,-1.787,-1.6674,-1.7648,-2.0737,-1.8964,-1.786,-1.7622,-1.6513,-1.5057,-1.3267,0.0,0.0,0.0,0.0,0.0,0.0,0.0,0.0,0.0,0.0,0.0,0.0,0.0,0.0,0.0,0.0,0.0,0.0,0.0,0.0,0.0,0.0,0.0,0.0,0.0,0.0,0.0,0.0,0.0,0.0,0.0,0.0,0.0,0.0,0.0,0.0,0.0,0.0,0.0,-2.0449,-2.125,0.0,0.0,0.0,0.0,0.0,0.0,0.0,0.0,-2.1543,0.0,0.0,0.0,0.0,0.0,0.0,0.0,0.0,0.0,0.0,0.0,0.0,0.0,0.0,0.0,0.0,0.0,0.0,0.0,0.0,0.0,0.0,0.0,0.0,0.0,0.0,0.0,0.0,0.0,0.0,0.0,0.0,0.0,0.0,0.0,0.0,0.0,0.0,0.0,0.0,0.0,0.0,0.0,0.0,0.0,0.0,0.0,0.0,0.0,0.0,0.0,0.0,0.0,0.0,0.0,-1.7662,-1.7908,-1.9012,-2.118,-1.9538,-1.8304,-1.766,-1.6152,-1.4696,0.0,0.0,0.0,0.0,0.0,0.0,0.0,0.0,0.0,0.0,0.0,0.0,0.0,0.0,0.0,0.0,0.0,0.0,0.0,0.0,0.0,0.0,0.0,0.0,0.0,0.0,0.0,0.0,0.0,0.0,0.0,0.0,0.0,0.0,0.0,0.0,0.0,0.0,0.0,0.0,-2.1484,-2.2363,-2.3652,0.0,0.0,0.0,0.0,0.0,0.0,-2.2402,-2.1934,0.0,0.0,0.0,0.0,0.0,0.0,0.0,0.0,0.0,0.0,0.0,0.0,0.0,0.0,0.0,0.0,0.0,0.0,0.0,0.0,0.0,0.0,0.0,0.0,0.0,0.0,0.0,0.0,0.0,0.0,0.0,0.0,0.0,0.0,0.0,0.0,0.0,0.0,0.0,0.0,0.0,0.0,0.0,0.0,0.0,0.0,0.0,0.0,0.0,0.0,0.0,0.0,0.0,0.0,0.0,-1.743,-1.8718,-2.0099,-2.1527,-2.0025,-1.8708,-1.766,-1.5885,-1.4416,0.0,0.0,0.0,0.0,0.0,0.0,0.0,0.0,0.0,0.0,0.0,0.0,0.0,0.0,0.0,0.0,0.0,0.0,0.0,0.0,0.0,0.0,0.0,0.0,0.0,0.0,0.0,0.0,0.0,0.0,0.0,0.0,0.0,0.0,0.0,0.0,0.0,0.0,0.0,0.0,0.0,-2.3437,-2.4844,-2.4062,0.0,0.0,0.0,0.0,-2.3711,-2.3672,0.0,0.0,0.0,0.0,0.0,0.0,0.0,0.0,0.0,0.0,0.0,0.0,0.0,0.0,0.0,0.0,0.0,0.0,0.0,0.0,0.0,0.0,0.0,0.0,0.0,0.0,0.0,0.0,0.0,0.0,0.0,0.0,0.0,0.0,0.0,0.0,0.0,0.0,0.0,0.0,0.0,0.0,0.0,0.0,0.0,0.0,0.0,0.0,0.0,0.0,0.0,0.0,0.0,0.0,0.0,0.0,-1.8267,-1.8117,-1.9206,-2.141,-1.9213,-1.7793,-1.7569,-1.5885,-1.4416,0.0,0.0,0.0,0.0,0.0,0.0,0.0,0.0,0.0,0.0,0.0,0.0,0.0,0.0,0.0,0.0,0.0,0.0,0.0,0.0,0.0,0.0,0.0,0.0,0.0,0.0,0.0,0.0,0.0,0.0,0.0,0.0,0.0,0.0,0.0,0.0,0.0,0.0,0.0,0.0,0.0,-2.4414,-2.498,-2.4297,-2.3828,0.0,0.0,-2.5898,-2.5996,-2.7812,0.0,0.0,0.0,0.0,0.0,0.0,0.0,0.0,0.0,0.0,0.0,0.0,0.0,0.0,0.0,0.0,0.0,0.0,0.0,0.0,0.0,0.0,0.0,0.0,0.0,0.0,0.0,0.0,0.0,0.0,0.0,0.0,0.0,0.0,0.0,0.0,0.0,0.0,0.0,0.0,0.0,0.0,0.0,0.0,0.0,0.0,0.0,0.0,0.0,0.0,0.0,0.0,0.0,0.0,0.0,-1.5077,-1.7958,-1.86,-1.9792,-2.1577,-1.9005,-1.7582,-1.7582,-1.5404,-1.3814,0.0,0.0,0.0,0.0,0.0,0.0,0.0,0.0,0.0,0.0,0.0,0.0,0.0,0.0,0.0,0.0,0.0,0.0,0.0,0.0,0.0,0.0,0.0,0.0,0.0,0.0,0.0,0.0,0.0,0.0,0.0,0.0,0.0,0.0,0.0,0.0,0.0,0.0,0.0,0.0,0.0,0.0,-2.5723,-2.5703,0.0,0.0,0.0,-2.7109,-2.7109,0.0,0.0,0.0,0.0,0.0,0.0,0.0,0.0,0.0,0.0,0.0,0.0,0.0,0.0,0.0,0.0,0.0,0.0,0.0,0.0,0.0,0.0,0.0,0.0,0.0,0.0,0.0,0.0,0.0,0.0,0.0,0.0,0.0,0.0,0.0,0.0,0.0,0.0,0.0,0.0,0.0,0.0,0.0,0.0,0.0,0.0,0.0,0.0,0.0,0.0,0.0,0.0,0.0,0.0,0.0,0.0,0.0,-1.7768,-1.9124,-2.0459,-2.161,-1.9005,-1.7582,-1.7542,-1.5297,0.0,0.0,0.0,0.0,0.0,0.0,0.0,0.0,0.0,0.0,0.0,0.0,0.0,0.0,0.0,0.0,0.0,0.0,0.0,0.0,0.0,0.0,0.0,0.0,0.0,0.0,0.0,-1.1289,0.0,0.0,0.0,0.0,0.0,0.0,0.0,0.0,0.0,0.0,0.0,0.0,0.0,0.0,-2.584,-2.6602,-2.7246,-2.7891,0.0,0.0,-2.834,-2.8457,-2.9199,-2.875,0.0,0.0,0.0,0.0,0.0,0.0,0.0,0.0,0.0,0.0,0.0,0.0,0.0,0.0,0.0,0.0,0.0,0.0,0.0,0.0,0.0,0.0,0.0,0.0,0.0,0.0,0.0,0.0,0.0,0.0,0.0,0.0,0.0,0.0,0.0,0.0,0.0,0.0,0.0,0.0,0.0,0.0,0.0,0.0,0.0,0.0,0.0,0.0,0.0,0.0,0.0,0.0,0.0,0.0,0.0,-1.8193,-1.9601,-2.0802,-2.161,-1.902,-1.7582,-1.7555,-1.6086,-1.4603,0.0,0.0,0.0,0.0,0.0,0.0,0.0,0.0,0.0,0.0,0.0,0.0,0.0,0.0,0.0,0.0,0.0,0.0,0.0,0.0,0.0,0.0,0.0,0.0,0.0,0.0,0.0,0.0,0.0,0.0,0.0,0.0,0.0,0.0,0.0,0.0,0.0,0.0,0.0,0.0,0.0,-2.7051,-2.7519,-2.8613,-2.9844,0.0,0.0,-3.0176,-3.0605,-3.2344,-3.2012,-2.709,0.0,0.0,0.0,0.0,0.0,0.0,0.0,0.0,0.0,0.0,0.0,0.0,0.0,0.0,0.0,0.0,0.0,0.0,0.0,0.0,0.0,0.0,0.0,0.0,0.0,0.0,0.0,0.0,0.0,0.0,0.0,0.0,0.0,0.0,0.0,0.0,0.0,0.0,0.0,0.0,0.0,0.0,0.0,0.0,0.0,0.0,0.0,0.0,0.0,0.0,0.0,0.0,0.0,-1.5239,-1.638,-1.9011,-2.0442,-2.0302,-1.8603,-1.7582,-1.7582,-1.6166,-1.4616,0.0,0.0,0.0,0.0,0.0,0.0,0.0,0.0,0.0,0.0,0.0,0.0,0.0,0.0,0.0,0.0,0.0,0.0,0.0,0.0,0.0,0.0,0.0,0.0,0.0,0.0,0.0,0.0,-1.4629,-1.4883,-1.4785,0.0,0.0,0.0,0.0,0.0,0.0,0.0,0.0,0.0,0.0,-2.7851,-2.9062,-3.0332,0.0,0.0,-3.2109,-3.2266,-3.1406,-3.1953,-3.1191,-2.7383,-2.5879,0.0,0.0,0.0,0.0,0.0,0.0,0.0,0.0,0.0,0.0,0.0,0.0,0.0,0.0,0.0,0.0,0.0,0.0,0.0,0.0,0.0,0.0,0.0,0.0,0.0,0.0,0.0,0.0,0.0,0.0,0.0,0.0,0.0,0.0,0.0,0.0,0.0,0.0,0.0,0.0,0.0,0.0,0.0,0.0,0.0,0.0,0.0,0.0,0.0,0.0,0.0,0.0,-1.4655,-1.5234,-1.8652,-2.0146,-1.9612,-1.829,-1.7582,-1.7555,-1.6326,-1.495,0.0,0.0,0.0,0.0,0.0,0.0,0.0,0.0,0.0,0.0,0.0,0.0,0.0,0.0,0.0,0.0,0.0,0.0,0.0,0.0,0.0,0.0,0.0,0.0,0.0,0.0,0.0,0.0,-1.5,-1.5098,-1.4824,0.0,0.0,0.0,0.0,0.0,0.0,0.0,0.0,0.0,0.0,-2.9062,-3.0234,-3.1309,-3.1953,-3.1894,-3.2363,-3.2402,-3.1484,-3.1328,-3.043,-2.7812,0.0,0.0,0.0,0.0,0.0,0.0,0.0,0.0,0.0,0.0,0.0,0.0,0.0,0.0,0.0,0.0,0.0,0.0,0.0,0.0,0.0,0.0,0.0,0.0,0.0,0.0,0.0,0.0,0.0,0.0,-0.4005,0.0,0.0,0.0,0.0,0.0,0.0,0.0,0.0,0.0,0.0,0.0,0.0,0.0,0.0,0.0,0.0,0.0,0.0,0.0,0.0,0.0,0.0,-1.4915,-1.525,-1.8563,-2.0146,-1.9612,-1.8304,-1.7582,-1.7569,-1.6727,-1.5818,-1.4883,0.0,0.0,0.0,0.0,0.0,0.0,0.0,0.0,0.0,0.0,0.0,0.0,0.0,0.0,0.0,0.0,0.0,0.0,0.0,0.0,0.0,0.0,0.0,0.0,0.0,0.0,-1.3105,-1.4062,-1.4805,0.0,0.0,0.0,0.0,0.0,0.0,0.0,0.0,0.0,0.0,-2.8105,-3.082,-3.0859,-3.125,-3.1875,-3.2656,-3.1074,-3.0039,-3.0859,-3.0918,-3.0293,0.0,0.0,0.0,0.0,0.0,0.0,0.0,0.0,0.0,0.0,0.0,0.0,0.0,0.0,0.0,0.0,0.0,0.0,0.0,0.0,0.0,0.0,0.0,0.0,0.0,0.0,0.0,-0.6373,-0.5972,0.0,0.0,0.0,0.0,0.0,0.0,0.0,0.0,0.0,0.0,0.0,-1.1774,-1.1931,0.0,0.0,0.0,0.0,0.0,0.0,0.0,0.0,0.0,0.0,0.0,0.0,-1.3572,-1.3988,-1.731,-1.887,-1.8276,-1.7793,-1.7582,-1.7582,-1.7101,-1.6086,-1.4416,0.0,0.0,0.0,0.0,0.0,0.0,0.0,0.0,0.0,0.0,0.0,0.0,0.0,0.0,0.0,0.0,0.0,0.0,0.0,0.0,0.0,0.0,0.0,0.0,0.0,-1.397,0.0,0.0,0.0,0.0,0.0,0.0,0.0,0.0,0.0,0.0,0.0,-2.4258,-2.668,-2.8496,-2.9902,-3.0762,-3.1738,-3.2676,0.0,0.0,0.0,0.0,0.0,0.0,0.0,0.0,0.0,0.0,0.0,0.0,0.0,0.0,-3.125,-2.7677,-2.7216,-2.7845,-2.9086,0.0,0.0,0.0,0.0,0.0,0.0,0.0,0.0,0.0,0.0,0.0,0.0,0.0,0.0,-0.8444,0.0,-0.7428,0.0,0.0,0.0,0.0,0.0,0.0,0.0,0.0,-1.1891,-1.2852,-1.3667,-1.3961,-1.3854,0.0,-1.2973,-1.1597,0.0,0.0,0.0,0.0,0.0,0.0,0.0,0.0,-1.3167,-1.3467,-1.6857,-1.8296,-1.766,-1.7582,-1.7582,-1.7582,-1.7301,-1.6339,-1.4603,-1.3039,-1.2009,0.0,0.0,0.0,0.0,0.0,0.0,0.0,0.0,0.0,0.0,0.0,0.0,0.0,0.0,0.0,0.0,0.0,0.0,0.0,0.0,0.0,0.0,0.0,-1.4321,0.0,0.0,0.0,0.0,0.0,0.0,0.0,0.0,0.0,-2.334,-2.4805,-2.6699,-2.9101,-2.9922,-3.043,-3.082,0.0,0.0,0.0,0.0,0.0,0.0,0.0,-3.0508,-2.9941,-3.0391,-3.1172,-3.2266,-3.4082,-3.5293,-3.498,0.0,0.0,-3.1367,-3.0996,-3.1641,-3.25,-3.3132,-3.3943,-3.5581,-3.8284,-4.0583,0.0,0.0,0.0,0.0,0.0,0.0,0.0,0.0,-1.0675,-1.0955,0.0,-0.9673,0.0,0.0,0.0,0.0,0.0,-1.1049,0.0,0.0,-1.4803,-1.5671,-1.5431,-1.5177,-1.519,-1.5404,-1.4856,-1.4282,-1.3574,-1.2467,0.0,0.0,0.0,0.0,0.0,0.0,-1.3667,-1.3734,-1.7094,-1.8497,-1.7674,-1.7582,-1.7582,-1.7582,-1.7301,-1.6607,-1.5498,-1.487,-1.3881,-1.2425,-1.0742,0.0,0.0,0.0,0.0,0.0,0.0,0.0,0.0,0.0,0.0,0.0,0.0,0.0,0.0,0.0,0.0,0.0,0.0,0.0,0.0,-1.4145,0.0,0.0,0.0,0.0,0.0,0.0,0.0,0.0,0.0,0.0,-2.5488,-2.7754,-3.0039,-3.125,0.0,0.0,0.0,0.0,-3.125,-3.0566,-3.0019,-2.9824,-2.9941,-3.1543,-3.2832,-3.2871,0.0,0.0,-3.6875,-3.6797,-3.666,-3.582,-3.7734,-3.8652,-3.6562,-3.5488,-3.5234,-3.6152,-3.6054,-3.644,-3.8771,-4.1455,-4.3462,-1.1366,0.0,0.0,0.0,0.0,-1.1037,-1.1902,-1.2544,-1.2923,-1.2933,-1.2652,-1.1931,0.0,0.0,0.0,0.0,0.0,0.0,-1.3239,-1.4435,-1.515,-1.5912,-1.6647,-1.678,-1.6767,-1.6633,-1.6473,-1.6099,-1.5604,-1.5965,-1.4012,-1.004,0.0,0.0,0.0,0.0,-1.383,-1.4897,-1.6772,-1.7688,-1.7569,-1.7582,-1.7582,-1.7582,-1.7301,-1.6981,-1.666,-1.6086,-1.519,-1.3935,-1.2812,0.0,0.0,0.0,0.0,0.0,0.0,0.0,0.0,0.0,0.0,0.0,0.0,0.0,0.0,0.0,0.0,0.0,0.0,0.0,-1.4902,-1.5546,-1.6309,0.0,0.0,0.0,0.0,0.0,0.0,0.0,0.0,0.0,-3.0351,-2.9961,-2.9805,0.0,0.0,-3.0371,-3.0,-3.084,-3.1973,-3.3223,0.0,0.0,0.0,-3.4297,-3.4023,-3.4941,-3.6934,-3.8516,-3.8906,-3.9726,-4.0351,-4.0351,-4.0996,-4.1269,-4.0723,-3.9902,-4.0088,-4.1698,-4.1033,-4.1404,-4.5295,-4.698,-4.8112,-1.4526,-1.3144,-1.1769,-1.1417,-1.1805,-1.2845,-1.3707,-1.4434,-1.4837,-1.4883,-1.4723,-1.4082,-1.34,-1.2705,-1.2251,0.0,0.0,0.0,-1.4536,-1.594,-1.6005,-1.6526,-1.7301,-1.7502,-1.7488,-1.7328,-1.7315,-1.7141,-1.6794,-1.7121,-1.5707,-1.2607,0.0,0.0,-1.1824,-1.3307,-1.4563,-1.5565,-1.6727,-1.7408,-1.7582,-1.7582,-1.7582,-1.7582,-1.7408,-1.7261,-1.7141,-1.67,-1.6005,-1.507,-1.4095,-1.2906,0.0,0.0,0.0,0.0,0.0,0.0,0.0,0.0,0.0,0.0,0.0,-1.2461,0.0,0.0,0.0,0.0,-1.498,-1.5781,-1.7305,-1.793,0.0,0.0,0.0,0.0,0.0,0.0,0.0,-2.7482,-2.9628,-3.1643,-3.3314,-3.2315,-3.1641,-3.2402,-3.1836,-3.1289,-3.1133,0.0,-3.293,-3.4043,-3.4258,-3.4766,-3.6055,-3.6055,-3.6348,-3.7832,-3.9043,-3.998,-4.0547,-4.1582,-4.2363,-4.2637,-4.2812,-4.293,-4.293,-4.25,-4.2466,-4.3792,-4.322,-4.352,-4.6849,-4.8602,-5.0543,-1.6883,-1.65,-1.325,-1.2603,-1.3721,-1.4192,-1.5191,-1.6406,-1.6406,-1.6687,-1.7061,-1.6019,-1.5524,-1.5431,-1.4402,0.0,-1.515,-1.5471,-1.6179,-1.7221,-1.7248,-1.7395,-1.7649,-1.7649,-1.7649,-1.7649,-1.7649,-1.7649,-1.7609,-1.6847,-1.6152,-1.5565,-1.5974,-1.5333,-1.3841,-1.4856,-1.5605,-1.5979,-1.7034,-1.7595,-1.7622,-1.7622,-1.7609,-1.7582,-1.7555,-1.7422,-1.7154,-1.686,-1.6446,-1.5872,-1.479,-1.3654,-1.2553,0.0,0.0,0.0,0.0,0.0,0.0,0.0,0.0,0.0,0.0,0.0,0.0,0.0,0.0,0.0,-1.8398,0.0,-2.0762,-2.0898,0.0,0.0,0.0,-2.4336,-2.6504,-2.8535,-3.0512,-3.2436,0.0,0.0,-3.4616,0.0,-3.4609,-3.5898,-3.4883,-3.3867,-3.3476,-3.375,-3.3984,-3.375,-3.4414,-3.5,-3.5566,-3.7246,-3.9141,-4.0586,-4.1523,-4.1699,-4.1816,-4.2461,-4.3008,-4.3125,-4.3437,-4.3672,-4.3691,-4.3594,-4.3594,-4.3386,-4.3183,-4.3582,-4.5263,-4.8026,-5.0587,-1.5881,-1.7915,-1.5873,-1.5615,-1.6658,-1.6675,-1.7067,-1.7609,-1.7609,-1.7435,-1.7128,-1.686,-1.6607,-1.6393,-1.6339,-1.6433,-1.6647,-1.7181,-1.7569,-1.7836,-1.8063,-1.821,-1.8277,-1.8263,-1.8277,-1.8277,-1.8277,-1.8277,-1.8263,-1.8063,-1.7662,-1.7088,-1.7218,-1.6402,-1.4736,-1.5364,-1.6206,-1.7154,-1.7448,-1.7689,-1.7929,-1.7929,-1.7822,-1.7595,-1.7368,-1.7221,-1.7154,-1.686,-1.654,-1.6179,-1.5471,-1.4906,-1.4402,-1.197,0.0,0.0,0.0,0.0,0.0,0.0,0.0,0.0,0.0,-1.6111,-1.3262,0.0,-1.8008,0.0,-2.0625,-2.248,-2.3418,-2.3809,0.0,0.0,-2.6777,-2.7441,-2.959,-3.084,-3.176,-3.2296,-3.3414,-3.4367,-3.508,-3.489,-3.5039,-3.6289,-3.4824,-3.3535,-3.3457,-3.4082,-3.4648,-3.498,-3.6152,-3.7383,-3.8047,-3.9473,-4.0664,-4.1094,-4.1523,-4.1894,-4.2207,-4.2715,-4.3183,-4.3476,-4.3633,-4.3691,-4.3711,-4.3691,-4.3828,-4.4023,-4.4082,-4.5078,-4.8307,-4.8952,-4.9338,-1.4713,-1.631,-1.6198,-1.6416,-1.6807,-1.7607,-1.809,-1.8237,-1.8237,-1.805,-1.7756,-1.7742,-1.7649,-1.7515,-1.7675,-1.7742,-1.7769,-1.809,-1.825,-1.825,-1.841,-1.849,-1.849,-1.849,-1.849,-1.849,-1.849,-1.849,-1.849,-1.849,-1.8317,-1.7983,-1.7983,-1.7435,-1.638,-1.6259,-1.654,-1.7181,-1.7448,-1.7796,-1.8223,-1.8116,-1.7782,-1.7208,-1.7034,-1.67,-1.6192,-1.6019,-1.5738,-1.5324,-1.4856,-1.444,-1.4058,-1.2362,-1.185,0.0,0.0,0.0,0.0,0.0,0.0,0.0,0.0,0.0,0.0,0.0,-2.0234,-2.0644,-2.3223,-2.5156,-2.5801,-2.6758,-2.7988,-2.957,-3.0039,-3.0859,-3.2422,-3.3359,-3.3965,-3.416,-3.4961,-3.5625,-3.5918,-3.5742,-3.5742,-3.6328,-3.5332,-3.457,-3.4629,-3.5156,-3.5664,-3.5976,-3.7402,-3.8867,-3.9902,-4.0684,-4.1172,-4.1211,-4.168,-4.2168,-4.2402,-4.2949,-4.3437,-4.3652,-4.3691,-4.3789,-4.3965,-4.4023,-4.416,-4.4551,-4.4844,-4.5916,-4.7858,-4.8543,-4.9171,-1.3432,-1.3888,-1.515,-1.5603,-1.5643,-1.7576,-1.8269,-1.8317,-1.8317,-1.8343,-1.8384,-1.8464,-1.849,-1.849,-1.849,-1.849,-1.849,-1.8531,-1.8544,-1.8544,-1.8584,-1.8597,-1.8597,-1.8611,-1.8597,-1.8597,-1.8597,-1.8611,-1.8597,-1.8597,-1.8571,-1.8504,-1.849,-1.8317,-1.7969,-1.7208,-1.682,-1.682,-1.7395,-1.7943,-1.841,-1.8103,-1.7528,-1.67,-1.658,-1.6046,-1.5017,-1.4923,-1.4669,-1.4175,-1.3895,-1.3574,-1.316,-1.2478,-1.2487,0.0,-1.338,0.0,0.0,0.0,0.0,0.0,0.0,0.0,0.0,-2.2402,-2.293,-2.3652,-2.6035,-2.7734,-2.8281,-2.9707,-3.0996,-3.1934,-3.3008,-3.3984,-3.4785,-3.5566,-3.6152,-3.6543,-3.6914,-3.6992,-3.6601,-3.6582,-3.6426,-3.6211,-3.6094,-3.6016,-3.6172,-3.6387,-3.6601,-3.6738,-3.8144,-3.9531,-4.0742,-4.1133,-4.1191,-4.1308,-4.1875,-4.2422,-4.2519,-4.3164,-4.3691,-4.3691,-4.3691,-4.3848,-4.4316,-4.4394,-4.4551,-4.5019,-4.5371,-4.5778,-4.595,-4.7338,-4.8669,-1.2107,-1.435,-1.3296,-1.3622,-1.4886,-1.6565,-1.7365,-1.7408,-1.7408,-1.7542,-1.7782,-1.8277,-1.849,-1.849,-1.849,-1.849,-1.8504,-1.8731,-1.8851,-1.8851,-1.9092,-1.9199,-1.9199,-1.9199,-1.9199,-1.9199,-1.9199,-1.9199,-1.9199,-1.9199,-1.8958,-1.8504,-1.849,-1.8223,-1.7689,0.0,0.0,0.0,-1.8009,-1.8263,-1.8116,-1.7595,-1.7007,-1.6366,-1.5899,0.0,-1.499,-1.4736,-1.4563,-1.4442,-1.4389,0.0,0.0,0.0,0.0,0.0,0.0,0.0,0.0,0.0,0.0,0.0,-2.2754,-2.2676,-2.2969,-2.5156,-2.6641,-2.6855,-2.8848,-3.0605,-3.1719,-3.2402,-3.3301,-3.4512,-3.4883,-3.5215,-3.5723,-3.5937,-3.6055,-3.6133,-3.623,-3.625,-3.6191,-3.6133,-3.625,-3.6484,-3.6543,-3.6699,-3.7012,-3.6855,-3.6816,-3.7207,-3.8398,-3.9687,-4.0976,-4.1152,-4.1289,-4.1641,-4.207,-4.2539,-4.2891,-4.334,-4.3691,-4.3691,-4.3691,-4.3867,-4.4336,-4.4394,-4.4687,-4.541,-4.5625,-4.5683,-4.5683,-4.6284,-4.6868,-1.0778,0.0,-1.2217,-1.2464,0.0,-1.4729,-1.5278,-1.5153,-1.655,-1.7189,-1.734,-1.7616,-1.821,-1.8905,-1.8624,-1.849,-1.8477,-1.833,-1.8424,-1.8704,-1.8865,-1.9092,-1.9372,-1.9372,-1.9372,-1.9372,-1.9372,-1.9372,-1.9372,-1.9372,-1.9212,-1.8931,-1.8931,-1.8771,-1.8477,-1.8464,-1.833,-1.8036,-1.833,-1.8557,-1.8677,-1.8263,-1.7675,-1.6941,0.0,0.0,0.0,0.0,0.0,0.0,0.0,0.0,0.0,0.0,0.0,-1.6598,-1.7781,-1.9166,-2.0629,-2.252,-2.4236,-2.5918,-2.6602,-2.6504,-2.5469,-2.7773,-2.9336,-2.959,-3.0957,-3.2266,-3.3301,-3.3809,-3.4414,-3.5293,-3.5566,-3.5801,-3.5976,-3.6035,-3.6035,-3.6035,-3.6035,-3.6035,-3.6035,-3.623,-3.6426,-3.6641,-3.6855,-3.7129,-3.75,-3.7422,-3.75,-3.8144,-3.8926,-3.9844,-4.0664,-4.1055,-4.1328,-4.1738,-4.2148,-4.2578,-4.3008,-4.3418,-4.3691,-4.3711,-4.3887,-4.4199,-4.4609,-4.4883,-4.5234,-4.5801,-4.5976,-4.5996,-4.5996,-4.6152,-4.6308,-0.9822,-0.9943,-1.1253,-1.1454,-1.1181,-1.2781,-1.3154,-1.2875,0.0,0.0,0.0,-1.6575,-1.7455,-1.8971,-1.8512,-1.8414,-1.8611,-1.813,-1.817,-1.8637,-1.8637,-1.8905,-1.9359,-1.9372,-1.9372,-1.9372,-1.9372,-1.9372,-1.9372,-1.9372,-1.9372,-1.9372,-1.9372,-1.9372,-1.9372,-1.9372,-1.9132,-1.8664,-1.8544,-1.8731,-1.9185,-1.8865,-1.8303,-1.7528,-1.7221,-1.6593,-1.5605,-1.5551,-1.5324,-1.487,-1.511,-1.5324,-1.5431,-1.5885,-1.6787,-1.8375,-2.0468,-2.2248,-2.3877,-2.6058,-2.7715,-2.8574,-2.9609,-2.9648,-2.832,-3.0,-3.1289,-3.1699,-3.2519,-3.334,-3.4121,-3.457,-3.5,-3.5469,-3.582,-3.6016,-3.6035,-3.6035,-3.6035,-3.6035,-3.6035,-3.6035,-3.6035,-3.6387,-3.6699,-3.6816,-3.7168,-3.7559,-3.793,-3.8027,-3.8242,-3.8965,-3.9492,-4.0059,-4.0586,-4.1035,-4.1445,-4.2012,-4.2363,-4.2695,-4.3105,-4.3476,-4.3672,-4.3691,-4.4082,-4.4512,-4.4941,-4.5332,-4.5801,-4.6211,-4.6308,-4.6308,-4.6308,-4.6308,-4.6328,-0.9822,-0.9822,-1.0058,-1.003,-1.0116,-1.1782,-1.2337,-1.2386,-1.3673,-1.4127,-1.4147,-1.4662,-1.5784,-1.7313,-1.7241,-1.7927,-1.9239,-1.9145,-1.9172,0.0,-1.9252,-1.9292,-1.9359,-1.9372,-1.9372,-1.9372,-1.9372,-1.9372,-1.9372,-1.9372,-1.9372,-1.9372,-1.9372,-1.9372,-1.9372,-1.9372,-1.9332,-1.9239,-1.8744,-1.8531,-1.8611,-1.8063,-1.7595,-1.7338,-1.6954,-1.6593,-1.6179,-1.6166,-1.6112,-1.6046,-1.6299,-1.6687,-1.7181,-1.7288,-1.831,-2.0476,-2.2177,-2.39,-2.5577,-2.7587,-2.9023,-2.9824,-3.0098,-3.0254,-3.0469,-3.1387,-3.2168,-3.2598,-3.3359,-3.4082,-3.457,-3.5,-3.543,-3.5859,-3.5976,-3.6035,-3.6035,-3.6035,-3.6035,-3.6035,-3.6035,-3.6035,-3.6055,-3.6426,-3.6836,-3.7168,-3.7559,-3.7988,-3.832,-3.8476,-3.8672,-3.9121,-3.959,-4.0195,-4.0781,-4.1406,-4.1894,-4.2773,-4.2871,-4.3047,-4.3496,-4.3633,-4.3691,-4.3691,-4.4121,-4.4551,-4.4961,-4.5391,-4.582,-4.623,-4.6308,-4.6308,-4.6308,-4.6328,-4.6445,-0.9822,-0.9822,-0.9822,-0.9822,-0.9822,-1.0543,-1.0899,-1.0884,-1.132,-1.2072,-1.2903,-1.3205,-1.4242,-1.5633,-1.5384,-1.5621,-1.631,-1.683,-1.7316,-1.7704,-1.8538,-1.9065,-1.9345,-1.9372,-1.9372,-1.9372,-1.9372,-1.9372,-1.9372,-1.9372,-1.9372,-1.9372,-1.9372,-1.9372,-1.9372,-1.9372,-1.9372,-1.9359,-1.9105,-1.8971,-1.8971,-1.8691,-1.849,-1.8357,-1.8063,-1.7849,-1.7716,-1.7555,-1.7475,-1.7475,-1.7756,-1.8036,-1.829,-1.8464,-1.9054,-2.0118,-2.237,-2.4072,-2.5113,-2.7977,-2.9785,-3.0176,-3.0644,-3.1094,-3.1562,-3.1934,-3.2344,-3.2773,-3.3574,-3.4258,-3.4668,-3.5117,-3.5566,-3.5976,-3.6035,-3.6035,-3.6035,-3.6035,-3.6035,-3.6035,-3.6035,-3.6035,-3.6035,-3.6601,-3.7051,-3.7324,-3.7832,-3.8359,-3.8555,-3.8574,-3.8633,-3.8867,-3.9238,-3.9746,-4.0391,-4.084,-4.1523,-4.2539,-4.2715,-4.3008,-4.3535,-4.3691,-4.3691,-4.375,-4.4258,-4.4746,-4.5019,-4.5586,-4.6016,-4.6211,-4.6308,-4.6308,-4.6328,-4.6641,-4.7051,-0.9822,-0.9822,-0.9822,-0.9822,-0.9822,-0.9822,-0.9822,-0.9822,-0.9815,-1.0536,-1.1615,-1.1615,-1.2577,-1.3965,-1.3529,-1.3614,-1.4023,-1.5066,-1.5888,-1.6464,-1.7991,-1.8931,-1.9332,-1.9372,-1.9372,-1.9372,-1.9372,-1.9372,-1.9372,-1.9372,-1.9372,-1.9372,-1.9372,-1.9372,-1.9372,-1.9372,-1.9372,-1.9372,-1.9372,-1.9372,-1.9372,-1.9372,-1.9359,-1.9345,-1.9145,-1.9025,-1.9011,-1.8811,-1.8691,-1.8691,-1.8905,-1.9025,-1.9025,-1.9239,-1.9707,-2.0486,-2.2667,-2.449,-2.5856,-2.852,-3.0293,-3.0508,-3.1133,-3.1738,-3.2246,-3.2305,-3.25,-3.2949,-3.373,-3.4375,-3.4707,-3.5215,-3.5664,-3.5976,-3.6035,-3.6035,-3.6035,-3.6035,-3.6035,-3.6035,-3.6035,-3.6035,-3.6172,-3.6777,-3.7363,-3.7676,-3.8184,-3.8555,-3.8574,-3.8574,-3.8574,-3.8652,-3.8926,-3.9453,-3.9922,-4.043,-4.1191,-4.2246,-4.2441,-4.2793,-4.332,-4.3535,-4.3711,-4.3867,-4.4492,-4.5,-4.5195,-4.5762,-4.6211,-4.6308,-4.6308,-4.6308,-4.6328,-4.6953,-4.7519,-0.9822,-0.9822,-0.9822,-0.9822,-0.9822,-0.9822,-0.9822,-0.9822,-0.9822,-0.9822,-1.0058,-1.0058,-1.0899,-1.2337,-1.2286,-1.3095,-1.44,-1.6143,-1.6832,-1.6984,-1.8571,-1.9319,-1.9359,-1.9372,-1.9372,-1.9372,-1.9372,-1.9372,-1.9372,-1.9372,-1.9372,-1.9372,-1.9372,-1.9372,-1.9372,-1.9372,-1.9372,-1.9372,-1.9372,-1.9372,-1.9372,-1.9372,-1.9372,-1.9372,-1.9345,-1.9319,-1.9305,-1.9292,-1.9279,-1.9292,-1.9292,-1.9319,-1.9319,-1.9359,-2.0601,-2.3071,-2.4022,-2.5874,-2.9146,-3.0042,-3.0547,-3.1289,-3.1465,-3.1875,-3.2617,-3.2734,-3.291,-3.3398,-3.4141,-3.4609,-3.4746,-3.5449,-3.5937,-3.5996,-3.6035,-3.6035,-3.6035,-3.6035,-3.6035,-3.6035,-3.6035,-3.6035,-3.6113,-3.6758,-3.7578,-3.8242,-3.8437,-3.8574,-3.8574,-3.8574,-3.8574,-3.8652,-3.8926,-3.9531,-4.0215,-4.082,-4.1367,-4.2168,-4.2402,-4.2617,-4.2969,-4.3203,-4.334,-4.3887,-4.4648,-4.5098,-4.5488,-4.5996,-4.6269,-4.6308,-4.6308,-4.6308,-4.6387,-4.6992,-4.75,-0.9822,-0.9822,-0.9822,-0.9822,-0.9822,-0.9822,-0.9822,-0.9822,-0.9822,-0.9822,-0.9822,-0.9822,-1.0179,-1.0778,-1.0778,-1.114,-1.1976,-1.448,-1.5548,-1.5784,-1.8169,-1.9372,-1.9372,-1.9372,-1.9372,-1.9372,-1.9372,-1.9372,-1.9372,-1.9372,-1.9372,-1.9372,-1.9372,-1.9372,-1.9372,-1.9372,-1.9372,-1.9372,-1.9372,-1.9372,-1.9372,-1.9372,-1.9372,-1.9372,-1.9372,-1.9372,-1.9372,-1.9372,-1.9372,-1.9372,-1.9372,-1.9372,-1.9372,-1.9533,-2.0186,-2.1467,-2.3769,-2.6196,-2.8644,-2.9853,-3.0859,-3.1484,-3.1758,-3.2168,-3.2734,-3.3027,-3.334,-3.3789,-3.4355,-3.4687,-3.4766,-3.5508,-3.6035,-3.6035,-3.6035,-3.6035,-3.6035,-3.6035,-3.6035,-3.6035,-3.6035,-3.6035,-3.6152,-3.6758,-3.7617,-3.8359,-3.8574,-3.8574,-3.8574,-3.8574,-3.8574,-3.8633,-3.8926,-3.9434,-4.0059,-4.0508,-4.1133,-4.1777,-4.2051,-4.2207,-4.2598,-4.2949,-4.3242,-4.3594,-4.4394,-4.498,-4.5195,-4.5859,-4.6308,-4.6308,-4.6308,-4.6308,-4.6308,-4.6992,-4.7461,-0.9822,-0.9822,-0.9822,-0.9822,-0.9822,-0.9822,-0.9822,-0.9943,-1.0301,-1.0179,-0.9822,-1.0301,-1.0179,-0.9822,-0.9822,-0.9822,-1.0179,-1.3168,-1.4599,-1.4955,-1.7935,-1.9372,-1.9372,-1.9372,-1.9372,-1.9372,-1.9372,-1.9372,-1.9372,-1.9372,-1.9372,-1.9372,-1.9372,-1.9372,-1.9372,-1.9372,-1.9372,-1.9372,-1.9372,-1.9372,-1.9372,-1.9372,-1.9372,-1.9372,-1.9372,-1.9372,-1.9372,-1.9372,-1.9372,-1.9372,-1.9372,-1.9412,-1.9492,-1.9693,-2.0104,-2.0984,-2.4213,-2.6693,-2.7876,-2.9846,-3.125,-3.168,-3.209,-3.2519,-3.291,-3.3242,-3.3613,-3.4023,-3.4453,-3.4726,-3.4961,-3.5566,-3.5996,-3.6035,-3.6035,-3.6035,-3.6035,-3.6035,-3.6035,-3.6035,-3.6035,-3.6133,-3.6406,-3.7031,-3.7793,-3.8418,-3.8574,-3.8574,-3.8574,-3.8574,-3.8613,-3.873,-3.9121,-3.9512,-3.9863,-4.0273,-4.084,-4.1367,-4.1699,-4.1933,-4.2226,-4.2617,-4.3008,-4.334,-4.4238,-4.4883,-4.5156,-4.5703,-4.6308,-4.6308,-4.6308,-4.6308,-4.6308,-4.6953,-4.7363,-0.9822,-0.9822,-0.9822,-0.9822,-0.9822,-0.9822,-0.9943,-1.0179,-1.1495,-1.1261,-1.0179,-1.1495,-1.1253,-0.9822,-1.0058,-0.9815,-1.0301,-1.3168,-1.4718,-1.5074,-1.7935,-1.9372,-1.9372,-1.9372,-1.9372,-1.9372,-1.9372,-1.9372,-1.9372,-1.9372,-1.9372,-1.9372,-1.9372,-1.9372,-1.9372,-1.9372,-1.9372,-1.9372,-1.9372,-1.9372,-1.9372,-1.9372,-1.9372,-1.9372,-1.9372,-1.9372,-1.9372,-1.9372,-1.9372,-1.9372,-1.9386,-1.9492,-1.9746,-1.9813,-2.0653,-2.281,-2.5796,-2.7776,-2.839,-3.0225,-3.166,-3.2109,-3.248,-3.293,-3.3281,-3.3418,-3.3672,-3.4043,-3.4512,-3.4902,-3.5312,-3.5742,-3.6016,-3.6035,-3.6035,-3.6035,-3.6035,-3.6035,-3.6035,-3.6035,-3.6055,-3.6367,-3.709,-3.7617,-3.8027,-3.8437,-3.8574,-3.8574,-3.8574,-3.8574,-3.873,-3.9101,-3.9492,-3.9863,-3.9941,-4.0351,-4.0762,-4.1152,-4.1543,-4.1758,-4.1933,-4.2168,-4.2578,-4.3066,-4.3848,-4.4512,-4.5019,-4.5547,-4.6113,-4.6308,-4.6308,-4.6308,-4.6308,-4.666,-4.7109,-1.1374,-1.1261,-1.0179,-1.0422,-1.1261,-1.1374,-1.1856,-1.2928,-1.3526,-1.2808,-1.1856,-1.3048,-1.2337,-0.9937,-1.1976,-1.2337,-1.1615,-1.3646,-1.5192,-1.6256,-1.8402,-1.9372,-1.9372,-1.9372,-1.9372,-1.9372,-1.9372,-1.9372,-1.9372,-1.9372,-1.9372,-1.9372,-1.9372,-1.9372,-1.9372,-1.9372,-1.9372,-1.9372,-1.9372,-1.9372,-1.9372,-1.9372,-1.9372,-1.9372,-1.9372,-1.9372,-1.9372,-1.9372,-1.9452,-1.9639,-1.9653,-1.9773,-2.0054,-2.0254,-2.0767,-2.199,-2.4833,-2.6798,-2.7522,-2.9934,-3.1836,-3.248,-3.2695,-3.2988,-3.3359,-3.3672,-3.4023,-3.4434,-3.4883,-3.5332,-3.5684,-3.5937,-3.6035,-3.6035,-3.6035,-3.6035,-3.6035,-3.6035,-3.6035,-3.6074,-3.625,-3.668,-3.7207,-3.7656,-3.8086,-3.8476,-3.8574,-3.8574,-3.8574,-3.8574,-3.873,-3.916,-3.959,-4.0,-4.0293,-4.0664,-4.1016,-4.1113,-4.1328,-4.1387,-4.1504,-4.1816,-4.2207,-4.2617,-4.3379,-4.4277,-4.4863,-4.5703,-4.6191,-4.6308,-4.6308,-4.6308,-4.6308,-4.6738,-4.7168,-1.2928,-1.2808,-1.1856,-1.1976,-1.2928,-1.2937,-1.3526,-1.4609,-1.5192,-1.448,-1.3526,-1.4599,-1.3885,-1.1976,-1.3646,-1.4361,-1.3875,-1.4955,-1.602,-1.7091,-1.8648,-1.9372,-1.9372,-1.9372,-1.9372,-1.9372,-1.9372,-1.9372,-1.9372,-1.9372,-1.9372,-1.9372,-1.9372,-1.9372,-1.9372,-1.9372,-1.9372,-1.9372,-1.9372,-1.9372,-1.9372,-1.9466,-1.9506,-1.9519,-1.9599,-1.9599,-1.9519,-1.9506,-1.9639,-1.9893,-1.9947,-2.0067,-2.0361,-2.0655,-2.0895,-2.1447,-2.427,-2.6265,-2.7025,-2.9886,-3.2187,-3.2734,-3.293,-3.3125,-3.3418,-3.3828,-3.4238,-3.4668,-3.5117,-3.5566,-3.5898,-3.6016,-3.6035,-3.6035,-3.6035,-3.6035,-3.6035,-3.6035,-3.6094,-3.6289,-3.6621,-3.7031,-3.7441,-3.7871,-3.8242,-3.8555,-3.8574,-3.8574,-3.8574,-3.8594,-3.8809,-3.9316,-3.9687,-4.0156,-4.0547,-4.0957,-4.1074,-4.1172,-4.1348,-4.1308,-4.125,-4.1562,-4.1894,-4.2285,-4.3027,-4.3965,-4.4883,-4.5762,-4.6133,-4.6269,-4.6308,-4.6308,-4.6523,-4.6836,-4.7226,-1.4599,-1.4599,-1.4609,-1.4371,-1.4599,-1.4599,-1.4599,-1.5192,-1.6374,-1.6138,-1.4955,-1.6256,-1.5902,-1.4718,-1.4837,-1.5548,-1.6374,-1.6856,-1.7091,-1.7443,-1.8765,-1.9372,-1.9372,-1.9372,-1.9372,-1.9372,-1.9372,-1.9372,-1.9372,-1.9372,-1.9372,-1.9372,-1.9372,-1.9372,-1.9372,-1.9372,-1.9372,-1.9372,-1.9372,-1.9372,-1.9399,-1.9639,-1.9773,-1.9826,-2.0027,-2.0054,-1.984,-1.9813,-1.9933,-2.0187,-2.0241,-2.0374,-2.0668,-2.0922,-2.1109,-2.1669,-2.461,-2.6389,-2.7035,-3.0383,-3.2676,-3.291,-3.3184,-3.3398,-3.3555,-3.3887,-3.4316,-3.4766,-3.5195,-3.5605,-3.5937,-3.6035,-3.6035,-3.6035,-3.6035,-3.6035,-3.6035,-3.6035,-3.6191,-3.6562,-3.6973,-3.7441,-3.7851,-3.8223,-3.8516,-3.8555,-3.8574,-3.8574,-3.8574,-3.8574,-3.8965,-3.959,-3.9902,-4.0156,-4.0684,-4.1172,-4.1172,-4.1211,-4.1426,-4.1523,-4.1328,-4.1465,-4.1758,-4.2187,-4.3262,-4.4199,-4.5156,-4.5937,-4.6172,-4.6308,-4.6308,-4.6308,-4.6504,-4.6777,-4.7187,-1.5192,-1.602,-1.5074,-1.5311,-1.6138,-1.6256,-1.6856,-1.7935,-1.8519,-1.7689,-1.6738,-1.7923,-1.7208,-1.5666,-1.675,-1.7572,-1.7079,-1.804,-1.8648,-1.8765,-1.9127,-1.9372,-1.9372,-1.9372,-1.9372,-1.9372,-1.9372,-1.9372,-1.9372,-1.9372,-1.9372,-1.9372,-1.9372,-1.9372,-1.9386,-1.9372,-1.9372,-1.9372,-1.9372,-1.9452,-1.9639,-1.976,-1.9893,-2.008,-2.0187,-2.0267,-2.0388,-2.0201,-2.0241,-2.0521,-2.0535,-2.0668,-2.0935,-2.1056,-2.1203,-2.176,-2.4733,-2.6919,-2.7748,-3.0678,-3.293,-3.3164,-3.3359,-3.3574,-3.3867,-3.4258,-3.4687,-3.5137,-3.5566,-3.5898,-3.5996,-3.6035,-3.6035,-3.6035,-3.6035,-3.6035,-3.6035,-3.6035,-3.623,-3.6621,-3.7051,-3.7461,-3.7891,-3.8301,-3.8574,-3.8574,-3.8574,-3.8574,-3.8574,-3.8574,-3.8926,-3.9687,-3.9883,-4.0195,-4.082,-4.1172,-4.1172,-4.1172,-4.1348,-4.1484,-4.1348,-4.1328,-4.1641,-4.2344,-4.3398,-4.4394,-4.5332,-4.5898,-4.6113,-4.6289,-4.6308,-4.6328,-4.6367,-4.6738,-4.7246,-1.6973,-1.7689,-1.6856,-1.6973,-1.7806,-1.7923,-1.8402,-1.9359,-1.9372,-1.8765,-1.8286,-1.8881,-1.8298,-1.7103,-1.8532,-1.8765,-1.804,-1.8997,-1.9372,-1.9372,-1.9372,-1.9372,-1.9372,-1.9372,-1.9372,-1.9372,-1.9372,-1.9372,-1.9372,-1.9372,-1.9372,-1.9372,-1.9372,-1.9439,-1.9506,-1.9533,-1.9573,-1.9666,-1.9706,-1.9773,-1.9947,-2.0067,-2.0214,-2.0388,-2.0494,-2.0655,-2.0815,-2.0655,-2.0655,-2.0802,-2.0842,-2.0935,-2.1096,-2.1216,-2.1363,-2.2167,-2.4802,-2.7029,-2.7182,-3.0592,-3.2729,-3.2727,-3.3174,-3.3769,-3.4121,-3.457,-3.5117,-3.5371,-3.5762,-3.6035,-3.6016,-3.6035,-3.6035,-3.6035,-3.6035,-3.6035,-3.6035,-3.6035,-3.6328,-3.6777,-3.7148,-3.7559,-3.8066,-3.834,-3.8574,-3.8574,-3.8574,-3.8574,-3.8574,-3.8574,-3.9101,-3.959,-3.9863,-4.0332,-4.0996,-4.1172,-4.1172,-4.1172,-4.1211,-4.1269,-4.1211,-4.123,-4.1426,-4.2422,-4.3457,-4.4316,-4.5254,-4.5703,-4.5996,-4.6113,-4.6289,-4.6328,-4.6426,-4.7012,-4.75,-1.9372,-1.9372,-1.9372,-1.9243,-1.9243,-1.9243,-1.9243,-1.9359,-1.9372,-1.9372,-1.9243,-1.9359,-1.9359,-1.9243,-1.9372,-1.9243,-1.9359,-1.9359,-1.9372,-1.9372,-1.9372,-1.9372,-1.9372,-1.9372,-1.9372,-1.9372,-1.9372,-1.9372,-1.9372,-1.9372,-1.9386,-1.9426,-1.9452,-1.9546,-1.9773,-1.9826,-1.9933,-2.012,-2.0174,-2.0187,-2.0267,-2.0494,-2.0668,-2.0708,-2.0909,-2.1042,-2.1056,-2.1029,-2.1056,-2.1096,-2.1109,-2.1149,-2.1189,-2.1416,-2.159,-2.1943,-2.5473,-2.6371,-2.6807,-3.0409,-3.2581,-3.1433,-3.2834,-3.4082,-3.4238,-3.4844,-3.5351,-3.5508,-3.582,-3.6035,-3.6035,-3.6035,-3.6035,-3.6035,-3.6035,-3.6035,-3.6035,-3.6055,-3.6465,-3.707,-3.7344,-3.7637,-3.8398,-3.8555,-3.8574,-3.8574,-3.8574,-3.8574,-3.8594,-3.8711,-3.9062,-3.9473,-3.9902,-4.041,-4.1055,-4.1172,-4.1172,-4.1172,-4.1172,-4.1172,-4.1289,-4.1367,-4.1641,-4.2598,-4.3437,-4.4316,-4.5,-4.5508,-4.5918,-4.6191,-4.6289,-4.6289,-4.6641,-4.7187,-4.7637,-1.9372,-1.9372,-1.9372,-1.9372,-1.9372,-1.9372,-1.9372,-1.9372,-1.9372,-1.9372,-1.9372,-1.9372,-1.9372,-1.9372,-1.9372,-1.9372,-1.9372,-1.9372,-1.9372,-1.9372,-1.9372,-1.9372,-1.9372,-1.9372,-1.9372,-1.9372,-1.9372,-1.9372,-1.9372,-1.9386,-1.9492,-1.9679,-1.9693,-1.984,-2.008,-2.012,-2.0147,-2.0214,-2.0241,-2.0361,-2.0548,-2.0628,-2.0788,-2.0989,-2.1069,-2.1109,-2.1109,-2.1109,-2.1109,-2.1122,-2.1323,-2.1443,-2.1456,-2.171,-2.2082,-2.2786,-2.5428,-2.6969,-2.6783,-3.0312,-3.2365,-3.1194,-3.28,-3.4199,-3.4531,-3.5059,-3.5508,-3.5762,-3.5976,-3.6035,-3.6035,-3.6035,-3.6035,-3.6035,-3.6035,-3.6035,-3.6094,-3.6328,-3.6719,-3.7207,-3.7559,-3.7988,-3.8379,-3.8574,-3.8574,-3.8574,-3.8574,-3.8574,-3.8613,-3.8867,-3.9219,-3.9707,-4.0156,-4.0586,-4.0976,-4.1113,-4.1172,-4.1172,-4.1172,-4.1191,-4.1426,-4.1719,-4.2187,-4.293,-4.3555,-4.4355,-4.4922,-4.543,-4.582,-4.6016,-4.6113,-4.6094,-4.6699,-4.7266,-4.7715,-1.9733,-1.9733,-1.9733,-1.9653,-1.9559,-1.9546,-1.9479,-1.9386,-1.9372,-1.9372,-1.9372,-1.9372,-1.9372,-1.9372,-1.9372,-1.9372,-1.9372,-1.9372,-1.9372,-1.9372,-1.9372,-1.9372,-1.9372,-1.9372,-1.9372,-1.9372,-1.9372,-1.9439,-1.9533,-1.9546,-1.9706,-1.9933,-1.9973,-2.0134,-2.0401,-2.0428,-2.0481,-2.0575,-2.0601,-2.0695,-2.0842,-2.0855,-2.0935,-2.1082,-2.1109,-2.1109,-2.1109,-2.1229,-2.1296,-2.1336,-2.147,-2.1603,-2.175,-2.2004,-2.2631,-2.3462,-2.633,-2.7162,-2.6776,-3.0384,-3.2057,-3.106,-3.2469,-3.4381,-3.4961,-3.5391,-3.5801,-3.5957,-3.6016,-3.6035,-3.6035,-3.6035,-3.6035,-3.6035,-3.6035,-3.6094,-3.625,-3.6523,-3.6953,-3.7402,-3.7793,-3.8086,-3.8516,-3.8574,-3.8574,-3.8574,-3.8574,-3.8574,-3.8613,-3.8984,-3.9394,-3.9863,-4.0293,-4.0703,-4.0976,-4.1133,-4.1172,-4.1172,-4.1269,-4.125,-4.1621,-4.2012,-4.2461,-4.3027,-4.3672,-4.4258,-4.4746,-4.5098,-4.5176,-4.5391,-4.5625,-4.6074,-4.6621,-4.7344,-4.7773,-2.0241,-2.0227,-2.0227,-2.008,-1.9867,-1.984,-1.972,-1.9506,-1.9519,-1.9506,-1.9506,-1.9479,-1.9546,-1.9452,-1.9573,-1.9492,-1.9492,-1.9546,-1.9519,-1.9533,-1.9533,-1.9546,-1.9546,-1.9492,-1.9506,-1.9533,-1.9466,-1.9626,-1.98,-1.984,-2.0,-2.0214,-2.0281,-2.0441,-2.0668,-2.0722,-2.0869,-2.0989,-2.1002,-2.1002,-2.1042,-2.1056,-2.1069,-2.1082,-2.1109,-2.1149,-2.1229,-2.1403,-2.1563,-2.1657,-2.1643,-2.1817,-2.2044,-2.2298,-2.337,-2.4878,-2.6783,-2.7487,-2.702,-3.0638,-3.2373,-3.0743,-3.2898,-3.4922,-3.5312,-3.5703,-3.5976,-3.6016,-3.6035,-3.6035,-3.6035,-3.6035,-3.6035,-3.6035,-3.6035,-3.623,-3.6601,-3.6738,-3.7051,-3.7793,-3.7949,-3.8203,-3.8418,-3.8574,-3.8574,-3.8574,-3.8594,-3.8652,-3.8828,-3.9199,-3.959,-4.0,-4.0391,-4.0762,-4.0976,-4.1172,-4.1172,-4.1191,-4.1348,-4.1465,-4.1855,-4.2226,-4.2578,-4.3066,-4.3594,-4.4023,-4.4433,-4.4629,-4.4648,-4.5078,-4.5527,-4.5937,-4.6406,-4.7266,-4.7891,-2.0241,-2.0241,-2.0241,-2.0201,-2.0147,-2.0134,-2.0107,-2.0027,-2.0027,-2.0,-2.0027,-2.004,-2.0027,-2.0027,-2.0,-2.0054,-2.0,-2.0,-2.0054,-2.004,-2.0054,-2.0054,-1.9987,-1.984,-1.984,-1.996,-2.004,-2.008,-2.0134,-2.016,-2.0294,-2.0535,-2.0601,-2.0722,-2.0949,-2.0975,-2.1029,-2.1109,-2.1109,-2.1109,-2.1109,-2.1109,-2.1109,-2.1109,-2.1122,-2.1243,-2.1416,-2.1523,-2.1777,-2.2111,-2.2231,-2.2245,-2.2352,-2.2579,-2.3649,-2.5398,-2.7057,-2.8031,-2.8777,-3.1389,-3.3177,-3.1835,-3.3423,-3.5273,-3.5371,-3.5781,-3.5996,-3.6035,-3.6035,-3.6035,-3.6035,-3.6035,-3.6035,-3.6035,-3.6074,-3.6348,-3.6953,-3.7148,-3.7383,-3.7832,-3.8223,-3.8457,-3.8555,-3.8574,-3.8574,-3.8574,-3.8652,-3.875,-3.9082,-3.9453,-3.9824,-4.0234,-4.0605,-4.0957,-4.1016,-4.1172,-4.1172,-4.125,-4.1406,-4.168,-4.207,-4.2402,-4.2754,-4.3086,-4.3437,-4.3828,-4.4199,-4.4121,-4.4141,-4.4785,-4.5391,-4.5781,-4.6289,-4.7168,-4.791,-2.2899,-2.2793,-2.209,-2.1638,-2.1404,-2.0795,-2.0361,-2.0254,-2.0241,-2.0241,-2.0241,-2.0241,-2.0241,-2.0241,-2.0241,-2.0227,-2.0241,-2.0241,-2.0227,-2.0214,-2.0227,-2.0307,-2.0414,-2.0294,-2.0254,-2.0267,-2.0227,-2.0294,-2.0401,-2.0468,-2.0588,-2.0855,-2.0869,-2.0935,-2.1082,-2.1109,-2.1096,-2.1109,-2.1109,-2.1109,-2.1109,-2.1109,-2.1109,-2.1149,-2.1229,-2.1403,-2.1523,-2.1844,-2.2098,-2.2365,-2.2552,-2.2619,-2.2632,-2.2902,-2.4181,-2.6455,-2.676,-2.8344,-3.001,-3.1715,-3.2803,-3.2502,-3.4298,-3.52,-3.5644,-3.5918,-3.5996,-3.6035,-3.6035,-3.6035,-3.6035,-3.6035,-3.6035,-3.6074,-3.6211,-3.6601,-3.7129,-3.7305,-3.7559,-3.8066,-3.8437,-3.8535,-3.8574,-3.8574,-3.875,-3.8828,-3.8926,-3.9043,-3.9512,-3.9883,-4.0137,-4.0488,-4.0879,-4.1113,-4.1133,-4.1172,-4.1172,-4.1308,-4.1504,-4.1855,-4.2246,-4.2578,-4.291,-4.3242,-4.3574,-4.3652,-4.3906,-4.3789,-4.3789,-4.4219,-4.4766,-4.5391,-4.6094,-4.7072,-4.7777,-2.5984,-2.5863,-2.4532,-2.3764,-2.3292,-2.2176,-2.1572,-2.1241,-2.0848,-2.1039,-2.0605,-2.0483,-2.0454,-2.0388,-2.0414,-2.0374,-2.0388,-2.0401,-2.0468,-2.0468,-2.0468,-2.0575,-2.0695,-2.0695,-2.0615,-2.0374,-2.0428,-2.0561,-2.0695,-2.0748,-2.0855,-2.1069,-2.1096,-2.1082,-2.1096,-2.1109,-2.1109,-2.1109,-2.1109,-2.1109,-2.1109,-2.1109,-2.1122,-2.1256,-2.197,-2.2046,-2.1948,-2.2111,-2.2432,-2.2498,-2.2726,-2.2832,-2.2859,-2.3133,-2.4495,-2.7849,-2.732,-2.8758,-3.1443,-3.2629,-3.2942,-3.3193,-3.4507,-3.551,-3.5918,-3.5996,-3.6016,-3.6035,-3.6035,-3.6035,-3.6035,-3.6035,-3.6035,-3.6094,-3.6406,-3.6836,-3.7187,-3.7344,-3.7793,-3.834,-3.8535,-3.8574,-3.8574,-3.8594,-3.8848,-3.9082,-3.918,-3.9414,-3.9902,-4.0234,-4.0449,-4.0664,-4.1016,-4.1152,-4.1172,-4.1172,-4.1172,-4.1328,-4.1543,-4.1992,-4.2422,-4.2891,-4.3223,-4.3457,-4.3691,-4.375,-4.375,-4.373,-4.3769,-4.3848,-4.4355,-4.5156,-4.6072,-4.6973,-4.7603,-2.5984,-2.5984,-2.5741,-2.5587,-2.5538,-2.5156,-2.4865,-2.4849,-2.3473,-2.3039,-2.2777,-2.1686,-2.1159,-2.1047,-2.0949,-2.0949,-2.1118,-2.1105,-2.1007,-2.0895,-2.0882,-2.0962,-2.0962,-2.0975,-2.0962,-2.0989,-2.0922,-2.0935,-2.0989,-2.1042,-2.1029,-2.1096,-2.1235,-2.1235,-2.1109,-2.1109,-2.1348,-2.1475,-2.1348,-2.1348,-2.1348,-2.1402,-2.1524,-2.1842,-2.302,-2.3275,-2.259,-2.2338,-2.2525,-2.2752,-2.2832,-2.2996,-2.3147,-2.3147,-2.514,-2.7605,-2.8186,-2.9564,-3.3423,-3.4509,-3.495,-3.5375,-3.5724,-3.5879,-3.5996,-3.6035,-3.6035,-3.6035,-3.6035,-3.6035,-3.6035,-3.6035,-3.6035,-3.6133,-3.6445,-3.6894,-3.7285,-3.7656,-3.7988,-3.8476,-3.8555,-3.8574,-3.8574,-3.8652,-3.8906,-3.916,-3.9355,-3.9766,-4.0332,-4.0547,-4.0664,-4.0879,-4.1133,-4.1172,-4.1172,-4.1172,-4.1191,-4.1367,-4.1621,-4.209,-4.2578,-4.3183,-4.3555,-4.3652,-4.3691,-4.3711,-4.3711,-4.3691,-4.3711,-4.3769,-4.4375,-4.5,-4.6214,-4.744,-4.8319,-2.8545,-2.8426,-2.7572,-2.7194,-2.7073,-2.6349,-2.5984,-2.5863,-2.513,-2.4901,-2.4655,-2.4039,-2.3668,-2.3668,-2.3668,-2.3186,-2.2591,-2.2341,-2.1964,-2.1348,-2.1109,-2.1109,-2.1222,-2.1222,-2.1109,-2.1096,-2.1096,-2.1222,-2.1109,-2.1096,-2.1235,-2.1362,-2.1853,-2.1978,-2.1601,-2.1978,-2.2341,-2.2341,-2.2341,-2.2355,-2.2509,-2.2609,-2.2865,-2.3407,-2.4086,-2.4335,-2.4084,-2.3912,-2.3635,-2.3502,-2.4723,-2.4858,-2.4766,-2.5426,-2.678,-2.8337,-2.8494,-3.019,-3.4105,-3.4854,-3.4694,-3.5821,-3.6035,-3.6035,-3.6035,-3.6035,-3.6035,-3.6035,-3.6035,-3.6035,-3.6035,-3.6035,-3.6133,-3.6387,-3.6738,-3.7148,-3.7559,-3.7988,-3.8301,-3.8535,-3.8555,-3.8574,-3.8574,-3.8711,-3.8965,-3.9219,-3.9492,-4.0059,-4.0703,-4.084,-4.0898,-4.0996,-4.1172,-4.1172,-4.1172,-4.1172,-4.1172,-4.1328,-4.1641,-4.2109,-4.2539,-4.3066,-4.3457,-4.3672,-4.3691,-4.3691,-4.3691,-4.3691,-4.3691,-4.3856,-4.4375,-4.529,-4.6629,-4.7894,-4.9297,-3.0898,-3.0762,-2.9412,-2.8902,-2.8664,-2.7572,-2.7073,-2.6953,-2.6591,-2.647,-2.647,-2.6106,-2.5846,-2.5984,-2.5741,-2.5269,-2.4054,-2.4054,-2.3435,-2.2702,-2.2452,-2.2201,-2.2076,-2.209,-2.2452,-2.2688,-2.2577,-2.1727,-2.1235,-2.1601,-2.1727,-2.2215,-2.3325,-2.3559,-2.2827,-2.3559,-2.3931,-2.407,-2.4146,-2.4176,-2.4454,-2.5078,-2.5246,-2.5396,-2.5851,-2.6299,-2.585,-2.5871,-2.5457,-2.5383,-2.6321,-2.7535,-2.6729,-2.7938,-2.911,-2.926,-2.8638,-3.1116,-3.3613,-3.4774,-3.4827,-3.5879,-3.6035,-3.6035,-3.6035,-3.6035,-3.6035,-3.6035,-3.6035,-3.6035,-3.6035,-3.6113,-3.6309,-3.6641,-3.709,-3.7559,-3.7871,-3.8184,-3.8418,-3.8574,-3.8574,-3.8574,-3.8574,-3.8672,-3.8906,-3.9434,-3.9726,-4.0195,-4.0781,-4.1016,-4.1074,-4.1113,-4.1172,-4.1172,-4.1172,-4.1172,-4.1172,-4.123,-4.1582,-4.2012,-4.2422,-4.2851,-4.3203,-4.3758,-4.3691,-4.3691,-4.3691,-4.4186,-4.4802,-4.5128,-4.4965,-4.5984,-4.8371,-5.0054,-5.1488,-3.0898,-3.0879,-3.0645,-3.0645,-3.0509,-3.0274,-3.0274,-3.002,-2.8664,-2.817,-2.8051,-2.6832,-2.6349,-2.6349,-2.6349,-2.5984,-2.5741,-2.5741,-2.5375,-2.4885,-2.4885,-2.4885,-2.5253,-2.5497,-2.4885,-2.4763,-2.5008,-2.3668,-2.2452,-2.2827,-2.3325,-2.3683,-2.4778,-2.5497,-2.4885,-2.5375,-2.5741,-2.5806,-2.6068,-2.6379,-2.7051,-2.8398,-2.8332,-2.8135,-2.8629,-2.9093,-2.79,-2.7867,-2.7503,-2.7519,-2.7916,-2.8329,-2.8492,-2.8837,-3.0293,-3.1489,-3.242,-3.313,-3.5277,-3.5549,-3.5451,-3.5879,-3.6035,-3.6035,-3.6035,-3.6035,-3.6035,-3.6035,-3.6035,-3.6074,-3.6152,-3.6387,-3.6562,-3.6934,-3.7383,-3.7734,-3.8027,-3.8301,-3.8535,-3.8574,-3.8574,-3.8574,-3.8574,-3.8691,-3.8867,-3.9453,-4.0,-4.0469,-4.084,-4.1055,-4.1172,-4.1172,-4.1172,-4.1172,-4.1172,-4.1172,-4.1172,-4.1172,-4.1445,-4.1875,-4.2324,-4.2734,-4.349,-4.3824,-4.3758,-4.433,-4.5128,-4.5758,-4.6244,-4.6545,-4.6706,-4.8297,-5.0622,-5.2216,-5.3406,-3.0898,-3.0898,-3.0898,-3.0898,-3.0898,-3.0898,-3.0898,-3.0762,-3.0138,-2.9785,-2.9785,-2.9157,-2.8801,-2.8683,-2.8801,-2.8188,-2.7572,-2.7314,-2.6832,-2.6211,-2.6106,-2.6106,-2.5863,-2.5984,-2.5984,-2.6227,-2.5984,-2.5375,-2.4409,-2.4532,-2.5024,-2.5269,-2.647,-2.6712,-2.6624,-2.6953,-2.7453,-2.78,-2.8149,-2.8532,-2.9116,-2.9851,-3.0175,-2.9473,-3.0424,-3.0236,-2.9865,-2.9735,-2.9083,-2.9003,-2.9909,-3.1055,-3.0963,-3.1658,-3.3397,-3.3932,-3.4486,-3.4967,-3.584,-3.6016,-3.6035,-3.6035,-3.6035,-3.6035,-3.6035,-3.6035,-3.6035,-3.6035,-3.6035,-3.6133,-3.6328,-3.6543,-3.6934,-3.7324,-3.7695,-3.7969,-3.8223,-3.8379,-3.8574,-3.8574,-3.8574,-3.8574,-3.8672,-3.8926,-3.916,-3.9609,-4.0137,-4.0566,-4.0898,-4.1113,-4.1172,-4.1172,-4.1172,-4.1172,-4.1172,-4.1172,-4.1172,-4.1172,-4.1327,-4.1798,-4.2226,-4.2837,-4.4019,-4.4379,-4.4435,-4.5271,-4.6384,-4.6867,-4.7027,-4.7645,-4.8575,-5.0569,-5.271,-5.3395,-5.4768,-3.1441,-3.1441,-3.1112,-3.0898,-3.0898,-3.0898,-3.0898,-3.0898,-3.0898,-3.0898,-3.0898,-3.0762,-3.0762,-3.0898,-3.0645,-2.9903,-2.9039,-2.9039,-2.8307,-2.7572,-2.7194,-2.7434,-2.7572,-2.7452,-2.7452,-2.7194,-2.7692,-2.7452,-2.7331,-2.7211,-2.7211,-2.6712,-2.8188,-2.8498,-2.8073,-2.8643,-2.9444,-3.0119,-3.0377,-3.0585,-3.1043,-3.1117,-3.1302,-3.1322,-3.1433,-3.1433,-3.1433,-3.1433,-3.066,-3.0894,-3.2134,-3.3047,-3.2916,-3.3918,-3.4854,-3.5317,-3.5569,-3.5685,-3.6016,-3.6035,-3.6035,-3.6035,-3.6035,-3.6035,-3.6035,-3.6035,-3.6035,-3.6035,-3.6035,-3.625,-3.6562,-3.6738,-3.7187,-3.7617,-3.8027,-3.8281,-3.8476,-3.8535,-3.8574,-3.8574,-3.8574,-3.8574,-3.875,-3.9141,-3.9492,-3.9844,-4.0273,-4.0703,-4.0937,-4.1152,-4.1172,-4.1172,-4.1172,-4.1172,-4.1172,-4.1172,-4.1172,-4.1618,-4.1773,-4.2421,-4.3396,-4.4392,-4.5807,-4.5865,-4.5838,-4.6846,-4.8417,-4.7963,-4.7963,-4.9674,-5.1316,-5.2787,-5.4382,-5.4967,-5.6105,-3.2964,-3.2851,-3.1556,-3.1015,-3.0898,-3.0898,-3.0898,-3.0898,-3.0898,-3.0898,-3.0898,-3.0898,-3.0898,-3.0898,-3.0898,-3.0762,-3.0645,-3.0762,-3.0274,-3.0274,-3.0528,-3.002,-2.9903,-2.9903,-3.0157,-3.0157,-2.9785,-2.9903,-3.0294,-2.9742,-2.9213,-2.8683,-2.9761,-3.0562,-3.0773,-3.0705,-3.1271,-3.1892,-3.2161,-3.2392,-3.2681,-3.2922,-3.2961,-3.298,-3.3146,-3.3165,-3.3165,-3.3077,-3.2957,-3.2876,-3.3772,-3.4512,-3.4602,-3.5065,-3.5625,-3.584,-3.5937,-3.6035,-3.6035,-3.6035,-3.6035,-3.6035,-3.6035,-3.6035,-3.6035,-3.6035,-3.6035,-3.6035,-3.6035,-3.6289,-3.6641,-3.7012,-3.7402,-3.7891,-3.8242,-3.8398,-3.8535,-3.8555,-3.8574,-3.8574,-3.8594,-3.8613,-3.8906,-3.9316,-3.957,-3.9902,-4.043,-4.0859,-4.0996,-4.1172,-4.1172,-4.1172,-4.1172,-4.1172,-4.1172,-4.1483,-4.1907,-4.2637,-4.3075,-4.4182,-4.5293,-4.6364,-4.7332,-4.8408,-4.8733,-4.9518,-4.9986,-4.9986,-5.0607,-5.2471,-5.4045,-5.4835,-5.5971,-5.6786,-5.7685,-3.4403,-3.4403,-3.3866,-3.255,-3.0898,-3.0898,-3.0898,-3.0898,-3.0898,-3.0898,-3.0898,-3.0898,-3.0898,-3.0898,-3.0898,-3.0898,-3.0898,-3.0898,-3.0898,-3.0898,-3.0898,-3.0898,-3.0898,-3.0898,-3.0898,-3.0898,-3.0898,-3.0898,-3.0782,-3.1152,-3.1013,-3.0776,-3.1072,-3.1424,-3.1816,-3.2148,-3.25,-3.2734,-3.3027,-3.3281,-3.334,-3.3418,-3.3418,-3.3418,-3.3418,-3.3418,-3.3457,-3.3691,-3.3887,-3.416,-3.459,-3.5019,-3.5371,-3.5605,-3.582,-3.5976,-3.6016,-3.6035,-3.6035,-3.6035,-3.6035,-3.6035,-3.6035,-3.6035,-3.6035,-3.6035,-3.6035,-3.6035,-3.6055,-3.6328,-3.6973,-3.7226,-3.7519,-3.8105,-3.8437,-3.8535,-3.8574,-3.8574,-3.8574,-3.8574,-3.8633,-3.8691,-3.9082,-3.9512,-3.9707,-3.9941,-4.0508,-4.0957,-4.1094,-4.1172,-4.1172,-4.1172,-4.1172,-4.1463,-4.1618,-4.2196,-4.2922,-4.3856,-4.4612,-4.6117,-4.7334,-4.7422,-4.8494,-5.0108,-5.1401,-5.1708,-5.2014,-5.2166,-5.2798,-5.3726,-5.4966,-5.6153,-5.7274,-5.8378,-5.893,-3.5945,-3.5945,-3.5508,-3.409,-3.2227,-3.1767,-3.1556,-3.1441,-3.1112,-3.0898,-3.0898,-3.0898,-3.0898,-3.0898,-3.0898,-3.0898,-3.0898,-3.0898,-3.0898,-3.0898,-3.0898,-3.0898,-3.0898,-3.0898,-3.0898,-3.0918,-3.1055,-3.1113,-3.1152,-3.1523,-3.1657,-3.1774,-3.1914,-3.2129,-3.2344,-3.2734,-3.2988,-3.3066,-3.3223,-3.3418,-3.3418,-3.3418,-3.3418,-3.3418,-3.3418,-3.3535,-3.3652,-3.3906,-3.4238,-3.459,-3.5,-3.5391,-3.5625,-3.582,-3.5996,-3.6035,-3.6035,-3.6035,-3.6035,-3.6035,-3.6035,-3.6035,-3.6035,-3.6035,-3.6035,-3.6035,-3.6035,-3.6035,-3.6152,-3.6504,-3.7246,-3.7441,-3.7773,-3.8359,-3.8476,-3.8574,-3.8574,-3.8574,-3.8574,-3.8574,-3.8711,-3.8906,-3.9258,-3.9707,-4.0195,-4.0371,-4.0723,-4.1055,-4.1113,-4.1172,-4.1172,-4.1172,-4.1172,-4.1618,-4.2042,-4.2943,-4.4029,-4.5943,-4.695,-4.8394,-4.9296,-4.9583,-5.0573,-5.272,-5.3726,-5.3726,-5.3876,-5.4025,-5.4025,-5.4175,-5.5559,-5.6846,-5.7499,-5.8378,-5.8956,-3.7453,-3.724,-3.6054,-3.5398,-3.5068,-3.3642,-3.2964,-3.2644,-3.1441,-3.0898,-3.0898,-3.0898,-3.0898,-3.0898,-3.0898,-3.0898,-3.0898,-3.0898,-3.0898,-3.0898,-3.0898,-3.0898,-3.0898,-3.0898,-3.0957,-3.1016,-3.1211,-3.1406,-3.1523,-3.1953,-3.2324,-3.2559,-3.2598,-3.2715,-3.2812,-3.3184,-3.3379,-3.3398,-3.3398,-3.3418,-3.3418,-3.3418,-3.3418,-3.3418,-3.3418,-3.3555,-3.3887,-3.4101,-3.4492,-3.5078,-3.5312,-3.5625,-3.5898,-3.5957,-3.6035,-3.6035,-3.6035,-3.6035,-3.6035,-3.6035,-3.6035,-3.6035,-3.6035,-3.6035,-3.6035,-3.6035,-3.6035,-3.6035,-3.6328,-3.6758,-3.7246,-3.7637,-3.8066,-3.8398,-3.8535,-3.8574,-3.8574,-3.8574,-3.8574,-3.8633,-3.8945,-3.9238,-3.9531,-3.9922,-4.0566,-4.0898,-4.1074,-4.1172,-4.1327,-4.1172,-4.1172,-4.1172,-4.1327,-4.2042,-4.279,-4.3856,-4.5148,-4.7247,-4.9259,-5.0707,-5.1991,-5.2742,-5.3986,-5.5629,-5.5582,-5.4967,-5.5435,-5.6047,-5.5657,-5.5337,-5.6203,-5.7248,-5.7826,-5.8403,-5.9031,-3.8921,-3.8921,-3.8477,-3.8267,-3.782,-3.5617,-3.4069,-3.2964,-3.1672,-3.0898,-3.0898,-3.0898,-3.0898,-3.0898,-3.0898,-3.0898,-3.0898,-3.0898,-3.0898,-3.0898,-3.0918,-3.0898,-3.0918,-3.0996,-3.1074,-3.1289,-3.1504,-3.1758,-3.1953,-3.2383,-3.2598,-3.2812,-3.3047,-3.3203,-3.3242,-3.3379,-3.3418,-3.3418,-3.3418,-3.3418,-3.3418,-3.3418,-3.3418,-3.3418,-3.3418,-3.3672,-3.4101,-3.4316,-3.4824,-3.5391,-3.5605,-3.5859,-3.6016,-3.6035,-3.6035,-3.6035,-3.6035,-3.6035,-3.6035,-3.6035,-3.6035,-3.6035,-3.6035,-3.6035,-3.6035,-3.6035,-3.6035,-3.6133,-3.6484,-3.6894,-3.7246,-3.7676,-3.8086,-3.8437,-3.8574,-3.8574,-3.8574,-3.8574,-3.8594,-3.8691,-3.8926,-3.9609,-4.0039,-4.0425,-4.0974,-4.1325,-4.1443,-4.1463,-4.1463,-4.1327,-4.1172,-4.1172,-4.1463,-4.2503,-4.3532,-4.5063,-4.7239,-4.9537,-5.1609,-5.3394,-5.4558,-5.4957,-5.5401,-5.5972,-5.6022,-5.6219,-5.6219,-5.6269,-5.6495,-5.6721,-5.7123,-5.7499,-5.7951,-5.8579,-5.9257,-3.9697,-3.9697,-3.9697,-3.9697,-3.9362,-3.7049,-3.5288,-3.3845,-3.2871,-3.2207,-3.1767,-3.1652,-3.1325,-3.1112,-3.0898,-3.0898,-3.0898,-3.0898,-3.0898,-3.0918,-3.1074,-3.1133,-3.1152,-3.125,-3.1543,-3.1738,-3.1934,-3.2148,-3.2402,-3.2793,-3.3008,-3.3105,-3.3262,-3.334,-3.3398,-3.3398,-3.3418,-3.3418,-3.3418,-3.3418,-3.3418,-3.3418,-3.3418,-3.3476,-3.3594,-3.3887,-3.4297,-3.4707,-3.5137,-3.5547,-3.584,-3.6035,-3.6035,-3.6035,-3.6035,-3.6035,-3.6035,-3.6035,-3.6035,-3.6035,-3.6035,-3.6035,-3.6035,-3.6035,-3.6035,-3.6035,-3.6152,-3.6328,-3.6641,-3.7051,-3.7461,-3.7871,-3.8203,-3.8574,-3.8574,-3.8574,-3.8613,-3.8613,-3.8809,-3.8887,-3.9336,-4.0,-4.0527,-4.0935,-4.1404,-4.1598,-4.1773,-4.1907,-4.2062,-4.2062,-4.2062,-4.235,-4.279,-4.4247,-4.5617,-4.7038,-4.9282,-5.1705,-5.334,-5.4838,-5.5415,-5.5672,-5.5993,-5.6093,-5.6168,-5.6219,-5.6219,-5.6294,-5.6495,-5.6897,-5.7424,-5.7775,-5.8127,-5.873,-5.9433,-3.9697,-3.9697,-3.9697,-3.9697,-3.9465,-3.8137,-3.6703,-3.5398,-3.5178,-3.4403,-3.3191,-3.3191,-3.2644,-3.1441,-3.1228,-3.1441,-3.1616,-3.15,-3.1656,-3.1543,-3.2056,-3.1919,-3.1879,-3.1976,-3.2012,-3.2266,-3.2461,-3.2598,-3.2832,-3.3105,-3.332,-3.3359,-3.3379,-3.3418,-3.3418,-3.3418,-3.3418,-3.3418,-3.3418,-3.3418,-3.3418,-3.3418,-3.3476,-3.3594,-3.3828,-3.4238,-3.4668,-3.5098,-3.5508,-3.582,-3.6016,-3.6035,-3.6035,-3.6035,-3.6035,-3.6035,-3.6035,-3.6035,-3.6035,-3.6035,-3.6035,-3.6035,-3.6035,-3.6035,-3.6055,-3.6113,-3.6309,-3.6621,-3.6992,-3.7422,-3.7851,-3.8164,-3.8496,-3.8574,-3.8574,-3.8613,-3.8652,-3.8789,-3.9043,-3.9375,-3.9941,-4.0488,-4.0859,-4.1308,-4.1907,-4.2637,-4.3075,-4.3966,-4.3945,-4.3511,-4.3663,-4.4398,-4.5127,-4.6441,-4.7704,-4.8737,-5.0675,-5.2809,-5.3799,-5.5039,-5.5641,-5.6093,-5.6118,-5.6168,-5.6194,-5.6219,-5.6219,-5.6319,-5.652,-5.6997,-5.7625,-5.8001,-5.8353,-5.8905,-5.9508,-3.9697,-3.9697,-3.9697,-3.9697,-3.9697,-3.9258,-3.8243,-3.6811,-3.5836,-3.4958,-3.4626,-3.4626,-3.4292,-3.409,-3.409,-3.3979,-3.4108,-3.4393,-3.4566,-3.444,-3.3809,-3.372,-3.3411,-3.2975,-3.271,-3.2681,-3.3021,-3.3322,-3.3309,-3.3544,-3.3524,-3.3398,-3.3902,-3.3776,-3.365,-3.3418,-3.3544,-3.3544,-3.3544,-3.3418,-3.3437,-3.3457,-3.3594,-3.3828,-3.4062,-3.4512,-3.5039,-3.5293,-3.5664,-3.5937,-3.6016,-3.6035,-3.6035,-3.6035,-3.6035,-3.6035,-3.6035,-3.6035,-3.6035,-3.6035,-3.6035,-3.6035,-3.6035,-3.6035,-3.6094,-3.6269,-3.6504,-3.6855,-3.7305,-3.7734,-3.8027,-3.832,-3.8535,-3.8574,-3.8574,-3.8594,-3.8691,-3.9004,-3.9258,-3.9726,-4.0293,-4.0684,-4.1094,-4.1618,-4.2196,-4.3207,-4.4377,-4.5552,-4.6146,-4.5701,-4.5552,-4.6146,-4.7029,-4.8217,-4.8957,-5.0008,-5.1895,-5.3793,-5.462,-5.5214,-5.5817,-5.6168,-5.6194,-5.6219,-5.6219,-5.6219,-5.6219,-5.6344,-5.647,-5.7223,-5.7851,-5.8227,-5.8604,-5.9131,-5.9483,-3.9697,-3.9697,-3.9697,-3.9697,-3.9697,-3.9697,-3.9129,-3.8243,-3.737,-3.6834,-3.6162,-3.6162,-3.5836,-3.5178,-3.5201,-3.5312,-3.5536,-3.5625,-3.5847,-3.5953,-3.6005,-3.5808,-3.5328,-3.5023,-3.5077,-3.4879,-3.4962,-3.5453,-3.5191,-3.5232,-3.5335,-3.5458,-3.5335,-3.5211,-3.5335,-3.4964,-3.4487,-3.4133,-3.3902,-3.3544,-3.3476,-3.3574,-3.3848,-3.4101,-3.4316,-3.4902,-3.5332,-3.5488,-3.5781,-3.5996,-3.6016,-3.6035,-3.6035,-3.6035,-3.6035,-3.6035,-3.6035,-3.6035,-3.6035,-3.6035,-3.6035,-3.6035,-3.6035,-3.6035,-3.6172,-3.6367,-3.666,-3.7012,-3.7539,-3.7988,-3.8203,-3.8398,-3.8496,-3.8574,-3.8574,-3.8574,-3.8867,-3.918,-3.959,-4.0019,-4.0449,-4.084,-4.1364,-4.1868,-4.2922,-4.4677,-4.6146,-4.7613,-4.8217,-4.8361,-4.8072,-4.8217,-4.9081,-4.9985,-5.0626,-5.1151,-5.2705,-5.4152,-5.482,-5.544,-5.6018,-5.6219,-5.6219,-5.6219,-5.6219,-5.6219,-5.6219,-5.6269,-5.647,-5.7298,-5.8001,-5.8353,-5.8755,-5.9232,-5.9483,-3.9697,-3.9697,-3.9697,-3.9697,-3.9697,-3.9697,-3.9697,-3.9722,-3.9565,-3.897,-3.782,-3.7761,-3.7143,-3.6696,-3.668,-3.6801,-3.7188,-3.7419,-3.7808,-3.7383,-3.7768,-3.7785,-3.792,-3.7955,-3.7144,-3.7777,-3.7963,-3.7178,-3.7821,-3.7626,-3.7385,-3.8223,-3.7865,-3.7506,-3.7265,-3.6417,-3.6051,-3.5827,-3.5087,-3.4544,-3.376,-3.3828,-3.4121,-3.4355,-3.4844,-3.541,-3.5547,-3.5762,-3.6035,-3.6035,-3.6035,-3.6035,-3.6035,-3.6035,-3.6035,-3.6035,-3.6035,-3.6035,-3.6035,-3.6035,-3.6035,-3.6035,-3.6035,-3.6094,-3.6269,-3.6601,-3.6953,-3.7226,-3.7715,-3.8144,-3.8398,-3.8476,-3.8555,-3.8574,-3.8574,-3.8672,-3.8926,-3.9414,-4.0098,-4.0488,-4.0762,-4.1249,-4.2269,-4.2922,-4.4548,-4.6293,-4.7759,-4.9081,-5.0127,-5.0434,-5.0269,-4.9985,-5.0717,-5.1187,-5.1449,-5.2024,-5.3321,-5.4461,-5.5039,-5.5566,-5.6068,-5.6194,-5.6219,-5.6219,-5.6219,-5.6219,-5.6219,-5.6269,-5.6595,-5.7449,-5.8077,-5.8478,-5.8905,-5.9357,-5.9483,-3.9697,-3.9697,-3.9697,-3.9697,-3.9697,-3.9697,-3.9697,-3.9722,-4.0149,-3.984,-3.9278,-3.955,-3.9537,-3.9004,-3.9188,-3.9479,-3.9758,-3.9695,-4.0612,-4.0298,-4.014,-3.9823,-3.9546,-3.9078,-3.858,-3.8223,-3.8223,-3.858,-3.8698,-3.858,-3.8342,-3.8342,-3.8461,-3.8698,-3.8698,-3.7865,-3.7626,-3.7714,-3.7227,-3.5957,-3.4772,-3.4359,-3.4297,-3.4805,-3.541,-3.5605,-3.5742,-3.5937,-3.6035,-3.6035,-3.6035,-3.6035,-3.6035,-3.6035,-3.6035,-3.6035,-3.6035,-3.6035,-3.6035,-3.6035,-3.6035,-3.6035,-3.6074,-3.6269,-3.6523,-3.6914,-3.7246,-3.7519,-3.7851,-3.8262,-3.8535,-3.8555,-3.8574,-3.8574,-3.8594,-3.8789,-3.8984,-3.9916,-4.068,-4.0859,-4.1113,-4.2042,-4.3075,-4.4527,-4.6146,-4.7467,-4.8794,-5.0127,-5.1443,-5.205,-5.1886,-5.1747,-5.205,-5.2377,-5.2362,-5.2759,-5.3944,-5.4612,-5.5164,-5.5666,-5.6143,-5.6194,-5.6219,-5.6219,-5.6219,-5.6219,-5.6219,-5.6219,-5.6696,-5.7575,-5.8027,-5.8378,-5.8956,-5.9458,-5.9483,-3.9697,-3.9697,-3.9697,-3.9697,-3.9697,-3.9697,-3.9697,-3.9798,-4.0275,-4.035,-4.0174,-4.0601,-4.0877,-4.0877,-4.1204,-4.1555,-4.1706,-4.1982,-4.2013,-4.209,-4.2015,-4.1687,-4.1191,-4.0592,-4.0707,-4.0361,-4.0361,-4.0476,-4.0129,-4.0361,-4.0476,-4.0221,-4.0245,-4.0129,-4.0129,-3.9779,-3.9403,-3.9633,-3.9454,-3.8306,-3.6494,-3.6316,-3.544,-3.5712,-3.5586,-3.5916,-3.5879,-3.6035,-3.6035,-3.6035,-3.6035,-3.6035,-3.6035,-3.6035,-3.6035,-3.6035,-3.6035,-3.6035,-3.6035,-3.6035,-3.6035,-3.6035,-3.6035,-3.6191,-3.6601,-3.6992,-3.7402,-3.7695,-3.8125,-3.8535,-3.8555,-3.8574,-3.8574,-3.8574,-3.8672,-3.8809,-3.9889,-4.1053,-4.1218,-4.1016,-4.2062,-4.3966,-4.5127,-4.6588,-4.8049,-4.8938,-5.0127,-5.0998,-5.2327,-5.2929,-5.2929,-5.2929,-5.2929,-5.3155,-5.3103,-5.3553,-5.4244,-5.4863,-5.5315,-5.5767,-5.6194,-5.6194,-5.6219,-5.6219,-5.6219,-5.6219,-5.6219,-5.6269,-5.6796,-5.765,-5.7976,-5.8252,-5.888,-5.9508,-5.9508,-3.9697,-3.9697,-3.9697,-3.9697,-3.9722,-3.9798,-3.9823,-3.9923,-4.0475,-4.0777,-4.0877,-4.1354,-4.1505,-4.1455,-4.1555,-4.1882,-4.2158,-4.2359,-4.2635,-4.2811,-4.2824,-4.2625,-4.2625,-4.2737,-4.2375,-4.2375,-4.2375,-4.2513,-4.2375,-4.2375,-4.2375,-4.2874,-4.2986,-4.2986,-4.2513,-4.1834,-4.1153,-4.1303,-4.1093,-4.0449,-3.9788,-3.9194,-3.7817,-3.6841,-3.6435,-3.6634,-3.6674,-3.6674,-3.6809,-3.6924,-3.7193,-3.6674,-3.6403,-3.6403,-3.6287,-3.6152,-3.6035,-3.6035,-3.6035,-3.6035,-3.6035,-3.6035,-3.6035,-3.625,-3.6799,-3.721,-3.7622,-3.8092,-3.8543,-3.87,-3.872,-3.8574,-3.8574,-3.8779,-3.8877,-3.9659,-4.1183,-4.2431,-4.215,-4.1848,-4.3663,-4.5723,-4.7175,-4.865,-4.9534,-5.041,-5.1303,-5.2189,-5.2929,-5.2929,-5.2929,-5.2929,-5.2929,-5.3206,-5.3607,-5.4084,-5.4587,-5.5139,-5.5591,-5.5942,-5.6219,-5.6219,-5.6219,-5.6219,-5.6219,-5.6219,-5.6294,-5.6394,-5.7022,-5.7725,-5.8127,-5.8478,-5.9006,-5.9508,-5.9508,-3.9697,-3.9697,-3.9697,-3.9697,-3.9772,-4.0149,-4.035,-4.0526,-4.1404,-4.1831,-4.1882,-4.2308,-4.2459,-4.2032,-4.2509,-4.2735,-4.2635,-4.271,-4.2785,-4.2961,-4.2986,-4.2986,-4.2986,-4.2986,-4.2986,-4.2986,-4.2986,-4.2986,-4.2986,-4.2986,-4.2986,-4.2986,-4.2986,-4.2986,-4.2986,-4.2499,-4.2609,-4.2848,-4.3272,-4.2999,-4.1976,-4.1308,-4.0479,-4.0015,-4.0234,-4.0148,-4.0148,-4.0148,-4.0278,-4.0278,-3.9888,-3.8465,-3.7688,-3.7441,-3.7441,-3.6924,-3.6674,-3.6674,-3.6674,-3.6287,-3.6152,-3.6403,-3.6482,-3.6779,-3.7174,-3.7828,-3.8326,-3.8942,-3.9261,-3.8991,-3.8846,-3.872,-3.8594,-3.9149,-3.9413,-4.1648,-4.3499,-4.4056,-4.4103,-4.4827,-4.6146,-4.7613,-4.8794,-4.9961,-5.0693,-5.1443,-5.205,-5.2929,-5.2929,-5.2929,-5.2929,-5.2955,-5.2955,-5.3256,-5.3632,-5.4185,-5.4687,-5.529,-5.5792,-5.6043,-5.6219,-5.6219,-5.6219,-5.6219,-5.6219,-5.6219,-5.6319,-5.647,-5.7097,-5.775,-5.8303,-5.878,-5.9257,-5.9508,-5.9508]}]]